[[[{"header":{"parameterUnit":"kt","parameterCategory":2,"dx":1,"dy":1,"la1":29.285339999999998,"la2":30.599998999999997,"lo1":-89.70041500000002,"lo2":-87.6738589999976,"nx":112,"ny":82,"refTime":"2022-09-24T06:00:00:Z","depth":0,"parameterNumber":1,"parameterNumberName":"U-component_of_WINDS"},"data":[14.024,13.9484,13.8611,13.9077,13.7332,13.5354,13.4978,13.3523,13.2301,0.0,0.0,0.0,0.0,13.108,13.0498,13.1312,13.0789,13.0265,0.0,13.0265,13.0265,13.0265,0.0,0.0,0.0,0.0,13.7913,13.96,14.0124,14.1112,14.2857,14.373,14.4636,14.5566,14.5566,14.5566,14.5566,14.5566,14.5799,14.6323,14.6323,14.6497,14.6929,14.7768,14.8175,14.8233,14.9454,14.9978,15.0036,15.0501,15.0675,15.0734,15.1582,15.1931,15.1815,15.0966,15.0675,15.0675,15.0675,15.0675,15.0675,15.0675,15.0675,15.0675,15.0675,15.0675,15.0675,15.0675,15.0675,15.0675,15.0675,15.0675,15.085,15.1699,15.1931,15.2164,15.2978,15.3188,15.3188,15.3188,15.3188,15.3188,15.3188,15.3188,15.2455,15.0327,14.9978,14.9803,14.9338,14.9246,14.9246,14.9246,14.9687,15.0152,15.0617,15.1466,15.228,15.3095,15.3188,15.3188,15.3188,15.3188,15.3188,15.3188,15.3188,15.3188,15.3188,15.3188,15.3188,15.3188,15.3188,15.3188,13.7654,13.6898,13.5994,13.6459,13.4656,13.2678,13.2273,13.1196,0.0,0.0,0.0,0.0,0.0,13.0847,13.0265,13.0207,13.0207,12.9886,0.0,12.9654,13.0381,13.0847,13.4279,0.0,0.0,13.8611,13.9859,14.1545,14.172,14.2276,14.3555,14.4461,14.5159,14.5566,14.5566,14.5566,14.5566,14.5566,14.5566,14.5566,14.5566,14.5566,14.5658,14.6497,14.6871,14.6929,14.8175,14.8698,14.8756,14.9129,14.9246,14.9362,15.0268,15.0559,15.0501,14.9629,14.9246,14.9246,14.9246,14.9246,14.9246,14.9246,14.9246,14.9246,14.9246,14.9246,14.9246,14.9246,14.9246,14.9246,14.9246,14.9246,14.9478,15.0385,15.0908,15.1466,15.2339,15.2862,15.3188,15.3188,15.2839,15.2513,15.2513,15.2164,15.1141,14.8989,14.8698,14.8524,14.8059,14.8059,14.8059,14.8059,14.8407,14.8698,14.8698,14.9861,15.1141,15.2455,15.292,15.3188,15.3188,15.3188,15.3188,15.3188,15.3188,15.3188,15.3188,15.3188,15.3188,15.3188,15.3188,15.3188,13.4074,13.3116,13.2506,13.3725,13.2155,13.0614,13.1866,0.0,13.0265,0.0,0.0,0.0,0.0,13.0265,12.9421,12.6891,12.8607,0.0,0.0,12.8635,13.0789,13.2273,13.5676,13.7913,13.803,14.0208,14.172,14.1836,14.1778,14.2301,14.3614,14.373,14.4286,14.5566,14.5566,14.5566,14.5566,14.5566,14.5566,14.5566,14.5566,14.5566,14.5566,14.5566,14.5566,14.5683,14.6929,14.7511,14.7569,14.8698,14.9129,14.9129,14.9187,14.9222,14.9129,14.9129,14.9129,14.9129,14.9129,14.9129,14.9129,14.9129,14.9129,14.9129,14.9129,14.9129,14.9129,14.9129,14.9129,14.9129,14.9129,14.9129,14.9129,14.9222,15.021,15.1083,15.1141,15.2164,15.3072,15.3072,15.2048,15.1175,15.1175,15.0036,14.8815,14.7685,14.7511,14.6987,14.5741,14.5566,14.5566,14.5566,14.6696,14.7511,14.7511,14.8524,14.9803,15.1024,15.2397,15.313,15.3188,15.3188,15.3188,15.3188,15.3188,15.3188,15.3188,15.3188,15.3188,15.3188,15.3188,15.3188,13.2476,13.2418,13.2273,13.2592,13.2215,13.1487,0.0,0.0,0.0,0.0,0.0,0.0,0.0,0.0,13.0032,12.9305,0.0,13.0003,12.9246,12.98,13.2069,13.7072,13.8585,13.9949,14.1869,14.1836,14.2508,14.4403,14.3614,14.3672,14.4985,14.5043,14.5217,14.5566,14.5566,14.5566,14.5566,14.5566,14.5566,14.5566,14.5566,14.5566,14.5566,14.5566,14.5566,14.5625,14.5974,14.6148,14.6148,14.6464,14.658,14.6696,14.7685,14.7453,14.658,14.658,14.658,14.658,14.658,14.658,14.658,14.658,14.658,14.658,14.658,14.658,14.658,14.658,14.658,14.658,14.658,14.658,14.6813,14.7768,14.8325,14.8756,14.9629,15.0094,15.0385,15.0385,15.0094,14.9803,14.9803,14.8034,14.6464,14.6206,14.6148,14.5974,14.5625,14.5566,14.5566,14.5566,14.5915,14.6148,14.6148,14.7278,14.8209,14.8558,15.0594,15.2164,15.313,15.3188,15.3188,15.3188,15.3188,15.3188,15.3188,15.3188,15.3188,15.3188,15.3188,15.3188,12.9537,13.0149,13.0556,13.0556,0.0,0.0,13.044,0.0,13.0265,0.0,0.0,0.0,0.0,0.0,0.0,0.0,13.0003,13.0847,13.0323,13.1661,13.4221,13.8437,13.8934,14.0182,14.3323,14.3439,14.3963,14.545,14.4868,14.481,14.5566,14.5566,14.5566,14.5566,14.5566,14.5566,14.5566,14.5566,14.5566,14.5566,14.5566,14.5566,14.5566,14.5566,14.5566,14.5566,14.5566,14.5566,14.5566,14.5566,14.5566,14.5683,14.6439,14.6265,14.5566,14.5566,14.5566,14.5566,14.5566,14.5566,14.5566,14.5566,14.5566,14.5566,14.5566,14.5566,14.5566,14.5566,14.5566,14.5566,14.5566,14.5566,14.5799,14.6555,14.7162,14.771,14.8407,14.8931,14.9246,14.9246,14.8931,14.8349,14.786,14.6555,14.5566,14.5566,14.5566,14.5566,14.5566,14.5566,14.5566,14.5566,14.5566,14.5566,14.5566,14.6323,14.6929,14.7511,14.8907,15.0477,15.228,15.2862,15.3188,15.3188,15.3188,15.3188,15.3188,15.3188,15.3188,15.3188,15.3188,15.3188,0.0,0.0,0.0,0.0,12.9188,0.0,13.0177,0.0,13.0265,13.044,0.0,13.0265,13.044,0.0,0.0,12.7356,13.0061,13.201,13.0847,13.4279,13.7363,13.8553,13.8669,14.0065,14.3497,14.4926,14.5566,14.5566,14.5566,14.5566,14.5566,14.5566,14.5566,14.5566,14.5566,14.5566,14.5566,14.5566,14.5566,14.5566,14.5566,14.5566,14.5566,14.5566,14.5566,14.5566,14.5566,14.5566,14.5566,14.5566,14.5566,14.5566,14.5566,14.5566,14.5566,14.5566,14.5566,14.5566,14.5566,14.5566,14.5566,14.5566,14.5566,14.5566,14.5566,14.5566,14.5566,14.5566,14.5566,14.5566,14.5566,14.5566,14.5566,14.5566,14.6464,14.7336,14.7336,14.8117,14.8873,14.8873,14.8,14.6929,14.5799,14.5566,14.5566,14.5566,14.5566,14.5566,14.5566,14.5566,14.5566,14.5566,14.5566,14.5566,14.5566,14.5566,14.609,14.722,14.7453,14.8558,15.0768,15.2164,15.2978,15.3188,15.3188,15.3188,15.3188,15.3188,15.3188,15.3188,15.3188,15.3188,0.0,0.0,0.0,0.0,0.0,12.8956,0.0,0.0,0.0,13.1603,13.0963,13.0556,13.1603,13.0963,13.044,13.0963,13.2592,13.3667,13.3434,13.8437,14.2657,14.3937,14.4112,14.4403,14.5159,14.545,14.5566,14.5566,14.5566,14.5566,14.5566,14.5566,14.5566,14.5566,14.5566,14.5566,14.5566,14.5566,14.5566,14.5566,14.5566,14.5566,14.5566,14.5566,14.5566,14.5566,14.5566,14.5566,14.5566,14.5566,14.5566,14.5566,14.5566,14.5566,14.5566,14.5566,14.5566,14.5566,14.5566,14.5566,14.5566,14.5566,14.5566,14.5566,14.5566,14.5566,14.5566,14.5566,14.5566,14.5566,14.5566,14.5566,14.5566,14.5566,14.5799,14.5974,14.5974,14.6148,14.6323,14.6323,14.609,14.5857,14.5625,14.5566,14.5566,14.5566,14.5566,14.5566,14.5566,14.5566,14.5566,14.5566,14.5566,14.5566,14.5566,14.5566,14.5683,14.5974,14.6929,14.7743,14.8267,15.0419,15.2106,15.3188,15.3188,15.3188,15.3188,15.3188,15.3188,15.3188,15.3188,15.3188,12.4535,12.4942,0.0,12.7007,0.0,0.0,0.0,13.0731,13.0789,13.2767,13.2127,13.1603,13.2941,13.3174,13.3349,13.3989,13.5734,13.7157,13.7855,14.1229,14.3846,14.4577,14.4636,14.4868,14.5542,14.5566,14.5566,14.5566,14.5566,14.5566,14.5566,14.5566,14.5566,14.5566,14.5566,14.5566,14.5566,14.5566,14.5566,14.5566,14.5566,14.5566,14.5566,14.5566,14.5566,14.5566,14.5566,14.5566,14.5566,14.5566,14.5566,14.5566,14.5566,14.5566,14.5566,14.5566,14.5566,14.5566,14.5566,14.5566,14.5566,14.5566,14.5566,14.5566,14.5566,14.6502,14.7849,14.9116,14.9499,14.9499,14.9499,14.9499,14.9499,14.9499,14.9499,14.9499,14.9499,14.8469,14.7524,14.7524,14.7524,14.71,14.5832,14.5566,14.5566,14.5566,14.5566,14.5566,14.5566,14.5566,14.5566,14.5566,14.5566,14.5566,14.5566,14.5566,14.5566,14.5566,14.6206,14.6871,14.7511,14.928,15.085,15.2164,15.2839,15.3188,15.3188,15.2513,15.2222,15.2164,15.1524,15.1233,12.2672,12.3342,12.4419,12.5931,0.0,0.0,13.1196,13.1196,13.1312,13.3667,13.3465,13.329,13.4598,13.5703,13.649,13.6723,13.8701,14.0647,14.2276,14.3381,14.4054,14.4054,14.4054,14.4461,14.5508,14.5566,14.5566,14.5566,14.5566,14.5566,14.5566,14.5566,14.5566,14.5566,14.5566,14.5566,14.5566,14.5566,14.5566,14.5566,14.5566,14.5566,14.5566,14.5566,14.5566,14.5566,14.5566,14.5566,14.5566,14.5566,14.5566,14.5566,14.5566,14.5566,14.5566,14.5566,14.5932,14.6337,14.6337,14.6699,14.71,14.71,14.71,14.71,14.71,14.8598,15.07,15.281,15.3359,15.3359,15.3359,15.3359,15.3359,15.3359,15.3359,15.3359,15.3359,15.1732,15.026,15.026,14.9817,14.8663,14.6065,14.5566,14.5566,14.5566,14.5566,14.5566,14.5566,14.5566,14.5566,14.5566,14.5566,14.5566,14.5566,14.5566,14.5566,14.5566,14.5566,14.609,14.7104,14.8291,14.9454,15.0535,15.1757,15.2513,15.2746,15.149,15.085,15.0792,14.9803,14.9246,12.2672,12.2788,12.34,12.5786,12.6455,0.0,12.9858,13.1196,13.236,13.3842,13.4889,13.6025,13.7215,13.7506,13.803,13.9167,14.0531,14.2334,14.481,14.5276,14.5392,14.5392,14.5392,14.545,14.5566,14.5566,14.5566,14.5566,14.5566,14.5566,14.5566,14.5566,14.5566,14.5566,14.5566,14.5566,14.5566,14.5566,14.5566,14.5566,14.5566,14.5566,14.5566,14.5566,14.5566,14.5566,14.5566,14.5566,14.5566,14.5566,14.5566,14.5566,14.5566,14.5566,14.5566,14.5566,14.7034,14.9048,14.9048,15.0606,15.2473,15.2473,15.2473,15.2473,15.2473,15.2688,15.2963,15.3268,15.3359,15.3359,15.3359,15.3359,15.3359,15.3359,15.3359,15.3359,15.3359,15.3116,15.2902,15.2902,15.1047,14.8663,14.6065,14.5566,14.5566,14.5566,14.5566,14.5566,14.5566,14.5566,14.5566,14.5566,14.5566,14.5566,14.5566,14.5566,14.5566,14.5566,14.5566,14.5625,14.5799,14.7045,14.7768,14.7976,14.9105,15.0268,15.1466,15.0152,14.9478,14.9478,14.9362,14.9246,12.2846,12.2672,12.3225,12.5699,0.0,0.0,13.0614,13.1808,13.2797,13.4861,13.6258,13.7448,13.8728,14.0182,14.1403,14.1959,14.3123,14.4345,14.545,14.5566,14.5566,14.5566,14.5566,14.5566,14.5566,14.5566,14.5566,14.5566,14.5566,14.5566,14.5566,14.5566,14.5566,14.5566,14.5566,14.5566,14.5566,14.5566,14.5566,14.5566,14.5566,14.5566,14.5633,14.7132,14.7882,14.7979,14.9467,14.9244,14.8012,14.9499,15.0105,15.0105,15.0105,15.0105,15.0105,15.0105,15.0797,15.1763,15.1763,15.2473,15.3359,15.3359,15.3359,15.3359,15.3359,15.4447,15.5607,15.5607,15.6755,15.7882,15.7882,15.7882,15.7882,15.7882,15.7882,15.7882,15.7882,15.6726,15.5607,15.5607,15.4746,15.3207,15.0577,15.0105,15.0105,15.0105,15.0105,14.9594,14.8076,14.918,14.9562,14.8044,14.7882,14.7882,14.7882,14.6469,14.5566,14.5566,14.5566,14.5566,14.5566,14.6813,14.7569,14.7569,14.8698,14.9571,15.0094,14.8873,14.8291,14.8233,14.7511,14.7104,12.2993,0.0,0.0,0.0,0.0,0.0,13.1836,13.303,13.3786,13.5676,13.7564,13.9193,14.0124,14.2392,14.4228,14.4228,14.4985,14.5566,14.5566,14.5566,14.5566,14.5566,14.5566,14.5566,14.5566,14.5566,14.5566,14.5566,14.5566,14.5566,14.5566,14.5566,14.5566,14.5566,14.5566,14.5566,14.5566,14.5566,14.5566,14.5566,14.5566,14.5566,14.5633,14.7557,14.8405,14.8534,15.1141,15.2042,15.1701,15.2871,15.2902,15.2258,15.1515,15.1235,15.1235,15.1235,15.2104,15.3359,15.3359,15.4295,15.5548,15.5548,15.5548,15.5548,15.5548,15.6843,15.8317,15.8317,15.9717,16.1112,16.1112,16.1112,16.1112,16.1112,16.1112,16.1112,16.1112,15.9689,15.8117,15.7427,15.7283,15.6434,15.3783,15.3359,15.3359,15.3359,15.3359,15.2657,15.0766,15.2227,15.2412,14.9753,14.9495,14.9208,14.8469,14.7328,14.6666,14.6666,14.7361,14.7725,14.7725,14.8638,14.8835,14.8099,14.8945,14.9186,14.8815,14.9052,14.9138,14.9138,14.8166,14.7361,0.0,0.0,0.0,12.7327,12.8228,12.9246,13.3202,13.5005,13.5967,13.6025,13.9018,14.1604,14.1662,14.3821,14.5508,14.5508,14.5566,14.5566,14.5566,14.5566,14.5566,14.5566,14.5566,14.5566,14.5566,14.5566,14.5566,14.5566,14.5566,14.5566,14.5566,14.5566,14.5566,14.5566,14.5566,14.5566,14.5566,14.5566,14.5566,14.5566,14.5566,14.5566,14.5566,14.5666,14.5699,14.5866,14.8469,15.2412,15.6814,15.4417,15.1887,14.9367,14.6831,14.5832,14.5832,14.5832,14.902,15.3359,15.3359,15.6634,16.092,16.092,16.092,16.092,16.092,16.0947,16.1002,16.1002,16.1057,16.1112,16.1112,16.1112,16.1112,16.1112,16.1112,16.1112,16.1112,16.1057,16.0275,15.7744,15.7283,15.6434,15.3783,15.3359,15.3359,15.3359,15.3359,15.3328,15.3237,15.3298,15.2412,14.9753,14.9495,14.8437,14.5932,14.7979,14.9399,14.9399,15.1763,15.3116,15.3116,15.3177,15.201,14.9491,14.9459,14.882,14.7569,15.1364,15.3177,15.3177,15.3177,15.1794,12.3225,12.3225,12.4535,12.753,12.8956,13.0352,13.3434,13.5152,13.6083,13.6083,13.841,14.0647,14.1545,14.245,14.3032,14.3032,14.373,14.4345,14.4345,14.5043,14.5566,14.5566,14.5566,14.5566,14.5566,14.5566,14.5566,14.5566,14.5566,14.5566,14.5566,14.5566,14.5566,14.5566,14.5566,14.5566,14.5566,14.5566,14.5566,14.5566,14.5566,14.5566,14.5699,14.918,15.0766,15.1016,15.5371,15.722,15.7341,15.8203,15.8031,15.7133,15.6255,15.5932,15.5932,15.5932,15.7046,15.8517,15.8517,15.9717,16.1112,16.1112,16.1112,16.1112,16.1112,16.1112,16.1112,16.1112,16.1112,16.1112,16.1112,16.1821,16.2786,16.3752,16.3302,16.2593,16.2593,16.2593,16.2022,16.0188,15.9857,15.9541,15.8659,15.8517,15.8517,15.8517,15.8517,15.7945,15.62,15.7451,15.7509,15.4895,15.3116,15.1732,15.086,14.8405,14.6929,14.6929,14.7693,14.8211,14.8211,14.8211,14.7758,14.6929,14.8598,15.0152,15.1367,15.1007,15.0766,15.0703,14.8988,14.8663,12.3865,12.3865,12.5117,12.8199,12.9944,13.1603,13.4191,13.5792,13.6692,13.6692,13.8352,14.0039,14.088,14.0996,14.1171,14.1604,14.2418,14.2974,14.2974,14.4079,14.4868,14.4868,14.5276,14.5566,14.5566,14.5566,14.5566,14.5566,14.5566,14.5566,14.5566,14.5566,14.5566,14.5566,14.5566,14.5566,14.5566,14.5566,14.5566,14.5566,14.5566,14.5566,14.5733,15.0038,15.198,15.2288,15.748,15.8807,15.7341,15.806,15.8374,15.8374,15.8374,15.8374,15.8374,15.8374,15.8977,15.9773,15.9773,16.033,16.1112,16.1112,16.1112,16.1112,16.1112,16.1112,16.1112,16.1112,16.1112,16.1241,16.1756,16.2593,16.3688,16.5076,16.469,16.4046,16.4046,16.3237,16.2271,16.1305,16.1112,16.1112,16.1112,16.1112,16.1112,16.1112,16.1112,16.0561,15.8892,16.0108,16.0136,15.7543,15.5726,15.4417,15.342,15.1141,14.9785,14.9785,15.064,15.1172,15.1172,15.1172,15.0703,14.9817,15.139,15.3085,15.4776,15.4026,15.3663,15.3633,15.198,15.1577,12.4709,12.4477,12.5524,12.9305,13.1254,13.2941,13.5501,13.7014,13.7797,13.7797,13.8818,13.969,13.969,13.969,14.0065,14.1313,14.1545,14.1604,14.1604,14.2741,14.3555,14.3614,14.4752,14.5508,14.5566,14.5566,14.5566,14.5566,14.5566,14.5566,14.5566,14.5566,14.5566,14.5566,14.5566,14.5566,14.5566,14.5566,14.5666,14.5799,14.5799,14.5866,14.6039,14.8695,14.988,15.0165,15.5222,15.7485,15.7312,15.4806,15.3753,15.3753,15.3753,15.3753,15.3753,15.3753,15.5341,15.7485,15.7485,15.909,16.1112,16.1112,16.1112,16.1112,16.1112,16.1112,16.1112,16.1112,16.1112,16.1499,16.2915,16.3366,16.3752,16.5205,16.5591,16.5591,16.5463,16.3237,16.1241,16.1177,16.1112,16.1112,16.1112,16.1112,16.1112,16.1112,16.1112,16.1112,16.1112,16.1112,16.0191,15.7744,15.737,15.6288,15.3753,15.5696,15.7046,15.7046,15.9372,16.0754,16.0754,16.0754,15.9541,15.7075,15.7341,15.7485,15.7485,15.9801,16.092,16.092,16.0809,15.9457,12.4011,12.5815,12.7763,12.9741,13.1952,13.4047,13.5676,13.7014,13.7797,13.7797,13.8088,13.832,13.832,13.832,13.8437,13.8786,13.96,14.024,14.024,14.1403,14.2567,14.3497,14.3904,14.4519,14.5508,14.5566,14.5566,14.5566,14.5566,14.5566,14.5566,14.5566,14.5566,14.5566,14.5566,14.5566,14.5566,14.5566,14.6568,14.8469,14.8469,14.9499,15.1515,15.4116,15.5252,15.5492,15.8751,16.0136,16.0108,15.9428,15.9175,15.9175,15.9175,15.9175,15.9175,15.9175,15.9569,16.0136,16.0136,16.0616,16.1112,16.1112,16.1112,16.1112,16.1112,16.1112,16.1112,16.1112,16.1112,16.1499,16.2915,16.4074,16.5233,16.6678,16.7838,16.8031,16.5877,16.3982,16.2464,16.137,16.1112,16.1112,16.1112,16.1112,16.1112,16.1112,16.1112,16.1112,16.1112,16.1112,16.0892,16.0219,15.8403,15.6959,15.6346,15.5104,15.4387,15.4387,15.4985,15.5371,15.5371,15.5371,15.5044,15.4325,15.8175,16.0136,16.0136,15.8892,15.8232,15.8175,15.6225,15.602,12.439,12.6716,12.8607,12.9886,13.2213,13.4307,13.5005,13.6575,13.7797,13.7797,13.7797,13.7797,13.7797,13.7797,13.7797,13.7797,13.8437,13.8902,13.8902,14.0007,14.1112,14.1901,14.2948,14.3904,14.4694,14.5276,14.5566,14.5566,14.5566,14.5566,14.5566,14.5566,14.6131,14.7263,14.7296,14.7296,14.7296,14.7296,14.7459,14.7784,14.7784,14.9116,15.1763,15.4357,15.62,15.7312,15.7566,15.771,15.771,15.771,15.8403,15.9577,16.0699,16.1112,16.1112,16.1112,16.1112,16.1112,16.1112,16.1112,16.1112,16.1112,16.1112,16.1112,16.1112,16.1112,16.1112,16.1112,16.1112,16.1627,16.3688,16.4819,16.5942,16.7966,16.8639,16.7966,16.5105,16.3853,16.2851,16.1434,16.1112,16.1112,16.1112,16.1112,16.1112,16.1112,16.1112,16.1112,16.1112,16.1112,16.1112,16.1112,15.9857,15.8977,15.8977,15.7595,15.6814,15.6814,15.6814,15.6814,15.6814,15.6814,15.6814,15.6814,15.9625,16.1112,16.1112,15.9689,15.8977,15.8949,15.7451,15.7537,12.5379,12.7298,12.8607,12.9886,13.2038,13.39,13.4074,13.5936,13.7622,13.7797,13.7797,13.7797,13.7797,13.7797,13.7797,13.7797,13.7797,13.7797,13.7797,13.8786,13.9574,13.9748,14.1785,14.3265,14.3614,14.4694,14.5392,14.5566,14.5566,14.5566,14.5566,14.5566,14.6798,14.9431,14.9495,14.9626,15.0007,15.0007,14.8887,14.6666,14.6969,14.8534,15.1079,15.3055,15.5312,15.7658,15.54,15.4385,15.4385,15.4385,15.5726,15.8003,16.0247,16.1112,16.1112,16.1112,16.1112,16.1112,16.1112,16.1112,16.1112,16.1112,16.1112,16.1112,16.1112,16.1112,16.1112,16.1112,16.1112,16.1756,16.4433,16.5141,16.5813,16.8482,16.8031,16.6292,16.3817,16.3108,16.2658,16.137,16.1112,16.1112,16.1112,16.1112,16.1112,16.1112,16.1112,16.1112,16.1112,16.1112,16.1112,16.1112,16.1112,16.1112,16.1112,16.1112,16.1112,16.1112,16.1112,16.1112,16.1112,16.1112,16.1112,16.1112,16.1112,16.1112,16.1112,16.1112,16.1112,16.1112,16.1112,16.1112,12.5583,12.7298,12.8607,12.9886,13.137,13.2825,13.39,13.5296,13.6665,13.7622,13.7797,13.7797,13.7797,13.7797,13.7797,13.7797,13.7797,13.7797,13.7797,13.803,13.8553,13.9632,14.0156,14.1261,14.3439,14.3846,14.4461,14.5508,14.5566,14.5566,14.5566,14.5566,14.6798,14.9431,14.9495,15.0543,15.2657,15.2657,15.2443,15.2012,15.4236,15.661,15.909,15.7398,15.8003,16.0413,16.0024,15.9829,15.9829,15.9829,16.008,16.0533,16.0947,16.1112,16.1112,16.1112,16.1112,16.1112,16.1112,16.1112,16.1112,16.1112,16.1112,16.1112,16.1112,16.1112,16.1112,16.1112,16.1112,16.1563,16.3237,16.3688,16.4074,16.572,16.5105,16.3881,16.3366,16.2336,16.1434,16.1177,16.1112,16.1112,16.1112,16.1112,16.1112,16.1112,16.1112,16.1112,16.1112,16.1112,16.1112,16.1112,16.1112,16.1112,16.1112,16.1112,16.1112,16.1112,16.1112,16.1112,16.1112,16.1112,16.1112,16.1112,16.1112,16.1112,16.1112,16.1112,16.1112,16.1112,16.1112,16.1112,12.5495,12.7298,12.8607,12.9886,13.1196,13.2301,13.3,13.4629,13.6025,13.5936,13.6459,13.7099,13.7681,13.7797,13.7797,13.7797,13.7797,13.7797,13.7797,13.7797,13.803,13.8669,13.9341,14.0272,14.1494,14.2857,14.3904,14.4519,14.5217,14.5566,14.5566,14.6896,14.8823,15.1422,15.281,15.4146,15.5371,15.54,15.4716,15.3359,15.4656,15.5873,15.7162,15.8602,15.9203,15.9119,15.9119,15.9119,15.9119,15.9119,15.994,16.1112,16.1112,16.1112,16.1112,16.1112,16.1112,16.1112,16.1112,16.1112,16.1112,16.1112,16.1112,16.1112,16.1112,16.1112,16.1112,16.1112,16.1112,16.1499,16.2915,16.3302,16.3688,16.5076,16.3752,16.2207,16.2207,16.1627,16.1112,16.1112,16.1112,16.1112,16.1112,16.1112,16.1112,16.1112,16.1112,16.1112,16.1112,16.1112,16.1112,16.1112,16.1112,16.1112,16.1112,16.1112,16.1112,16.1112,16.1112,16.1112,16.1112,16.1112,16.1112,16.1112,16.1112,16.1112,16.1112,16.1112,16.1112,16.1112,16.1112,16.1112,12.4681,12.6716,12.817,12.9479,13.0789,13.172,13.172,13.3349,13.4629,13.3842,13.4978,13.6432,13.7622,13.7797,13.7797,13.7797,13.7797,13.7797,13.7797,13.7797,13.7797,13.7797,13.8728,13.9458,13.9748,14.161,14.2916,14.3206,14.4461,14.5159,14.5159,14.7899,15.064,15.3268,15.5873,15.7543,15.8089,15.8089,15.7046,15.5074,15.5074,15.5074,15.5193,15.9288,16.0024,15.8089,15.8089,15.8089,15.8089,15.8089,15.9288,16.1112,16.1112,16.1112,16.1112,16.1112,16.1112,16.1112,16.1112,16.1112,16.1112,16.1112,16.1112,16.1112,16.1112,16.1112,16.1112,16.1112,16.1112,16.137,16.2529,16.2851,16.3108,16.4267,16.2786,16.1112,16.1112,16.1112,16.1112,16.1112,16.1112,16.1112,16.1112,16.1112,16.1112,16.1112,16.1112,16.1112,16.1112,16.1112,16.1112,16.1112,16.1112,16.1112,16.1112,16.1112,16.1112,16.1112,16.1112,16.1112,16.1112,16.1112,16.1112,16.1112,16.1112,16.1112,16.1112,16.1112,16.1112,16.1112,16.1112,16.1112,12.2585,12.4709,12.6804,12.8112,12.9479,13.044,13.044,13.0614,13.108,13.2157,13.4368,13.6432,13.7622,13.7797,13.7797,13.7797,13.7797,13.7797,13.7797,13.7797,13.7797,13.7797,13.7913,13.8437,13.9632,13.9981,14.0589,14.1778,14.309,14.3788,14.3788,14.7425,15.064,15.3268,15.5873,15.8374,16.0782,16.0782,16.0671,16.0413,16.0413,16.0413,16.0413,16.092,16.1002,16.0782,16.0782,16.0782,16.0782,16.0782,16.092,16.1112,16.1112,16.1112,16.1112,16.1112,16.1112,16.1112,16.1112,16.1112,16.1112,16.1112,16.1112,16.1112,16.1112,16.1112,16.1112,16.1112,16.1112,16.1177,16.1305,16.1305,16.137,16.1499,16.1305,16.1112,16.1112,16.1112,16.1112,16.1112,16.1112,16.1112,16.1112,16.1112,16.1112,16.1112,16.1112,16.1112,16.1112,16.1112,16.1112,16.1112,16.1112,16.1112,16.1112,16.1112,16.1112,16.1112,16.1112,16.1112,16.1112,16.1112,16.1112,16.1112,16.1112,16.1112,16.1112,16.1112,16.1112,16.1112,16.1112,16.1112,12.2062,12.4477,12.6629,12.7937,12.8665,12.9072,12.9072,12.9072,12.9654,13.175,13.364,13.547,13.7448,13.7797,13.7797,13.7797,13.7797,13.7797,13.7797,13.7797,13.7797,13.7797,13.7797,13.803,13.8553,13.9283,13.9981,14.0473,14.3116,14.4072,14.2574,14.7584,15.1069,15.2191,15.5498,15.846,16.1149,16.1112,16.1112,16.1112,16.1112,16.1112,16.1112,16.1112,16.1112,16.1112,16.1112,16.1112,16.1112,16.1112,16.1112,16.1112,16.1112,16.1112,16.1112,16.1112,16.1112,16.1112,16.1112,16.1112,16.1112,16.1112,16.1112,16.1112,16.1112,16.1112,16.1112,16.1112,16.1112,16.1112,16.1112,16.1112,16.1112,16.1112,16.1112,16.1112,16.1112,16.1112,16.1112,16.1112,16.1112,16.1112,16.1112,16.1112,16.1112,16.1112,16.1112,16.1112,16.1112,16.1112,16.1112,16.1112,16.1112,16.1112,16.1112,16.1112,16.1112,16.1112,16.1112,16.1112,16.1112,16.1112,16.1112,16.1112,16.1112,16.1112,16.1112,16.1112,16.1112,16.1112,16.1112,16.1112,12.0316,12.3023,12.5495,12.6396,12.7443,12.8286,12.8286,12.7996,12.8374,13.0556,13.2709,13.4772,13.6924,13.7564,13.7797,13.7797,13.7797,13.7797,13.7797,13.7797,13.7797,13.7797,13.7797,13.7797,13.7797,13.9338,14.0278,14.0278,14.3801,14.5166,14.3449,14.8693,15.2002,15.2524,15.5914,15.8842,16.1112,16.1112,16.1112,16.1112,16.1112,16.1112,16.1112,16.1112,16.1112,16.1112,16.1112,16.1112,16.1112,16.1112,16.1112,16.1112,16.1112,16.1112,16.1112,16.1112,16.1112,16.1112,16.1112,16.1112,16.1112,16.1112,16.1112,16.1112,16.1112,16.1112,16.1112,16.1112,16.1112,16.1112,16.1112,16.1112,16.1112,16.1112,16.1112,16.1112,16.1112,16.1112,16.1112,16.1112,16.1112,16.1112,16.1112,16.1112,16.1112,16.1112,16.1112,16.1112,16.1112,16.1112,16.1112,16.1112,16.1112,16.1112,16.1112,16.1112,16.1112,16.1112,16.1112,16.1112,16.1112,16.1112,16.1112,16.1112,16.1112,16.1112,16.1112,16.1112,16.1112,16.1112,16.1112,16.1112,11.6535,11.9734,12.2702,12.273,12.5552,12.8286,12.8286,12.7298,12.6745,12.8054,13.1457,13.454,13.585,13.7072,13.7797,13.7797,13.7797,13.7797,13.7797,13.7797,13.7797,13.7797,13.7797,13.7797,13.7797,14.0045,14.1508,14.1508,14.4986,14.7101,14.7072,15.0833,15.3582,15.5057,15.7665,15.9668,16.1112,16.1112,16.1112,16.1112,16.1112,16.1112,16.1112,16.1112,16.1112,16.1112,16.1112,16.1112,16.1112,16.1112,16.1112,16.1112,16.1112,16.1112,16.1112,16.1112,16.1112,16.1112,16.1112,16.1112,16.1112,16.1112,16.1112,16.1112,16.1112,16.1112,16.1112,16.1112,16.1112,16.1112,16.1112,16.1112,16.1112,16.1112,16.1112,16.1112,16.1112,16.1112,16.1112,16.1112,16.1112,16.1112,16.1112,16.1112,16.1112,16.1112,16.1112,16.1112,16.1112,16.1112,16.1112,16.1112,16.1112,16.1112,16.1112,16.1112,16.1112,16.1112,16.1112,16.1112,16.1112,16.1112,16.1112,16.1112,16.1112,16.1112,16.1112,16.1112,16.1112,16.1112,16.1112,16.1112,11.517,11.8311,12.1685,12.3458,12.5437,12.6716,12.5873,12.7385,12.8607,12.724,13.0061,13.3465,13.5676,13.6374,13.6898,13.7681,13.7797,13.7797,13.7797,13.7797,13.7797,13.7797,13.7797,13.8461,14.0199,14.1054,14.22,14.3885,14.6739,14.761,14.5863,14.9427,15.1814,15.2311,15.3984,15.6421,15.9631,15.9696,16.0146,16.1112,16.0146,16.0211,16.1112,16.1112,16.1112,16.1112,16.1112,16.1112,16.1112,16.1112,16.1112,16.1112,16.1112,16.1112,16.1112,16.1112,16.1112,16.1112,16.1112,16.1112,16.1112,16.1112,16.1112,16.1112,16.1112,16.1112,16.1112,16.1112,16.1112,16.1112,16.1112,16.1112,16.1112,16.1112,16.1112,16.1112,16.1112,16.1112,16.1112,16.1112,16.1112,16.1112,16.1112,16.1112,16.1112,16.1112,16.1112,16.1112,16.1112,16.1112,16.1112,16.1112,16.1112,16.1112,16.1112,16.1112,16.1112,16.1112,16.1112,16.1112,16.1112,16.1112,16.1112,16.1112,16.1112,16.1112,16.1112,16.1112,16.1112,16.1112,16.1112,16.1112,11.4849,11.756,12.0347,12.1917,12.3662,12.5088,12.5756,12.7385,12.8286,12.6687,12.8665,13.137,13.3465,13.5094,13.649,13.7622,13.7797,13.7797,13.7797,13.7797,13.7797,13.7797,13.7797,13.8457,13.9984,14.181,14.3533,14.5076,14.8354,14.9594,14.8078,15.0224,15.1811,15.2401,15.3235,15.5092,15.815,15.815,15.8628,15.9502,15.8628,15.8665,15.9567,16.0082,16.0339,16.0339,16.0919,16.1112,16.1112,16.1112,16.1112,16.1112,16.1112,16.1112,16.1112,16.1112,16.1112,16.1112,16.1112,16.1112,16.1112,16.1112,16.1112,16.1112,16.1112,16.1112,16.1112,16.1112,16.1112,16.1112,16.1112,16.1112,16.1112,16.1112,16.1112,16.1112,16.1112,16.1112,16.1112,16.1112,16.1112,16.1112,16.1112,16.1112,16.1112,16.1112,16.1112,16.1112,16.1112,16.1112,16.1112,16.1112,16.1112,16.1112,16.1112,16.1112,16.1112,16.1112,16.1112,16.1112,16.1112,16.1112,16.1112,16.1112,16.1112,16.1112,16.1112,16.1112,16.1112,16.1112,16.1112,16.1112,11.5394,11.7289,11.8792,11.9168,12.1002,12.3653,12.7152,12.7123,12.628,12.6106,12.7181,12.8548,12.9712,13.3,13.5967,13.7332,13.7681,13.786,13.8049,13.808,13.8143,13.8332,13.8363,13.8426,13.8586,14.2796,14.5536,14.5707,15.0009,15.256,15.256,15.256,15.3204,15.4556,15.4556,15.529,15.6696,15.6696,15.6696,15.6696,15.6696,15.676,15.6889,15.8241,15.8858,15.895,16.0275,16.0855,16.0855,16.0855,16.0919,16.0983,16.0983,16.1048,16.1112,16.1112,16.1112,16.1112,16.1112,16.1112,16.1112,16.1112,16.1112,16.1112,16.1112,16.1112,16.1112,16.1112,16.1112,16.1112,16.1112,16.1112,16.1112,16.1112,16.1112,16.1112,16.0983,16.1048,16.1112,16.0983,16.1048,16.1112,16.1112,16.1112,16.1112,16.1112,16.1112,16.1112,16.1112,16.1112,16.1112,16.1112,16.1112,16.1112,16.1112,16.1112,16.1112,16.1112,16.1112,16.1112,16.1112,16.1112,16.1112,16.1112,16.1112,16.1112,16.1112,16.1112,16.1112,16.1112,16.1112,16.1112,11.5941,11.7359,11.8991,12.2961,12.376,12.3787,12.4651,12.5634,12.5844,12.3895,12.5291,12.6862,12.724,12.881,13.1166,13.4481,13.6575,13.8461,14.0354,14.0629,14.1388,14.3209,14.3445,14.4206,14.6107,14.7354,14.883,15.0744,15.1921,15.256,15.256,15.256,15.2753,15.3075,15.3075,15.3783,15.5226,15.5226,15.5226,15.5226,15.5226,15.5805,15.6889,15.7211,15.7404,15.7404,15.7726,15.7855,15.7855,15.7855,15.8563,15.953,15.953,16.0146,16.1112,16.1112,16.1112,16.1112,16.1112,16.1112,16.1112,16.1112,16.1112,16.1112,16.1112,16.1112,16.1112,16.1112,16.1112,16.1112,16.1112,16.1112,16.1112,16.1112,16.1112,16.0855,15.976,16.0339,16.079,15.9696,16.0404,16.1112,16.1112,16.1112,16.1112,16.1112,16.1112,16.1112,16.1112,16.1112,16.1112,16.1112,16.1112,16.1112,16.1112,16.1112,16.1112,16.1112,16.1112,16.1112,16.1112,16.1112,16.1112,16.1112,16.1112,16.1112,16.1112,16.1112,16.1112,16.1112,16.1112,16.1112,11.515,11.739,12.047,12.5422,12.5539,12.4492,12.4595,12.5378,12.5425,12.3101,12.4945,12.6941,12.6941,12.9003,13.1767,13.4976,13.7207,13.9066,14.0401,14.0181,14.0482,14.2421,14.2166,14.3209,14.6876,14.7213,14.8216,15.0717,15.1921,15.256,15.256,15.256,15.256,15.256,15.256,15.2946,15.3719,15.3719,15.3719,15.3719,15.3719,15.4131,15.493,15.5548,15.5896,15.5896,15.654,15.6889,15.6889,15.6889,15.734,15.8048,15.8048,15.8499,15.918,15.918,15.918,15.9245,15.9953,16.0597,16.1112,16.1112,16.1112,16.1112,16.1112,16.1112,16.1112,16.1112,16.1112,16.1112,16.1112,16.1112,16.0983,16.0275,16.0146,15.976,15.837,15.8628,15.9116,15.8987,15.9631,16.0339,16.1048,16.1112,16.1112,16.1112,16.1112,16.1112,16.1112,16.1112,16.1112,16.1112,16.1112,16.1112,16.1112,16.1112,16.1112,16.1112,15.9889,15.918,15.918,15.918,15.918,15.918,15.918,15.918,15.918,15.918,15.918,15.918,15.918,15.9502,11.4817,11.7919,12.2097,12.6289,12.5815,12.465,12.5743,12.546,12.4656,12.3419,12.5183,12.6995,12.7146,13.0197,13.3521,13.6126,13.7921,13.9199,13.9737,13.883,13.8627,14.0011,13.9765,14.1176,14.5363,14.6107,14.7213,14.9295,15.1382,15.256,15.256,15.256,15.256,15.256,15.256,15.256,15.256,15.256,15.256,15.256,15.256,15.256,15.2625,15.3848,15.4427,15.4491,15.5703,15.6218,15.6218,15.6218,15.6374,15.654,15.654,15.6669,15.6889,15.6889,15.6889,15.7018,15.8241,15.9438,16.0468,16.0468,16.0661,16.079,16.079,16.0983,16.1048,16.0597,16.0468,16.0468,16.0468,16.0468,16.0146,15.8987,15.8692,15.8279,15.6862,15.6696,15.7147,15.815,15.8536,15.9079,16.0384,16.0605,16.0632,16.0714,16.0741,16.0687,16.0605,16.0605,16.0578,16.0468,16.0661,16.079,16.079,16.079,16.0726,16.0468,15.8241,15.6889,15.6889,15.6889,15.6889,15.6889,15.6889,15.6889,15.6889,15.6889,15.6889,15.6889,15.6889,15.7533,11.8847,12.015,12.1665,12.4174,12.2735,12.1986,12.6619,12.4466,12.2212,12.4764,12.431,12.3701,12.4724,12.7022,12.9947,13.3641,13.6098,13.8373,14.0726,14.0057,14.013,14.2426,14.536,14.7521,14.8244,15.0224,15.1631,15.2037,15.2378,15.256,15.256,15.256,15.256,15.256,15.256,15.256,15.256,15.256,15.256,15.256,15.256,15.256,15.256,15.2844,15.2946,15.2946,15.3166,15.323,15.323,15.323,15.3938,15.5097,15.5097,15.5805,15.6889,15.6889,15.6889,15.6889,15.7147,15.734,15.7533,15.7533,15.837,15.9309,15.9309,16.0146,16.0661,15.8241,15.7533,15.7533,15.7533,15.7533,15.7469,15.7211,15.7211,15.6825,15.5355,15.6025,15.654,15.5612,15.6347,15.7436,15.8082,15.8162,15.8321,15.8769,15.8847,15.869,15.8215,15.8162,15.7976,15.7587,15.8628,15.9309,15.9309,15.9309,15.8794,15.7597,15.7082,15.6889,15.6889,15.6889,15.6889,15.6889,15.6889,15.6889,15.6889,15.6889,15.6889,15.6889,15.6889,15.7018,11.8297,11.9206,12.0465,12.2103,12.2651,12.3402,12.5944,12.4897,12.3883,12.5444,12.5029,12.4853,12.661,12.9029,13.1887,13.5356,13.7758,13.9833,14.1798,14.1239,14.1264,14.3059,14.4249,14.6447,15.053,15.0744,15.1144,15.2482,15.256,15.256,15.256,15.256,15.256,15.256,15.256,15.256,15.256,15.256,15.256,15.256,15.256,15.256,15.256,15.256,15.256,15.256,15.256,15.256,15.256,15.256,15.2946,15.359,15.359,15.4003,15.4518,15.4518,15.4518,15.4673,15.5419,15.5677,15.5832,15.6631,15.734,15.7855,15.7855,15.8306,15.8563,15.7211,15.6889,15.6889,15.6889,15.6889,15.6669,15.587,15.5677,15.529,15.3848,15.4067,15.4582,15.4684,15.529,15.604,15.7015,15.7197,15.7277,15.7541,15.7568,15.7489,15.7224,15.7462,15.7436,15.6942,15.7736,15.8177,15.7882,15.7744,15.7376,15.6663,15.5977,15.5523,15.5523,15.5523,15.5303,15.499,15.4676,15.4518,15.4518,15.4518,15.4518,15.4518,15.4518,15.4968,11.7592,0.0,11.8237,12.0542,12.215,12.3602,0.0,12.5303,12.5447,12.5719,12.6147,12.689,12.8094,13.1143,13.4368,13.7101,13.949,14.1349,14.2104,14.1965,14.2068,14.2772,14.2752,14.4957,15.0659,15.0329,15.0583,15.2456,15.256,15.256,15.256,15.256,15.256,15.256,15.2264,15.2238,15.256,15.256,15.256,15.256,15.256,15.256,15.256,15.256,15.256,15.256,15.256,15.256,15.256,15.256,15.256,15.256,15.256,15.256,15.256,15.256,15.256,15.2753,15.3848,15.4234,15.4427,15.551,15.6089,15.6347,15.6347,15.6089,15.5832,15.5832,15.5832,15.5832,15.5832,15.5832,15.5574,15.4491,15.4234,15.3912,15.2818,15.256,15.2946,15.4041,15.4339,15.4819,15.6073,15.6361,15.6492,15.6597,15.6623,15.6571,15.644,15.6806,15.6859,15.6282,15.6947,15.722,15.6798,15.6301,15.5985,15.5985,15.4969,15.4318,15.4318,15.4318,15.4116,15.3618,15.3182,15.2975,15.2975,15.2975,15.2975,15.2975,15.2975,15.3478,0.0,11.6612,11.463,11.9794,11.9239,11.8767,12.399,12.4602,0.0,12.5539,12.739,12.825,12.6333,13.0627,13.4915,13.6499,13.9684,14.17,14.1003,14.1968,14.2479,14.1568,14.4364,14.6546,14.7123,15.0298,15.2404,15.256,15.256,15.256,15.256,15.256,15.256,15.256,15.1299,15.1234,15.256,15.256,15.256,15.256,15.256,15.256,15.256,15.256,15.256,15.256,15.256,15.256,15.256,15.256,15.256,15.256,15.256,15.256,15.256,15.256,15.256,15.2651,15.2689,15.2753,15.2779,15.2844,15.3783,15.4878,15.4878,15.3912,15.2908,15.2908,15.2908,15.2908,15.2908,15.2908,15.2882,15.2753,15.2753,15.2689,15.2625,15.256,15.2625,15.2715,15.3104,15.371,15.4376,15.4947,15.5383,15.588,15.5954,15.5781,15.5349,15.5258,15.5058,15.4593,15.5713,15.6559,15.6533,15.5309,15.4514,15.4514,15.4383,15.4318,15.4318,15.4318,15.4293,15.4268,15.4242,15.4217,15.4217,15.4217,15.4217,15.4217,15.4217,15.3912,11.8003,11.5861,11.3813,11.7513,11.8248,11.9146,12.3474,12.3798,12.4034,12.7198,12.739,12.7599,12.9497,13.2414,13.5143,13.7045,13.9295,14.1246,14.2752,14.2086,14.1909,14.3209,14.4545,14.6399,14.8805,15.0395,15.162,15.2496,15.256,15.256,15.256,15.1749,15.1685,15.2586,15.2045,15.2071,15.256,15.256,15.256,15.256,15.256,15.256,15.256,15.256,15.256,15.256,15.256,15.256,0.0,15.256,15.256,15.256,15.256,15.2794,15.3053,15.269,15.2794,15.3027,15.269,15.256,15.256,15.256,15.2946,15.3397,15.3397,15.3011,15.256,15.256,15.256,15.2664,15.3001,15.3079,15.3182,15.3606,15.3683,15.3683,15.3683,15.3683,15.3683,15.3683,15.3861,15.4065,15.4293,15.4495,15.4696,15.4897,15.4922,15.4847,15.4646,15.4922,15.4922,15.4394,15.5143,15.5731,15.6057,15.5648,15.5321,15.5321,15.5321,15.5321,15.5321,15.5321,15.5171,15.4822,15.4822,15.4671,15.4318,15.4318,15.4318,15.4318,15.4318,15.4217,11.6487,11.5187,11.3574,11.6186,11.7788,11.9533,12.2328,12.333,12.4489,12.7416,12.7363,12.7964,13.1684,13.3188,13.4692,13.7408,13.9025,14.0764,14.3235,14.286,14.2911,14.4331,14.4901,14.6224,14.8918,14.956,15.0397,15.1814,15.1916,15.2136,15.2586,15.1659,15.162,15.256,15.211,15.211,15.256,15.256,15.256,15.256,15.256,15.256,15.256,15.256,15.256,15.256,15.256,15.256,15.256,15.256,15.256,15.256,15.256,15.2794,15.3079,15.2716,15.282,15.3104,15.2898,15.2846,15.2872,15.3053,15.2975,15.2846,15.2846,15.2975,15.3104,15.3104,15.3104,15.3207,15.3567,15.3669,15.3771,15.4242,15.4318,15.4318,15.4318,15.4318,15.4318,15.4318,15.447,15.4571,15.4571,15.4722,15.4822,15.4822,15.4822,15.4822,15.4822,15.5147,15.5246,15.4872,15.5171,15.5519,15.5889,15.5913,15.5913,15.5913,15.5913,15.5913,15.5913,15.5913,15.5741,15.5395,15.537,15.5196,15.4822,15.4822,15.4822,15.4822,15.4822,15.4747,11.5273,11.4428,11.3548,11.6186,11.7846,11.9098,12.0433,12.3353,12.5805,12.5772,12.7573,12.9787,13.1954,13.2369,13.364,13.7239,13.9002,14.0418,14.1899,14.4499,14.5811,14.4419,14.545,14.6352,14.6352,14.7525,14.8916,15.0333,15.0462,15.1041,15.2496,15.256,15.256,15.256,15.117,15.117,15.256,15.256,15.256,15.256,15.256,15.256,15.256,15.256,15.256,15.256,15.256,15.256,15.256,15.256,15.256,15.2586,15.2586,15.2586,15.2586,15.2586,15.2586,15.2664,15.3182,15.3387,15.349,15.4141,15.3873,15.3387,15.3413,15.3822,15.4318,15.4318,15.4318,15.4318,15.4318,15.4318,15.4344,15.4344,15.4344,15.4344,15.4344,15.4344,15.4344,15.4344,15.4772,15.5147,15.5147,15.5568,15.5913,15.5913,15.5913,15.5913,15.5913,15.5913,15.5913,15.5913,15.5913,15.5913,15.5913,15.5913,15.5913,15.5913,15.5913,15.5913,15.5913,15.5913,15.5913,15.5913,15.5913,15.5913,15.5913,15.5913,15.5913,15.5913,15.5913,15.5642,11.5122,11.5077,11.4911,11.7555,11.8458,11.9506,12.2274,12.4374,12.5933,12.6489,12.9158,13.1611,13.2223,13.3676,13.5387,13.7515,13.7676,13.855,14.1641,14.2247,14.285,14.4054,14.4612,14.487,14.487,14.6133,14.7486,14.8852,14.8981,14.956,15.1041,15.014,14.956,14.956,15.014,15.0655,15.108,15.2071,15.256,15.256,15.256,15.256,15.256,15.256,15.256,15.256,15.256,15.256,15.256,15.256,15.2794,15.3156,15.3156,15.3413,15.3785,15.331,15.3156,15.313,15.2898,15.282,15.2898,15.3464,15.3541,15.3541,15.4329,15.4495,15.4318,15.4318,15.4318,15.4318,15.4318,15.4621,15.4997,15.537,15.5445,15.5445,15.5445,15.5445,15.5445,15.5445,15.5568,15.5692,15.5692,15.5815,15.5913,15.5913,15.5913,15.5913,15.5913,15.5913,15.5913,15.5913,15.5913,15.5913,15.5913,15.5913,15.5913,15.5913,15.5913,15.5913,15.5913,15.5913,15.5913,15.5913,15.5913,15.5913,15.5913,15.5913,15.5913,15.5913,15.5913,15.5839,11.5239,11.5785,11.6413,11.7653,11.8342,11.9521,12.2415,12.3445,12.4635,12.7634,12.8001,12.8931,13.2974,13.3365,13.3946,13.6514,13.7014,13.7968,14.0829,14.1271,14.1994,14.4014,14.4226,14.4226,14.4226,14.4999,14.5836,14.6624,14.7203,14.7912,14.8813,14.7976,14.7783,14.8273,14.9174,14.9727,14.993,15.0743,15.1323,15.1527,15.2069,15.2328,15.2393,15.2975,15.3324,15.3324,15.3324,15.3324,15.3324,15.3324,15.3439,15.372,15.349,15.3745,15.4242,15.3618,15.3541,15.372,15.3618,15.3592,15.3669,15.4203,15.4253,15.4228,15.5171,15.5221,15.4972,15.4972,15.4972,15.4972,15.4972,15.5196,15.5519,15.5839,15.5913,15.5913,15.5913,15.5913,15.5913,15.5913,15.5913,15.5913,15.5913,15.5913,15.5913,15.5913,15.5913,15.5913,15.5913,15.5913,15.5913,15.5913,15.4861,15.4228,15.4228,15.4228,15.4228,15.4228,15.4228,15.4228,15.4228,15.4228,15.4228,15.4228,15.4228,15.4228,15.4228,15.4228,15.4466,15.5058,15.5058,15.5387,11.5525,11.6505,11.7787,11.7034,11.7729,11.9111,12.1224,12.1393,12.2762,12.859,12.5596,12.468,13.3747,13.2262,13.0967,13.5032,13.6696,13.8104,13.9686,14.1046,14.2348,14.4008,14.4226,14.4226,14.4226,14.4226,14.4226,14.4226,14.545,14.6158,14.6158,14.6158,14.6713,14.7912,14.813,14.8446,14.8897,14.9051,14.9414,14.9908,15.117,15.1845,15.182,15.3277,15.3928,15.3928,15.3928,15.3928,15.3928,15.3928,15.3953,15.3953,15.3356,15.3483,15.3953,15.3356,15.3588,15.4199,15.4676,15.4916,15.5147,15.5667,15.5347,15.4903,15.5371,15.5519,15.5519,15.565,15.5716,15.5716,15.5847,15.5913,15.5913,15.5913,15.5913,15.5913,15.5913,15.5913,15.5913,15.5913,15.5913,15.5847,15.5716,15.5716,15.5716,15.5716,15.5716,15.5716,15.5716,15.5716,15.565,15.5519,15.3175,15.1597,15.1597,15.1597,15.1597,15.1597,15.1597,15.1597,15.1597,15.1597,15.1597,15.1597,15.1597,15.1597,15.1597,15.1597,15.2296,15.3587,15.3587,15.4269,11.6533,11.7192,11.7787,11.7034,11.7058,11.7794,11.9855,12.239,12.4621,12.5996,12.8663,13.125,13.2808,13.3724,13.4545,13.5561,13.5355,13.6184,13.9495,13.9585,14.0588,14.3836,14.4226,14.4226,14.4226,14.4226,14.4226,14.4226,14.4483,14.4677,14.4677,14.4677,14.4806,14.5128,14.6505,14.731,14.7587,14.9019,14.9785,14.9884,15.0169,15.0364,15.0364,15.0689,15.0819,15.0819,15.0819,15.0819,15.0819,15.0819,15.1156,15.1614,15.1426,15.1451,15.1614,15.1426,15.1833,15.2496,15.2621,15.3518,15.4596,15.5122,15.3986,15.2374,15.247,15.2518,15.2757,15.3875,15.4245,15.4442,15.5584,15.5913,15.5913,15.5913,15.5913,15.5913,15.5913,15.5913,15.5913,15.5913,15.5913,15.5519,15.4376,15.4245,15.4245,15.4245,15.4245,15.4245,15.4245,15.4245,15.3785,15.2649,15.1992,15.1597,15.1597,15.1597,15.1597,15.1597,15.1597,15.1597,15.1597,15.1597,15.1597,15.1597,15.1597,15.1597,15.1597,15.1597,15.1794,15.2123,15.2123,15.2255,11.6556,11.6697,11.6834,11.6099,11.636,11.7236,11.8655,12.0165,12.1755,12.3841,12.5707,12.7917,13.0926,13.1473,13.2062,13.3787,13.3694,13.4301,13.6994,13.787,13.9232,14.189,14.2784,14.3235,14.3235,14.3839,14.4226,14.4226,14.4226,14.4324,14.4568,14.4593,14.4715,14.4982,14.567,14.6156,14.6512,14.7428,14.7972,14.8189,14.9237,14.9685,14.9685,15.0428,15.069,15.069,15.069,15.069,15.069,15.069,15.0925,15.1166,15.0925,15.0973,15.1166,15.0876,15.1172,15.1826,15.1826,15.2349,15.3053,15.3322,15.263,15.1597,15.1597,15.1597,15.1794,15.2494,15.2757,15.2888,15.3636,15.3809,15.3809,15.3809,15.4401,15.4861,15.4861,15.5387,15.5913,15.5913,15.5913,15.5453,15.3982,15.3785,15.3522,15.2823,15.2757,15.2757,15.2757,15.2141,15.1113,14.9624,14.9492,14.9492,14.9492,14.9492,14.9492,14.9492,14.9492,14.9492,14.9492,14.9492,14.9492,14.9492,14.9492,14.9492,14.9492,14.9492,14.9887,15.061,15.061,15.0939,11.6104,11.6067,11.6308,11.5356,11.5809,11.6873,11.8233,11.7768,11.8183,12.2382,12.2231,12.3244,12.9323,12.9024,12.8978,13.2413,13.2651,13.2995,13.4813,13.6655,13.8317,13.9798,14.1021,14.1706,14.1706,14.3042,14.3904,14.3904,14.3904,14.4124,14.4634,14.4893,14.5223,14.5775,14.5344,14.5368,14.5894,14.5989,14.6161,14.6514,14.8272,14.9074,14.914,15.0282,15.0808,15.0808,15.0808,15.0808,15.0808,15.0808,15.0808,15.0826,15.0396,15.0492,15.076,15.0217,15.0534,15.1268,15.1268,15.14,15.1531,15.1005,15.0808,15.0808,15.0808,15.0808,15.0873,15.1202,15.1268,15.1334,15.1531,15.1597,15.1597,15.1597,15.2559,15.339,15.339,15.4335,15.5124,15.5124,15.5124,15.4664,15.3259,15.2996,15.2625,15.14,15.1268,15.1268,15.1268,15.0018,14.8614,14.7299,14.7167,14.7167,14.7167,14.7167,14.7167,14.7167,14.7167,14.7167,14.7167,14.7167,14.7167,14.7167,14.7167,14.7167,14.7167,14.7167,14.7825,14.9074,14.9074,14.9732,11.5333,11.6733,11.8137,11.6323,11.5488,11.6093,11.9818,11.9201,11.886,12.2518,12.5364,12.7833,13.0015,13.1105,13.2423,13.4851,13.3628,13.3544,13.6908,13.7637,13.8317,13.9798,14.012,14.0249,14.0249,14.1537,14.2374,14.2374,14.2374,14.2592,14.3145,14.4334,14.5223,14.5775,14.5727,14.5894,14.6302,14.6748,14.7005,14.7075,14.7341,14.743,14.743,14.7628,14.7782,14.7782,14.7782,14.7782,14.7782,14.7782,14.7782,14.7759,14.7689,14.7713,14.7759,14.7624,14.8567,14.9798,14.9798,15.0587,15.1202,14.8548,14.7782,14.7782,14.7782,14.7782,14.8022,14.9403,14.9798,15.0061,15.1268,15.1597,15.1597,15.1597,15.1728,15.1926,15.1926,15.2057,15.2189,15.2189,15.2189,15.1728,15.0324,15.0061,14.9995,14.9798,14.9798,14.9798,14.9798,14.8417,14.7365,14.7167,14.7167,14.7167,14.7167,14.7167,14.7167,14.7167,14.7167,14.7167,14.7167,14.7167,14.7167,14.7167,14.7167,14.7167,14.7167,14.7167,14.7233,14.743,14.743,14.7562,11.5029,11.5985,11.6357,11.5166,11.513,11.5939,11.7871,11.723,11.7338,12.1233,12.3187,12.5339,12.8976,12.9828,13.0917,13.3802,13.3206,13.2913,13.4526,13.5835,13.6836,13.748,13.8253,13.8768,13.8768,14.0056,14.0869,14.0869,14.0869,14.1228,14.1968,14.3444,14.4603,14.5313,14.6145,14.6491,14.6373,14.6608,14.6725,14.6725,14.7028,14.7167,14.7167,14.7167,14.7167,14.7167,14.7167,14.7167,14.7167,14.7167,14.7167,14.7167,14.7167,14.7167,14.7167,14.7167,14.7562,14.8154,14.8154,14.8548,14.89,14.7562,14.7167,14.7167,14.7167,14.7167,14.7299,14.7956,14.8154,14.8285,14.8966,14.9098,14.9098,14.9098,14.9755,15.0413,15.0413,15.1071,15.1597,15.1597,15.1597,15.1202,14.9732,14.9469,14.9206,14.8285,14.8154,14.8154,14.8154,14.7562,14.7167,14.7167,14.7167,14.7167,14.7167,14.7167,14.7167,14.7167,14.7167,14.7167,14.7167,14.7167,14.7167,14.7167,14.7167,14.7167,14.7167,14.7167,14.7167,14.7167,14.7167,14.7167,11.3834,11.4581,11.4586,11.4894,11.5504,11.641,11.7552,11.682,11.6962,12.0573,12.1888,12.3667,12.7774,12.8282,12.9284,13.2865,13.2555,13.2185,13.3302,13.471,13.5792,13.6022,13.6741,13.738,13.7636,13.8716,13.9378,13.925,13.9573,14.0102,14.0919,14.2399,14.3641,14.4426,14.5852,14.639,14.6037,14.6388,14.6585,14.6585,14.6982,14.7167,14.7167,14.7167,14.7167,14.7167,14.7167,14.7167,14.7167,14.7167,14.7167,14.7167,14.7167,14.7167,14.7167,14.7167,14.7167,14.7167,14.7167,14.7167,14.7167,14.7167,14.7167,14.7167,14.7167,14.7167,14.7167,14.7167,14.7167,14.7167,14.7167,14.7167,14.7167,14.7167,14.8022,14.8877,14.8877,14.9732,15.0479,15.0479,15.0479,15.015,14.9074,14.8877,14.8482,14.7299,14.7167,14.7167,14.7167,14.7167,14.7167,14.7167,14.7167,14.7167,14.7167,14.7167,14.7167,14.7167,14.7167,14.7167,14.7167,14.7167,14.7167,14.7167,14.7167,14.7167,14.7167,14.7167,14.7167,14.7167,14.7167,14.7167,11.0879,11.2682,11.4251,11.7057,11.7281,11.7816,12.1803,12.0641,11.9362,12.1576,12.4103,12.6112,12.6924,12.7628,12.9478,13.3582,13.2075,13.1725,13.5714,13.5931,13.6022,13.6868,13.6229,13.611,13.7021,13.7563,13.7724,13.7216,13.8431,13.9463,14.0006,14.1402,14.2415,14.2981,14.4405,14.5083,14.506,14.6464,14.7121,14.7121,14.7167,14.7167,14.7167,14.7167,14.7167,14.7167,14.7167,14.7167,14.7167,14.7167,14.7167,14.7167,14.7167,14.7167,14.7167,14.7167,14.7167,14.7167,14.7167,14.7167,14.7167,14.7167,14.7167,14.7167,14.7167,14.7167,14.7167,14.7167,14.7167,14.7167,14.7167,14.7167,14.7167,14.7167,14.7233,14.7233,14.7233,14.7299,14.7365,14.7365,14.7365,14.7365,14.7299,14.7233,14.7233,14.7167,14.7167,14.7167,14.7167,14.7167,14.7167,14.7167,14.7167,14.7167,14.7167,14.7167,14.7167,14.7167,14.7167,14.7167,14.7167,14.7167,14.7167,14.7167,14.7167,14.7167,14.7167,14.7167,14.7167,14.7167,14.7167,14.7167,11.0268,11.1914,11.2971,11.3665,11.4956,11.6471,11.8088,11.8017,11.8549,12.2008,12.3138,12.4321,12.7101,12.8249,12.9857,13.2811,13.2817,13.309,13.5192,13.5874,13.6411,13.6958,13.6548,13.6411,13.6981,13.7187,13.7385,13.7516,13.7726,13.8032,13.8525,13.9921,14.0954,14.1512,14.2893,14.3616,14.3616,14.5063,14.5763,14.5763,14.6707,14.7167,14.7167,14.7167,14.7167,14.7167,14.7167,14.7167,14.7167,14.7167,14.7167,14.7167,14.7167,14.7167,14.7167,14.7167,14.7167,14.7167,14.7167,14.7167,14.7167,14.7167,14.7167,14.7167,14.7167,14.7167,14.7167,14.7167,14.7167,14.7167,14.7167,14.7167,14.7167,14.7167,14.7167,14.7167,14.7167,14.7167,14.7167,14.7167,14.7167,14.7167,14.7167,14.7167,14.7167,14.7167,14.7167,14.7167,14.7167,14.7167,14.7167,14.7167,14.7167,14.7167,14.7167,14.7167,14.7167,14.7167,14.7167,14.7167,14.7167,14.7167,14.7167,14.7167,14.7167,14.7167,14.7167,14.7167,14.7167,14.7167,14.7167,14.7167,10.8637,11.0228,11.1222,11.1729,11.3546,11.53,11.5362,11.6163,11.7879,12.1112,12.191,12.3019,12.6075,12.7564,12.8966,13.1019,13.2056,13.3025,13.4252,13.4876,13.5654,13.6733,13.633,13.6391,13.7451,13.6993,13.7039,13.8026,13.7761,13.7717,13.8048,13.8988,13.9668,13.9978,14.1381,14.2126,14.2126,14.3551,14.4274,14.434,14.526,14.5984,14.6444,14.6904,14.7167,14.7167,14.7167,14.7167,14.7167,14.7167,14.7167,14.7167,14.7167,14.7167,14.7167,14.7167,14.6838,14.6444,14.6444,14.6773,14.7167,14.7167,14.7167,14.7167,14.7167,14.7167,14.7167,14.7167,14.7167,14.7167,14.7167,14.7167,14.7167,14.7167,14.7167,14.7167,14.7167,14.7167,14.7167,14.7167,14.7167,14.7167,14.7167,14.7167,14.7167,14.7167,14.7167,14.7167,14.7167,14.7167,14.7167,14.7167,14.7167,14.7167,14.7167,14.7167,14.7167,14.7167,14.7167,14.7167,14.7167,14.7167,14.7167,14.7167,14.7167,14.7167,14.7167,14.7167,14.7167,14.7167,14.7167,14.7167,10.5877,10.7501,10.9157,11.1643,11.3352,11.4402,11.4466,11.5855,11.7552,11.8951,12.0676,12.2366,12.3838,12.5249,12.6701,12.8089,12.9586,13.1233,13.3119,13.3035,13.3687,13.61,13.5451,13.5819,13.8247,13.676,13.6432,13.8356,13.8531,13.8531,13.8597,13.8597,13.8597,13.8597,13.9912,14.0657,14.0657,14.2126,14.2784,14.2784,14.285,14.3616,14.4974,14.6378,14.7036,14.7036,14.7036,14.7036,14.7036,14.7036,14.7036,14.7036,14.7036,14.7036,14.7036,14.7036,14.6115,14.4974,14.4974,14.5852,14.7036,14.7036,14.7036,14.7036,14.7102,14.7102,14.7102,14.7102,14.7167,14.7167,14.7167,14.7167,14.7167,14.7167,14.7167,14.7167,14.7167,14.7167,14.7167,14.7167,14.7167,14.7167,14.7167,14.7167,14.7167,14.7167,14.7167,14.7167,14.7167,14.7167,14.7167,14.7167,14.7167,14.7167,14.7167,14.7167,14.7167,14.7167,14.7167,14.7167,14.7167,14.7167,14.7167,14.7167,14.7102,14.7102,14.7102,14.7036,14.7036,14.7036,14.7102,14.7102,10.6065,10.5834,10.6107,11.0182,11.153,11.2188,11.3487,11.5002,11.6151,11.6186,11.7735,11.9341,12.0466,12.2055,12.3753,12.516,12.7461,12.9387,13.0284,13.2095,13.3728,13.4807,13.4336,13.4338,13.5398,13.5027,13.5334,13.6909,13.7062,13.7501,13.8531,13.8597,13.8597,13.8597,13.8991,13.9189,13.9189,14.0591,14.1315,14.1315,14.2389,14.3113,14.3507,14.3902,14.4034,14.4034,14.4034,14.4034,14.4034,14.4034,14.4034,14.4034,14.4034,14.4034,14.4034,14.4034,14.3836,14.3442,14.3442,14.3705,14.4034,14.4034,14.4034,14.4231,14.526,14.5566,14.5829,14.6838,14.7167,14.7167,14.7167,14.7167,14.7167,14.7167,14.7167,14.7167,14.7167,14.7167,14.7167,14.7167,14.7167,14.7167,14.7167,14.7167,14.7167,14.7167,14.7167,14.7167,14.7167,14.7167,14.7167,14.7167,14.7167,14.7167,14.7167,14.7167,14.7167,14.7167,14.7167,14.7167,14.7167,14.7167,14.7167,14.7167,14.6115,14.5566,14.5566,14.456,14.4034,14.4099,14.5129,14.5566,10.5105,10.4798,10.4906,10.7472,10.8591,10.9404,11.1115,11.2385,11.3528,11.4476,11.5632,11.6827,11.7877,11.9562,12.1233,12.2445,12.4764,12.6732,12.7581,12.97,13.1402,13.233,13.1136,13.0811,13.2264,13.2417,13.3292,13.5418,13.5549,13.5923,13.6756,13.7348,13.7698,13.7698,13.8268,13.8597,13.8597,13.9452,13.9846,13.9868,14.0723,14.1381,14.1995,14.1995,14.2324,14.285,14.285,14.285,14.285,14.285,14.285,14.285,14.285,14.285,14.2718,14.1534,14.1469,14.1995,14.1995,14.2389,14.285,14.285,14.285,14.3047,14.3879,14.4142,14.4274,14.5152,14.5786,14.6247,14.6247,14.6707,14.7167,14.7167,14.7167,14.7167,14.7167,14.7167,14.7167,14.7167,14.7167,14.7167,14.7167,14.7167,14.7167,14.7167,14.7167,14.7167,14.7167,14.7167,14.7167,14.7167,14.7167,14.7167,14.7167,14.7167,14.6904,14.6312,14.6247,14.5984,14.5415,14.5349,14.5349,14.5349,14.4537,14.4142,14.4142,14.331,14.285,14.2915,14.3748,14.3462,10.3613,10.4114,10.4945,10.4815,10.5588,10.6819,0.0,10.9144,11.0407,11.2905,11.3671,11.4257,11.5362,11.7082,11.876,11.9673,12.1562,12.3455,12.4816,12.6302,12.7657,12.8735,12.6762,12.6388,12.9129,12.9392,13.0641,13.3621,13.3818,13.395,13.4279,13.5549,13.6207,13.6207,13.7413,13.8202,13.8334,13.8334,13.8465,13.8597,13.8597,13.9254,14.0526,14.0526,14.1183,14.2389,14.2389,14.2389,14.2389,14.2389,14.2389,14.2389,14.2389,14.2389,14.2126,13.9517,13.9386,14.0526,14.0526,14.1315,14.2389,14.2389,14.2389,14.2389,14.2587,14.2652,14.2652,14.285,14.3748,14.4777,14.4777,14.5721,14.6707,14.6904,14.6904,14.697,14.7102,14.7167,14.7167,14.7167,14.7167,14.7167,14.7167,14.7167,14.7167,14.7167,14.7167,14.7167,14.7167,14.7167,14.7167,14.7167,14.7167,14.7167,14.7167,14.697,14.6312,14.4843,14.4777,14.4208,14.2915,14.285,14.285,14.285,14.2718,14.2587,14.2389,14.2192,14.206,14.1929,14.2258,14.0854,0.0,0.0,0.0,0.0,0.0,0.0,0.0,10.8458,10.8672,10.8884,10.9259,10.9875,11.0865,11.2592,11.4162,11.5203,11.7972,12.0355,12.1341,12.3083,12.3935,12.3053,12.3494,12.4527,12.6256,12.6388,12.7617,13.051,13.0707,13.1759,13.4213,13.4607,13.4739,13.4739,13.4981,13.5725,13.6865,13.6843,13.7435,13.8597,13.8597,13.8728,13.8991,13.8991,13.9189,13.9452,13.9452,13.9452,13.9452,13.9452,13.9452,13.9452,13.9452,13.9452,13.932,13.8794,13.8794,13.8991,13.8991,13.9189,13.9452,13.9452,13.9452,13.9649,14.0789,14.1117,14.1403,14.2521,14.3047,14.331,14.331,14.3507,14.4034,14.5172,14.5435,14.5763,14.6904,14.7167,14.7167,14.7167,14.7167,14.7167,14.7167,14.7167,14.7167,14.7167,14.7167,14.7167,14.7167,14.7167,14.7167,14.7167,14.7167,14.7167,14.7167,14.6115,14.48,14.3376,14.331,14.3179,14.2872,14.285,14.285,14.285,14.1732,14.0591,13.9452,13.8246,13.7128,13.6054,13.8334,13.7895,0.0,0.0,0.0,0.0,0.0,0.0,0.0,0.0,0.0,0.0,0.0,10.8416,10.8948,0.0,11.1868,11.3117,11.5344,11.7352,11.8497,12.0205,12.0713,11.922,11.968,12.0995,12.3231,12.3448,12.4612,12.7485,12.7683,12.836,12.9873,13.132,13.2088,13.2088,13.3555,13.4673,13.5397,13.5397,13.5725,13.6427,13.6427,13.6427,13.6427,13.6427,13.6427,13.6427,13.6427,13.6427,13.6427,13.6427,13.6887,13.7435,13.6756,13.6427,13.6427,13.6427,13.6427,13.6427,13.6427,13.6427,13.6427,13.6427,13.6953,13.7632,13.8356,13.9079,13.9802,14.0526,14.1249,14.1797,14.1797,14.2324,14.3047,14.3748,14.3945,14.4142,14.4889,14.5589,14.6115,14.6115,14.6641,14.7167,14.7167,14.6575,14.6115,14.6115,14.6707,14.6904,14.6181,14.6115,14.5523,14.4077,14.4603,14.4757,14.4011,14.3945,14.3616,14.2915,14.2192,14.1534,14.0789,14.0087,13.9627,13.9627,13.829,13.7172,13.6427,13.5725,13.5002,13.4279,13.3555,13.2372,0.0,0.0,0.0,0.0,0.0,0.0,0.0,0.0,0.0,0.0,0.0,0.0,0.0,0.0,0.0,11.1478,11.2889,11.4467,11.6195,11.7247,11.751,11.6524,11.6392,11.7444,12.0159,12.0423,12.1606,12.4546,12.4744,12.5007,12.5533,12.7748,12.8998,12.8998,13.1365,13.2766,13.3029,13.3292,13.3621,13.3884,13.4213,0.0,13.4344,13.4344,13.4344,13.4344,13.4344,13.4344,13.4344,13.4344,13.5002,13.5878,13.441,13.3884,13.3884,13.4213,13.4344,13.4344,13.4344,13.4344,13.4344,13.4344,13.5068,13.6076,13.6076,13.6843,0.0,13.7742,13.8816,13.9868,13.9868,14.0986,14.2126,14.2389,14.2455,14.2521,14.2784,14.3748,14.4603,14.4603,14.5523,14.6312,14.6312,14.5129,14.412,14.3791,14.4777,14.5063,14.3922,14.3988,14.3265,14.0986,14.1995,14.2389,14.1249,14.1977,14.2483,14.2478,14.112,13.956,13.783,13.6946,13.6066,13.5221,13.4331,13.3606,13.3029,13.3029,13.2898,13.2569,12.8381,12.6605,0.0,0.0,0.0,0.0,0.0,0.0,0.0,0.0,0.0,0.0,0.0,0.0,0.0,0.0,0.0,0.0,10.9931,11.1837,11.4533,11.3959,11.3696,11.4796,11.4909,11.5585,11.7181,11.7313,11.8562,12.1541,12.1804,12.2922,12.5467,12.5862,0.0,0.0,0.0,12.7177,12.8446,12.9721,13.097,13.224,13.3687,13.4344,13.4344,13.4344,13.4344,13.4344,13.4344,13.4344,13.4344,13.4344,13.441,13.441,13.2832,13.224,13.2437,13.3818,13.4344,13.4344,13.4344,0.0,0.0,13.4344,13.441,13.4542,13.4542,13.4673,13.4805,13.4805,13.5857,13.6931,13.6931,13.8027,13.9386,14.0657,14.0986,14.1315,14.2587,14.2981,14.3113,14.3113,14.3244,14.3376,14.3376,14.2192,14.0789,13.9517,13.9452,13.9517,13.932,14.0438,14.1117,14.0789,14.1995,0.0,14.2652,14.1697,14.1134,14.0965,13.9638,13.7632,13.4934,13.5872,13.4624,13.0662,13.1659,13.0988,12.8446,12.8446,12.7789,12.6519,12.3448,12.2705,0.0,0.0,0.0,0.0,0.0,0.0,0.0,0.0,0.0,0.0,0.0,0.0,0.0,0.0,0.0,0.0,10.947,11.0869,11.2035,11.1724,11.1855,11.3236,11.3433,11.4025,11.5454,11.5585,11.644,11.8562,11.8713,11.922,12.0404,12.2113,12.3119,12.3119,12.4678,12.5862,12.6473,12.7045,12.7703,12.8295,12.8952,12.9676,13.0465,13.0465,13.0925,13.1693,13.1693,13.1693,13.1693,13.1693,13.1693,13.1496,0.0,0.0,0.0,0.0,12.9741,13.0465,13.0465,13.0991,13.1693,13.1693,13.2306,13.2963,13.2963,13.3621,13.4344,13.4344,13.4739,13.5199,13.5199,13.566,13.623,13.6843,13.7632,13.8443,13.9035,14.0482,14.1666,14.1666,14.2324,0.0,14.0657,14.0591,14.0526,13.9934,14.0526,14.0789,13.9912,14.0394,14.0065,13.8443,13.9539,14.0065,13.9232,13.9444,0.0,0.0,0.0,13.6819,13.5636,13.5347,0.0,0.0,0.0,12.7257,12.5204,12.4369,0.0,0.0,11.7142,11.6064,0.0,0.0,0.0,0.0,0.0,0.0,0.0,0.0,0.0,0.0,0.0,0.0,0.0,0.0,0.0,0.0,10.8287,10.9225,10.9225,10.9882,11.0803,11.1807,11.2333,11.2925,11.4025,11.4073,11.4665,11.6129,11.6243,11.6392,11.6787,11.8891,12.0094,12.0094,12.2508,12.3823,12.3823,12.4593,12.4987,12.4987,12.5401,12.6125,12.7131,12.7131,12.7703,12.8669,12.8669,12.8669,12.8669,12.8669,12.8669,12.8472,12.6388,12.5599,12.5599,12.5599,12.621,12.7131,12.7131,12.7834,12.8669,12.8669,12.9413,13.0202,13.0202,13.0991,13.1911,13.1911,13.2482,13.3095,13.3095,13.3687,13.4344,13.4344,13.5133,13.5878,13.5878,13.7501,13.9079,13.9474,14.0087,13.9737,13.7216,13.7632,13.8224,13.783,13.8969,13.9496,13.8487,13.9013,13.8772,13.6667,13.7764,13.8137,13.7106,13.7668,13.8041,13.8049,13.6634,13.5839,13.59,13.3687,13.1658,12.9907,12.6265,12.3867,0.0,0.0,0.0,0.0,0.0,0.0,0.0,0.0,0.0,0.0,0.0,0.0,0.0,0.0,0.0,0.0,0.0,0.0,0.0,0.0,0.0,0.0,0.0,0.0,10.6282,10.8633,11.0408,11.0474,11.1741,11.2596,11.2596,11.2596,11.3236,11.4665,11.4712,11.5388,11.6721,11.6918,11.6984,11.6984,11.8497,11.9351,11.9351,12.2094,12.3455,12.3521,12.4941,12.5599,12.5664,12.5664,12.5664,12.573,12.573,12.573,12.573,12.573,12.573,12.5664,12.5599,12.5599,12.5599,12.5599,12.5599,12.5664,12.5664,12.5664,12.573,12.573,12.573,12.5796,12.5796,12.5796,12.5862,12.5862,12.7814,12.9984,12.9984,13.2154,13.4344,13.4344,13.4344,13.441,13.441,13.4476,13.4936,13.6339,13.5528,13.4081,13.2503,13.224,13.178,13.0378,13.1385,0.0,13.224,13.4826,13.6536,13.647,13.7764,13.8597,13.8531,13.7263,13.6532,13.6512,13.5191,13.4354,13.4408,13.0222,12.8506,12.9818,12.4275,12.1345,12.1137,0.0,0.0,0.0,0.0,0.0,0.0,0.0,0.0,0.0,0.0,0.0,0.0,0.0,0.0,0.0,0.0,0.0,0.0,0.0,0.0,0.0,0.0,0.0,0.0,10.5674,10.791,10.8862,11.0259,11.1132,11.1132,11.1132,11.1329,11.1837,11.271,11.3499,11.3977,11.488,11.5388,11.5388,11.6853,11.7642,11.7642,11.8544,11.953,12.0582,12.1108,12.2311,12.4132,12.4132,12.4658,12.5599,12.5599,12.5599,12.5599,12.5599,12.3297,11.9812,11.9812,11.9812,11.9812,11.9812,11.9812,11.9943,12.0995,12.1324,12.1634,12.3541,12.4132,12.433,12.527,12.5599,12.5599,12.5599,12.6256,12.7025,12.7025,12.8492,12.9959,12.9959,13.1385,13.2766,13.2766,13.3555,13.4476,13.4936,13.224,13.0354,13.178,13.1977,13.2174,13.2745,13.3226,13.3555,13.3555,13.441,13.5002,13.5002,13.5462,13.577,13.577,13.6169,13.643,13.6445,13.5119,13.3928,13.2955,12.9577,12.7041,12.5654,12.2799,12.0228,11.811,0.0,0.0,0.0,0.0,0.0,0.0,0.0,0.0,0.0,0.0,0.0,0.0,0.0,0.0,0.0,0.0,0.0,0.0,0.0,0.0,0.0,0.0,0.0,0.0,0.0,0.0,10.7367,10.8747,0.0,10.9668,10.9668,10.9668,10.9668,11.054,11.1281,11.1741,11.2644,11.3415,11.3876,11.5322,11.6045,11.6045,11.659,11.7313,11.8299,11.8299,11.9286,12.1108,12.1108,12.1568,12.2442,12.2442,12.2442,12.2442,12.2442,12.0206,11.6787,11.6261,11.6045,11.6045,11.6045,11.6045,11.6243,11.782,11.8299,11.8628,12.045,12.1108,12.1174,12.1568,12.17,12.1587,12.1061,12.2048,12.3297,12.3297,12.5072,12.6934,12.6934,12.8381,12.9676,12.9676,13.0465,13.1188,13.1188,12.8886,12.7394,12.8669,12.9347,13.007,13.1056,13.2088,13.2898,13.3424,13.395,13.4344,13.4344,13.4344,13.4344,13.4344,13.464,13.4873,13.4853,13.3542,13.2334,13.1396,12.848,12.6047,12.4181,12.165,11.9162,0.0,0.0,0.0,0.0,0.0,0.0,0.0,0.0,0.0,0.0,0.0,0.0,0.0,0.0,0.0,0.0,0.0,0.0,0.0,0.0,0.0,0.0,0.0,0.0,0.0,0.0,0.0,10.5756,10.7169,0.0,0.0,0.0,0.0,10.7941,10.8073,10.8747,11.0145,11.0259,11.0934,11.2399,11.3744,11.4533,11.4599,11.5932,11.6655,11.6721,11.6721,11.6721,11.6853,11.6853,11.6853,11.6853,11.6853,11.6853,11.6787,11.659,11.6524,11.6392,11.4993,11.4467,11.4318,11.4318,11.4318,11.4515,11.5932,11.6458,11.6524,11.6524,11.6524,11.6327,11.4993,11.4599,0.0,0.0,11.5603,11.8825,11.8872,12.2048,12.5138,12.5204,12.5335,12.5401,12.5467,12.5467,12.5401,12.5072,12.5007,12.4612,12.3343,0.0,12.5224,12.55,12.7809,13.007,13.1686,13.3137,13.4016,13.4081,13.4081,13.4081,13.4081,13.2867,13.2115,13.2028,13.0757,12.9844,12.9643,12.6943,12.5292,12.4846,12.0796,0.0,0.0,0.0,0.0,0.0,0.0,0.0,0.0,0.0,0.0,0.0,0.0,0.0,0.0,0.0,0.0,0.0,0.0,0.0,0.0,0.0,0.0,0.0,0.0,0.0,0.0,9.8146,10.1186,10.2649,10.4145,10.5065,0.0,0.0,0.0,0.0,0.0,0.0,10.7203,10.8221,10.947,11.0934,11.1311,11.2052,11.3104,11.3451,11.4157,11.5256,11.5256,11.5782,11.6853,11.6853,11.6853,11.6853,11.6853,11.6853,11.659,11.3367,11.2035,11.2052,11.1658,11.0851,10.9913,10.9913,10.9913,10.9979,11.0325,11.118,11.2035,11.2035,11.2776,11.3583,11.3188,0.0,0.0,0.0,0.0,11.4503,11.5585,11.7426,11.9351,12.0535,12.1587,12.2639,12.3738,12.4001,12.2686,11.8346,11.7492,11.7689,11.8412,11.8825,0.0,12.4895,12.5304,12.6342,12.9966,12.9829,12.9807,13.0904,13.097,13.097,13.097,13.2734,13.336,13.2205,13.1849,13.0234,12.6955,12.4853,12.1737,11.7345,0.0,0.0,0.0,0.0,0.0,0.0,0.0,0.0,0.0,0.0,0.0,0.0,0.0,0.0,0.0,0.0,0.0,0.0,0.0,0.0,0.0,0.0,0.0,0.0,0.0,0.0,0.0,9.4005,9.7226,9.8703,9.9608,10.0413,0.0,0.0,0.0,0.0,0.0,0.0,0.0,0.0,0.0,10.8436,10.8567,10.9571,11.161,11.161,11.2315,11.3762,11.3762,11.4157,11.4964,11.4964,11.4964,11.4898,11.4288,11.4025,11.3828,11.1377,11.0408,11.0277,0.0,0.0,0.0,0.0,10.7318,10.7432,10.8073,10.9207,11.0343,10.9668,0.0,0.0,0.0,0.0,0.0,0.0,0.0,11.1789,11.2626,11.4796,11.705,11.7905,11.876,11.9568,12.0385,11.907,11.6966,11.427,11.426,11.4472,11.4067,11.5415,0.0,0.0,0.0,12.3676,12.742,12.7815,12.8052,12.8821,13.006,13.0565,12.9929,13.1526,13.1889,13.0309,12.9112,12.7598,12.5642,12.2812,11.998,0.0,0.0,0.0,0.0,0.0,0.0,0.0,0.0,0.0,0.0,0.0,0.0,0.0,0.0,0.0,0.0,0.0,0.0,0.0,0.0,0.0,0.0,0.0,0.0,0.0,0.0,0.0,0.0,0.0,9.2953,9.4743,0.0,0.0,0.0,0.0,0.0,0.0,0.0,0.0,0.0,0.0,0.0,0.0,0.0,10.694,10.9817,10.9668,11.0277,11.1675,11.1675,11.1807,11.2004,11.2004,11.2004,11.1873,11.0277,0.0,10.9817,10.9422,0.0,0.0,0.0,0.0,0.0,0.0,0.0,0.0,0.0,0.0,0.0,0.0,0.0,0.0,0.0,0.0,0.0,0.0,0.0,0.0,0.0,0.0,11.5735,11.5932,11.5998,11.5987,11.5905,11.3116,11.0909,11.1792,11.3005,11.3139,0.0,0.0,0.0,0.0,0.0,0.0,12.4652,12.6321,12.7197,12.7394,12.9759,13.085,12.9645,12.9898,12.9333,12.7779,12.5172,12.391,12.448,12.0576,0.0,0.0,0.0,0.0,0.0,0.0,0.0,0.0,0.0,0.0,0.0,0.0,0.0,0.0,0.0,0.0,0.0,0.0,0.0,0.0,0.0,0.0,0.0,0.0,0.0,0.0,0.0,0.0,0.0,0.0,0.0,0.0,0.0,0.0,0.0,0.0,0.0,0.0,0.0,0.0,0.0,0.0,0.0,0.0,0.0,0.0,0.0,0.0,0.0,0.0,10.7269,10.7844,10.8993,10.8993,10.8993,10.8862,10.6249,10.5805,10.6677,10.4227,0.0,0.0,0.0,0.0,0.0,0.0,0.0,0.0,0.0,0.0,0.0,0.0,0.0,0.0,0.0,0.0,0.0,0.0,0.0,0.0,0.0,0.0,11.0062,11.1263,11.1526,11.1445,11.1257,0.0,0.0,0.0,0.0,0.0,0.0,0.0,0.0,0.0,0.0,0.0,12.2964,12.3903,12.4658,12.5796,12.6382,12.7106,12.8,12.9289,12.9362,12.7684,12.5936,12.3471,0.0,0.0,0.0,0.0,0.0,0.0,0.0,0.0,0.0,0.0,0.0,0.0,0.0,0.0,0.0,0.0,0.0,0.0,0.0,0.0,0.0,0.0,0.0,0.0,0.0,0.0,0.0,0.0,0.0,0.0,0.0,0.0,0.0,0.0,0.0,0.0,0.0,0.0,0.0,0.0,0.0,0.0,0.0,0.0,0.0,0.0,0.0,0.0,0.0,0.0,0.0,0.0,0.0,0.0,0.0,0.0,0.0,0.0,10.4408,10.3175,0.0,0.0,0.0,0.0,0.0,0.0,0.0,0.0,0.0,0.0,0.0,0.0,0.0,0.0,0.0,0.0,0.0,0.0,0.0,0.0,0.0,0.0,0.0,0.0,0.0,0.0,0.0,0.0,0.0,0.0,0.0,0.0,0.0,0.0,0.0,0.0,0.0,0.0,0.0,0.0,12.1367,12.3337,12.5018,12.6547,12.8082,12.8968,12.8832,12.8858,12.7808,12.5331,12.2413,0.0,0.0,0.0,0.0,0.0,0.0,0.0,0.0,0.0,0.0,0.0,0.0,0.0,0.0,0.0,0.0,0.0,0.0,0.0,0.0,0.0,0.0,0.0,0.0,0.0,0.0,0.0,0.0,0.0,0.0,0.0,0.0,0.0,0.0,0.0,0.0,0.0,0.0,0.0,0.0,0.0,0.0,0.0,0.0,0.0,0.0,0.0,0.0,0.0,0.0,0.0,0.0,0.0,0.0,0.0,0.0,0.0,0.0,0.0,10.1515,9.9806,0.0,0.0,0.0,0.0,0.0,0.0,0.0,0.0,0.0,0.0,0.0,0.0,0.0,0.0,0.0,0.0,0.0,0.0,0.0,0.0,0.0,0.0,0.0,0.0,0.0,0.0,0.0,0.0,0.0,0.0,0.0,0.0,0.0,0.0,0.0,0.0,0.0,0.0,0.0,0.0,11.9402,12.2767,12.5372,12.6615,12.9192,13.0234,12.8966,12.7881,12.5868,12.2742,11.8901,0.0,0.0,0.0,0.0,0.0,0.0,0.0,0.0,0.0,0.0,0.0,0.0,0.0,0.0,0.0,0.0,0.0,0.0,0.0,0.0,0.0,0.0,0.0,0.0,0.0,0.0,0.0,0.0,0.0,0.0,0.0,0.0,0.0,0.0,0.0,0.0,0.0,0.0,0.0,0.0,0.0,0.0,0.0,0.0,0.0,0.0,0.0,0.0,0.0,0.0,0.0,0.0,0.0,0.0,0.0,0.0,0.0,0.0,0.0,0.0,0.0,0.0,0.0,0.0,0.0,0.0,0.0,0.0,0.0,0.0,0.0,0.0,0.0,0.0,0.0,0.0,0.0,0.0,0.0,0.0,0.0,0.0,0.0,0.0,0.0,0.0,0.0,0.0,0.0,0.0,0.0,0.0,0.0,0.0,0.0,0.0,0.0,0.0,0.0,0.0,0.0,11.6449,12.0534,12.346,12.3665,12.5196,12.6061,12.5801,12.5631,12.4182,12.0964,0.0,0.0,0.0,0.0,0.0,0.0,0.0,0.0,0.0,0.0,0.0,0.0,0.0,0.0,0.0,0.0,0.0,0.0,0.0,0.0,0.0,0.0,0.0,0.0,0.0,0.0,0.0,0.0,0.0,0.0,0.0,0.0,0.0,0.0,0.0,0.0,0.0,0.0,0.0,0.0,0.0,0.0,0.0,0.0,0.0,0.0,0.0,0.0,0.0,0.0,0.0,0.0,0.0,0.0,0.0,0.0,0.0,0.0,0.0,0.0,0.0,0.0,0.0,0.0,0.0,0.0,0.0,0.0,0.0,0.0,0.0,0.0,0.0,0.0,0.0,0.0,0.0,0.0,0.0,0.0,0.0,0.0,0.0,0.0,0.0,0.0,0.0,0.0,0.0,0.0,0.0,0.0,0.0,0.0,0.0,0.0,0.0,0.0,0.0,0.0,0.0,0.0,11.7252,12.0678,12.376,12.5584,12.5514,12.5708,12.6572,12.4921,12.2527,11.9349,0.0,0.0,0.0,0.0,0.0,0.0,0.0,0.0,0.0,0.0,0.0,0.0,0.0,0.0,0.0,0.0,0.0,0.0,0.0,0.0,0.0,0.0,0.0,0.0,0.0,0.0,0.0,0.0,0.0,0.0,0.0,0.0,0.0,0.0,0.0,0.0,0.0,0.0,0.0,0.0,0.0,0.0,0.0,0.0,0.0,0.0,0.0,0.0,0.0,0.0,0.0,0.0,0.0,0.0,0.0,0.0,0.0,0.0,0.0,0.0,0.0,0.0,0.0,0.0,0.0,0.0,0.0,0.0,0.0,0.0,0.0,0.0,0.0,0.0,0.0,0.0,0.0,0.0,0.0,0.0,0.0,0.0,0.0,0.0,0.0,0.0,0.0,0.0,0.0,0.0,0.0,0.0,0.0,0.0,0.0,0.0,0.0,0.0,0.0,0.0,0.0,0.0,11.7335,12.0599,12.371,12.5893,12.5541,12.5471,12.6104,12.3697,12.081,11.77,0.0,0.0,0.0,0.0,0.0,0.0,0.0,0.0,0.0,0.0,0.0,0.0,0.0,0.0,0.0,0.0,0.0,0.0,0.0,0.0,0.0,0.0,0.0,0.0,0.0,0.0,0.0,0.0,0.0,0.0,0.0,0.0,0.0,0.0,0.0,0.0,0.0,0.0,0.0,0.0,0.0,0.0,0.0,0.0,0.0,0.0,0.0,0.0,0.0,0.0,0.0,0.0,0.0,0.0,0.0,0.0,0.0,0.0,0.0,0.0,0.0,0.0,0.0,0.0,0.0,0.0,0.0,0.0,0.0,0.0,0.0,0.0,0.0,0.0,0.0,0.0,0.0,0.0,0.0,0.0,0.0,0.0,0.0,0.0,0.0,0.0,0.0,0.0,0.0,0.0,0.0,0.0,0.0,0.0,0.0,0.0,0.0,0.0,0.0,0.0,0.0,0.0,11.5869,11.9979,12.2879,12.2879,12.4274,12.4555,12.302,12.143,11.9235,0.0,0.0,0.0,0.0,0.0,0.0,0.0,0.0,0.0,0.0,0.0,0.0,0.0,0.0,0.0,0.0,0.0,0.0,0.0,0.0,0.0,0.0,0.0,0.0,0.0,0.0,0.0,0.0,0.0,0.0,0.0,0.0,0.0,0.0,0.0,0.0,0.0,0.0,0.0,0.0,0.0,0.0,0.0,0.0,0.0,0.0,0.0,0.0,0.0,0.0,0.0,0.0,0.0,0.0,0.0,0.0,0.0,0.0,0.0,0.0,0.0,0.0,0.0,0.0,0.0,0.0,0.0,0.0,0.0,0.0,0.0,0.0,0.0,0.0,0.0,0.0,0.0,0.0,0.0,0.0,0.0,0.0,0.0,0.0,0.0,0.0,0.0,0.0,0.0,0.0,0.0,0.0,0.0,0.0,0.0,0.0,0.0,0.0,0.0,0.0,0.0,0.0,0.0,11.5729,11.8052,12.0458,12.2584,12.2359,12.2205,12.2809,12.143,11.9165,11.608,0.0,0.0,0.0,0.0,0.0,0.0,0.0,0.0,0.0,0.0,0.0,0.0,0.0,0.0,0.0,0.0,0.0,0.0,0.0,0.0,0.0,0.0,0.0,0.0,0.0,0.0,0.0,0.0,0.0,0.0,0.0,0.0,0.0,0.0,0.0,0.0,0.0,0.0,0.0,0.0,0.0,0.0,0.0,0.0,0.0,0.0,0.0,0.0,0.0,0.0,0.0,0.0,0.0,0.0,0.0,0.0,0.0,0.0,0.0,0.0,0.0,0.0,0.0,0.0,0.0,0.0,0.0,0.0,0.0,0.0,0.0,0.0,0.0,0.0,0.0,0.0,0.0,0.0,0.0,0.0,0.0,0.0,0.0,0.0,0.0,0.0,0.0,0.0,0.0,0.0,0.0,0.0,0.0,0.0,0.0,0.0,0.0,0.0,0.0,0.0,0.0,0.0,0.0,11.777,11.9811,12.1796,12.1078,12.0924,12.1866,12.0515,11.8531,11.601,0.0,0.0,0.0,0.0,0.0,0.0,0.0,0.0,0.0,0.0,0.0,0.0,0.0,0.0,0.0,0.0,0.0,0.0,0.0,0.0,0.0,0.0,0.0,0.0,0.0,0.0,0.0,0.0,0.0,0.0,0.0,0.0,0.0,0.0,0.0,0.0,0.0,0.0,0.0,0.0,0.0,0.0,0.0,0.0,0.0,0.0,0.0,0.0,0.0,0.0,0.0,0.0,0.0,0.0,0.0,0.0,0.0,0.0,0.0,0.0,0.0,0.0,0.0,0.0,0.0,0.0,0.0,0.0,0.0,0.0,0.0,0.0,0.0,0.0,0.0,0.0,0.0,0.0,0.0,0.0,0.0,0.0,0.0,0.0,0.0,0.0,0.0,0.0,0.0,0.0,0.0,0.0,0.0,0.0,0.0,0.0,0.0,0.0,0.0,0.0,0.0,0.0,0.0,11.839,12.0432,12.0489,12.0489,12.0489,12.0489,11.9165,11.7546,11.5799,11.2855,0.0,0.0,0.0,0.0,0.0,0.0,0.0,0.0,0.0,0.0,0.0,0.0,0.0,0.0,0.0,0.0,0.0,0.0,0.0,0.0,0.0,0.0,0.0,0.0,0.0,0.0,0.0,0.0,0.0,0.0,0.0,0.0,0.0,0.0,0.0,0.0,0.0,0.0,0.0,0.0,0.0,0.0,0.0,0.0,0.0,0.0,0.0,0.0,0.0,0.0,0.0,0.0,0.0,0.0,0.0,0.0,0.0,0.0,0.0,0.0,0.0,0.0,0.0,0.0,0.0,0.0,0.0,0.0,0.0,0.0,0.0,0.0,0.0,0.0,0.0,0.0,0.0,0.0,0.0,0.0,0.0,0.0,0.0,0.0,0.0,0.0,0.0,0.0,0.0,0.0,0.0,0.0,0.0,0.0,0.0,0.0,0.0,0.0,0.0,0.0,0.0,0.0,11.6784,11.9235,12.0361,12.0489,12.0489,12.0489,12.0207,11.825,11.4333,11.2221,0.0,0.0,0.0,0.0,0.0,0.0,0.0,0.0,0.0,0.0,0.0,0.0,0.0,0.0,0.0,0.0,0.0,0.0,0.0,0.0,0.0,0.0,0.0,0.0,0.0,0.0,0.0,0.0,0.0,0.0,0.0,0.0,0.0,0.0,0.0,0.0,0.0,0.0,0.0,0.0,0.0,0.0,0.0,0.0,0.0,0.0,0.0,0.0,0.0,0.0,0.0,0.0,0.0,0.0,0.0,0.0,0.0,0.0,0.0,0.0,0.0,0.0,0.0,0.0,0.0,0.0,0.0,0.0,0.0,0.0,0.0,0.0,0.0,0.0,0.0,0.0,0.0,0.0,0.0,0.0,0.0,0.0,0.0,0.0,0.0,0.0,0.0,0.0,0.0,0.0,0.0,0.0,0.0,0.0,0.0,0.0,0.0,0.0,0.0,0.0,0.0,0.0,11.5165,11.7968,12.0278,12.0489,12.0489,12.0489,12.0489,11.8531,11.384,11.1474,0.0,0.0,0.0,0.0,0.0,0.0,0.0,0.0,0.0,0.0,0.0,0.0,0.0,0.0,0.0,0.0,0.0,0.0,0.0,0.0,0.0,0.0,0.0,0.0,0.0,0.0,0.0,0.0,0.0,0.0,0.0,0.0,0.0,0.0,0.0,0.0,0.0,0.0,0.0,0.0,0.0,0.0,0.0,0.0,0.0,0.0,0.0,0.0,0.0,0.0,0.0,0.0,0.0,0.0,0.0,0.0,0.0,0.0,0.0,0.0,0.0,0.0,0.0,0.0,0.0,0.0,0.0,0.0,0.0,0.0,0.0,0.0,0.0,0.0,0.0,0.0,0.0,0.0,0.0,0.0,0.0,0.0,0.0,0.0,0.0,0.0,0.0,0.0,0.0,0.0,0.0,0.0,0.0,0.0,0.0,0.0,0.0,0.0,0.0,0.0,0.0,0.0,0.0,11.6753,11.9869,12.0361,12.0489,12.0489,12.0291,11.8179,11.3488,0.0,0.0,0.0,0.0,0.0,0.0,0.0,0.0,0.0,0.0,0.0,0.0,0.0,0.0,0.0,0.0,0.0,0.0,0.0,0.0,0.0,0.0,0.0,0.0,0.0,0.0,0.0,0.0,0.0,0.0,0.0,0.0,0.0,0.0,0.0,0.0,0.0,0.0,0.0,0.0,0.0,0.0,0.0,0.0,0.0,0.0,0.0,0.0,0.0,0.0,0.0,0.0,0.0,0.0,0.0,0.0,0.0,0.0,0.0,0.0,0.0,0.0,0.0,0.0,0.0,0.0,0.0,0.0,0.0,0.0,0.0,0.0,0.0,0.0,0.0,0.0,0.0,0.0,0.0,0.0,0.0,0.0,0.0,0.0,0.0,0.0,0.0,0.0,0.0,0.0,0.0,0.0,0.0,0.0,0.0,0.0,0.0,0.0,0.0,0.0,0.0,0.0,0.0,0.0,11.5347,11.8276,11.9728,12.0489,12.0489,11.9305,11.6573,11.1869,0.0,0.0,0.0,0.0,0.0,0.0,0.0,0.0,0.0,0.0,0.0,0.0,0.0,0.0]}],[{"header":{"parameterUnit":"kt","parameterCategory":2,"dx":1,"dy":1,"la1":29.285339999999998,"la2":30.599998999999997,"lo1":-89.70041500000002,"lo2":-87.6738589999976,"nx":112,"ny":82,"refTime":"2022-09-24T06:00:00:Z","depth":0,"parameterNumber":2,"parameterNumberName":"V-component_of_WINDS"},"data":[11.7675,11.7041,11.6309,11.6699,11.5235,11.3575,11.3197,11.1977,11.0953,0.0,0.0,0.0,0.0,10.9928,10.944,11.0123,10.9684,10.9245,0.0,10.9245,10.9245,10.9245,0.0,0.0,0.0,0.0,11.5723,11.7138,11.7578,11.8407,11.9872,12.0604,12.1296,12.2077,12.2077,12.2077,12.2077,12.2077,12.2272,12.2711,12.2711,12.2858,12.3288,12.4061,12.4402,12.4451,12.5476,12.5916,12.5965,12.6355,12.6502,12.6551,12.7193,12.7486,12.7388,12.6746,12.6502,12.6502,12.6502,12.6502,12.6502,12.6502,12.6502,12.6502,12.6502,12.6502,12.6502,12.6502,12.6502,12.6502,12.6502,12.6502,12.6648,12.729,12.7486,12.7681,12.8364,12.8469,12.8469,12.8469,12.8469,12.8469,12.8469,12.8469,12.7925,12.6209,12.5916,12.5769,12.5379,12.5371,12.5371,12.5371,12.5672,12.6062,12.6453,12.7095,12.7778,12.8462,12.8469,12.8469,12.8469,12.8469,12.8469,12.8469,12.8469,12.8469,12.8469,12.8469,12.8469,12.8469,12.8469,12.8469,11.5441,11.4807,11.4112,11.4503,11.299,11.133,11.0868,11.0026,0.0,0.0,0.0,0.0,0.0,10.9733,10.9245,10.9196,10.9196,10.8988,0.0,10.8792,10.9342,10.9733,11.2611,0.0,0.0,11.6309,11.7421,11.8836,11.8983,11.9384,12.0457,12.115,12.1736,12.2077,12.2077,12.2077,12.2077,12.2077,12.2077,12.2077,12.2077,12.2077,12.2086,12.2858,12.3239,12.3288,12.4402,12.4842,12.4891,12.5273,12.5371,12.5468,12.616,12.6404,12.6355,12.5623,12.5371,12.5371,12.5371,12.5371,12.5371,12.5371,12.5371,12.5371,12.5371,12.5371,12.5371,12.5371,12.5371,12.5371,12.5371,12.5371,12.5566,12.6258,12.6697,12.7095,12.7827,12.8267,12.8469,12.8469,12.8176,12.7974,12.7974,12.7681,12.6892,12.5086,12.4842,12.4695,12.4305,12.4305,12.4305,12.4305,12.4598,12.4842,12.4842,12.5818,12.6892,12.7925,12.8315,12.8469,12.8469,12.8469,12.8469,12.8469,12.8469,12.8469,12.8469,12.8469,12.8469,12.8469,12.8469,12.8469,11.2502,11.1636,11.1063,11.2209,11.0891,10.9538,11.0526,0.0,10.9245,0.0,0.0,0.0,0.0,10.9245,10.8597,10.6533,10.7914,0.0,0.0,10.7998,10.9684,11.0868,11.3782,11.5723,11.5821,11.7714,11.8983,11.9081,11.9032,11.9471,12.0506,12.0604,12.1004,12.2077,12.2077,12.2077,12.2077,12.2077,12.2077,12.2077,12.2077,12.2077,12.2077,12.2077,12.2077,12.2175,12.3288,12.3776,12.3825,12.4842,12.5273,12.5273,12.5322,12.5281,12.5273,12.5273,12.5273,12.5273,12.5273,12.5273,12.5273,12.5273,12.5273,12.5273,12.5273,12.5273,12.5273,12.5273,12.5273,12.5273,12.5273,12.5273,12.5273,12.5281,12.6111,12.6844,12.6892,12.7681,12.8371,12.8371,12.7583,12.6851,12.6851,12.5965,12.4939,12.3923,12.3776,12.3337,12.2223,12.2077,12.2077,12.2077,12.3093,12.3776,12.3776,12.4695,12.5769,12.6795,12.7876,12.842,12.8469,12.8469,12.8469,12.8469,12.8469,12.8469,12.8469,12.8469,12.8469,12.8469,12.8469,12.8469,11.1099,11.105,11.0868,11.1197,11.0819,11.0269,0.0,0.0,0.0,0.0,0.0,0.0,0.0,0.0,10.905,10.8499,0.0,10.9085,10.8451,10.8855,11.0757,11.4953,11.6222,11.7431,11.9042,11.9081,11.9579,12.1101,12.0506,12.0555,12.1589,12.1638,12.1784,12.2077,12.2077,12.2077,12.2077,12.2077,12.2077,12.2077,12.2077,12.2077,12.2077,12.2077,12.2077,12.2126,12.2419,12.2565,12.2565,12.2898,12.2995,12.3093,12.3923,12.3727,12.2995,12.2995,12.2995,12.2995,12.2995,12.2995,12.2995,12.2995,12.2995,12.2995,12.2995,12.2995,12.2995,12.2995,12.2995,12.2995,12.2995,12.2995,12.3191,12.4061,12.446,12.4891,12.5623,12.6014,12.6258,12.6258,12.6014,12.5769,12.5769,12.4216,12.2898,12.2614,12.2565,12.2419,12.2126,12.2077,12.2077,12.2077,12.237,12.2565,12.2565,12.3581,12.4362,12.4655,12.6363,12.7681,12.842,12.8469,12.8469,12.8469,12.8469,12.8469,12.8469,12.8469,12.8469,12.8469,12.8469,12.8469,10.8695,10.9147,10.9489,10.9489,0.0,0.0,10.9391,0.0,10.9245,0.0,0.0,0.0,0.0,0.0,0.0,0.0,10.9085,10.9733,10.9294,11.0416,11.2563,11.6162,11.6515,11.7626,12.0262,12.036,12.0799,12.198,12.1492,12.1443,12.2077,12.2077,12.2077,12.2077,12.2077,12.2077,12.2077,12.2077,12.2077,12.2077,12.2077,12.2077,12.2077,12.2077,12.2077,12.2077,12.2077,12.2077,12.2077,12.2077,12.2077,12.2175,12.2809,12.2663,12.2077,12.2077,12.2077,12.2077,12.2077,12.2077,12.2077,12.2077,12.2077,12.2077,12.2077,12.2077,12.2077,12.2077,12.2077,12.2077,12.2077,12.2077,12.2272,12.2907,12.3483,12.4012,12.4598,12.5037,12.5371,12.5371,12.5037,12.4549,12.4069,12.2907,12.2077,12.2077,12.2077,12.2077,12.2077,12.2077,12.2077,12.2077,12.2077,12.2077,12.2077,12.2711,12.3288,12.3776,12.4948,12.6265,12.7778,12.8267,12.8469,12.8469,12.8469,12.8469,12.8469,12.8469,12.8469,12.8469,12.8469,12.8469,0.0,0.0,0.0,0.0,10.8402,0.0,10.9232,0.0,10.9245,10.9391,0.0,10.9245,10.9391,0.0,0.0,10.6924,10.9134,11.0709,10.9733,11.2611,11.5197,11.626,11.6357,11.7529,12.0409,12.154,12.2077,12.2077,12.2077,12.2077,12.2077,12.2077,12.2077,12.2077,12.2077,12.2077,12.2077,12.2077,12.2077,12.2077,12.2077,12.2077,12.2077,12.2077,12.2077,12.2077,12.2077,12.2077,12.2077,12.2077,12.2077,12.2077,12.2077,12.2077,12.2077,12.2077,12.2077,12.2077,12.2077,12.2077,12.2077,12.2077,12.2077,12.2077,12.2077,12.2077,12.2077,12.2077,12.2077,12.2077,12.2077,12.2077,12.2077,12.2077,12.2898,12.363,12.363,12.4354,12.4988,12.4988,12.4256,12.3288,12.2272,12.2077,12.2077,12.2077,12.2077,12.2077,12.2077,12.2077,12.2077,12.2077,12.2077,12.2077,12.2077,12.2077,12.2516,12.3532,12.3727,12.4655,12.6509,12.7681,12.8364,12.8469,12.8469,12.8469,12.8469,12.8469,12.8469,12.8469,12.8469,12.8469,0.0,0.0,0.0,0.0,0.0,10.8207,0.0,0.0,0.0,11.0367,10.983,10.9489,11.0367,10.983,10.9391,10.983,11.1197,11.216,11.1965,11.6162,11.9637,12.0711,12.0857,12.1101,12.1736,12.198,12.2077,12.2077,12.2077,12.2077,12.2077,12.2077,12.2077,12.2077,12.2077,12.2077,12.2077,12.2077,12.2077,12.2077,12.2077,12.2077,12.2077,12.2077,12.2077,12.2077,12.2077,12.2077,12.2077,12.2077,12.2077,12.2077,12.2077,12.2077,12.2077,12.2077,12.2077,12.2077,12.2077,12.2077,12.2077,12.2077,12.2077,12.2077,12.2077,12.2077,12.2077,12.2077,12.2077,12.2077,12.2077,12.2077,12.2077,12.2077,12.2272,12.2419,12.2419,12.2565,12.2711,12.2711,12.2516,12.2321,12.2126,12.2077,12.2077,12.2077,12.2077,12.2077,12.2077,12.2077,12.2077,12.2077,12.2077,12.2077,12.2077,12.2077,12.2175,12.2419,12.3288,12.3971,12.4411,12.6217,12.7632,12.8469,12.8469,12.8469,12.8469,12.8469,12.8469,12.8469,12.8469,12.8469,10.4497,10.4839,0.0,10.6631,0.0,0.0,0.0,10.9635,10.9684,11.1343,11.0806,11.0367,11.1489,11.1684,11.1831,11.2368,11.3831,11.5088,11.5674,11.8505,12.0701,12.1248,12.1296,12.1492,12.1989,12.2077,12.2077,12.2077,12.2077,12.2077,12.2077,12.2077,12.2077,12.2077,12.2077,12.2077,12.2077,12.2077,12.2077,12.2077,12.2077,12.2077,12.2077,12.2077,12.2077,12.2077,12.2077,12.2077,12.2077,12.2077,12.2077,12.2077,12.2077,12.2077,12.2077,12.2077,12.2077,12.2077,12.2077,12.2077,12.2077,12.2077,12.2077,12.2077,12.2077,12.0834,11.906,11.7224,11.6736,11.6736,11.6736,11.6736,11.6736,11.6736,11.6736,11.6736,11.6736,11.8164,11.9463,11.9463,11.9463,11.9985,12.1759,12.2077,12.2077,12.2077,12.2077,12.2077,12.2077,12.2077,12.2077,12.2077,12.2077,12.2077,12.2077,12.2077,12.2077,12.2077,12.2614,12.3239,12.3776,12.533,12.6648,12.7681,12.8176,12.8469,12.8469,12.7974,12.773,12.7681,12.7144,12.69,10.282,10.3439,10.44,10.5786,0.0,0.0,11.0026,11.0026,11.0123,11.216,11.1928,11.1782,11.2941,11.3868,11.4466,11.4661,11.632,11.8017,11.9384,12.0311,12.0808,12.0808,12.0808,12.115,12.2028,12.2077,12.2077,12.2077,12.2077,12.2077,12.2077,12.2077,12.2077,12.2077,12.2077,12.2077,12.2077,12.2077,12.2077,12.2077,12.2077,12.2077,12.2077,12.2077,12.2077,12.2077,12.2077,12.2077,12.2077,12.2077,12.2077,12.2077,12.2077,12.2077,12.2077,12.2077,12.164,12.1033,12.1033,12.0594,11.9985,11.9985,11.9985,11.9985,11.9985,11.8002,11.518,11.2238,11.1358,11.1358,11.1358,11.1358,11.1358,11.1358,11.1358,11.1358,11.1358,11.3691,11.5755,11.5755,11.6327,11.7921,12.1481,12.2077,12.2077,12.2077,12.2077,12.2077,12.2077,12.2077,12.2077,12.2077,12.2077,12.2077,12.2077,12.2077,12.2077,12.2077,12.2077,12.2516,12.3435,12.45,12.5476,12.6314,12.7339,12.7974,12.8169,12.7185,12.6648,12.6599,12.5769,12.5371,10.282,10.2917,10.3487,10.5605,10.6226,0.0,10.8903,11.0026,11.1001,11.2306,11.3185,11.4075,11.5137,11.5381,11.5821,11.671,11.7919,11.9432,12.1443,12.1833,12.1931,12.1931,12.1931,12.198,12.2077,12.2077,12.2077,12.2077,12.2077,12.2077,12.2077,12.2077,12.2077,12.2077,12.2077,12.2077,12.2077,12.2077,12.2077,12.2077,12.2077,12.2077,12.2077,12.2077,12.2077,12.2077,12.2077,12.2077,12.2077,12.2077,12.2077,12.2077,12.2077,12.2077,12.2077,12.2077,12.0065,11.7434,11.7434,11.5303,11.2567,11.2567,11.2567,11.2567,11.2567,11.2276,11.1901,11.1483,11.1358,11.1358,11.1358,11.1358,11.1358,11.1358,11.1358,11.1358,11.1358,11.1692,11.1984,11.1984,11.4599,11.7921,12.1481,12.2077,12.2077,12.2077,12.2077,12.2077,12.2077,12.2077,12.2077,12.2077,12.2077,12.2077,12.2077,12.2077,12.2077,12.2077,12.2077,12.2126,12.2272,12.3386,12.4061,12.4167,12.5184,12.616,12.7095,12.6062,12.5566,12.5566,12.5468,12.5371,10.2966,10.282,10.3341,10.5591,0.0,0.0,10.9538,11.0477,11.1307,11.3099,11.427,11.5333,11.6406,11.7626,11.8651,11.9052,12.0028,12.1052,12.198,12.2077,12.2077,12.2077,12.2077,12.2077,12.2077,12.2077,12.2077,12.2077,12.2077,12.2077,12.2077,12.2077,12.2077,12.2077,12.2077,12.2077,12.2077,12.2077,12.2077,12.2077,12.2077,12.2077,12.1998,11.9945,11.902,11.8899,11.6776,11.7061,11.8858,11.6736,11.5831,11.5831,11.5831,11.5831,11.5831,11.5831,11.4929,11.365,11.365,11.2695,11.1358,11.1358,11.1358,11.1358,11.1358,10.9975,10.8326,10.8326,10.6793,10.512,10.512,10.512,10.512,10.512,10.512,10.512,10.512,10.6836,10.8326,10.8326,10.9554,11.1695,11.5216,11.5831,11.5831,11.5831,11.5831,11.6613,11.8778,11.7143,11.6654,11.8818,11.902,11.902,11.902,12.0874,12.2077,12.2077,12.2077,12.2077,12.2077,12.3191,12.3825,12.3825,12.4842,12.5574,12.6014,12.4988,12.45,12.4451,12.3776,12.3435,10.3146,0.0,0.0,0.0,0.0,0.0,11.0562,11.1502,11.2136,11.3782,11.543,11.6797,11.7578,11.9481,12.0955,12.0955,12.1589,12.2077,12.2077,12.2077,12.2077,12.2077,12.2077,12.2077,12.2077,12.2077,12.2077,12.2077,12.2077,12.2077,12.2077,12.2077,12.2077,12.2077,12.2077,12.2077,12.2077,12.2077,12.2077,12.2077,12.2077,12.2077,12.1998,11.9422,11.8245,11.8083,11.4476,11.3277,11.3732,11.2026,11.1984,11.2986,11.398,11.4352,11.4352,11.4352,11.3066,11.1358,11.1358,11.0057,10.8411,10.8411,10.8411,10.8411,10.8411,10.6665,10.4602,10.4602,10.2733,10.0674,10.0674,10.0674,10.0674,10.0674,10.0674,10.0674,10.0674,10.2777,10.4904,10.5936,10.6151,10.7263,11.0772,11.1358,11.1358,11.1358,11.1358,11.2318,11.497,11.3028,11.2779,11.6409,11.6864,11.723,11.8164,11.9704,12.0634,12.0634,11.9664,11.9093,11.9093,11.9896,12.086,12.188,12.2645,12.3664,12.4939,12.1916,12.0366,12.0366,11.9515,11.9664,0.0,0.0,0.0,10.684,10.7656,10.8451,11.177,11.3283,11.4026,11.4075,11.665,11.8885,11.8934,12.0613,12.2028,12.2028,12.2077,12.2077,12.2077,12.2077,12.2077,12.2077,12.2077,12.2077,12.2077,12.2077,12.2077,12.2077,12.2077,12.2077,12.2077,12.2077,12.2077,12.2077,12.2077,12.2077,12.2077,12.2077,12.2077,12.2077,12.2077,12.2077,12.2077,12.1958,12.1918,12.1719,11.8164,11.2779,10.6708,11.0017,11.3484,11.7027,12.0434,12.1759,12.1759,12.1759,11.7346,11.1358,11.1358,10.6836,10.0981,10.0981,10.0981,10.0981,10.0981,10.0938,10.085,10.085,10.0762,10.0674,10.0674,10.0674,10.0674,10.0674,10.0674,10.0674,10.0674,10.0762,10.1861,10.5464,10.6151,10.7263,11.0772,11.1358,11.1358,11.1358,11.1358,11.14,11.1525,11.1441,11.2779,11.6409,11.6864,11.8204,12.164,11.8899,11.6986,11.6986,11.365,11.1692,11.1692,11.1737,11.3447,11.6992,11.7033,11.9307,12.3825,11.5687,11.1737,11.1737,11.1737,11.3608,10.3341,10.3341,10.4497,10.707,10.8207,10.9378,11.1965,11.3343,11.4124,11.4124,11.6076,11.8017,11.8836,11.953,12.0018,12.0018,12.0604,12.1052,12.1052,12.1638,12.2077,12.2077,12.2077,12.2077,12.2077,12.2077,12.2077,12.2077,12.2077,12.2077,12.2077,12.2077,12.2077,12.2077,12.2077,12.2077,12.2077,12.2077,12.2077,12.2077,12.2077,12.2077,12.1918,11.7143,11.497,11.464,10.8666,10.6109,10.6065,10.4774,10.5033,10.6237,10.7391,10.7859,10.7859,10.7859,10.6366,10.4299,10.4299,10.2733,10.0674,10.0674,10.0674,10.0674,10.0674,10.0674,10.0674,10.0674,10.0674,10.0674,10.0674,10.1117,10.172,10.2324,10.2042,10.16,10.16,10.16,10.1796,10.242,10.2515,10.2866,10.4083,10.4299,10.4299,10.4299,10.4299,10.5162,10.7604,10.5765,10.5679,10.9342,11.182,11.3691,11.4846,11.8245,12.0314,12.0314,11.9133,11.8488,11.8488,11.8488,11.9053,12.0314,11.8002,11.6391,11.5559,11.5154,11.497,11.5052,11.7387,11.7921,10.3878,10.3878,10.4985,10.7572,10.9036,11.0367,11.2599,11.388,11.4698,11.4698,11.6027,11.7442,11.8212,11.831,11.8456,11.8885,11.9569,11.9969,11.9969,12.0897,12.1492,12.1492,12.1833,12.2077,12.2077,12.2077,12.2077,12.2077,12.2077,12.2077,12.2077,12.2077,12.2077,12.2077,12.2077,12.2077,12.2077,12.2077,12.2077,12.2077,12.2077,12.2077,12.1878,11.6041,11.336,11.2945,10.5722,10.3995,10.6065,10.499,10.4515,10.4515,10.4515,10.4515,10.4515,10.4515,10.3735,10.2646,10.2646,10.1773,10.0674,10.0674,10.0674,10.0674,10.0674,10.0674,10.0674,10.0674,10.0674,10.0755,10.1076,10.16,10.2284,10.3214,10.2972,10.257,10.257,10.2002,10.1398,10.0795,10.0674,10.0674,10.0674,10.0674,10.0674,10.0674,10.0674,10.1551,10.3865,10.2123,10.2079,10.5765,10.8157,11.0017,11.1274,11.4476,11.6368,11.6368,11.5134,11.4434,11.4434,11.4434,11.5052,11.6327,11.4146,11.1862,10.9511,11.0564,11.1067,11.1109,11.336,11.3898,10.4644,10.4448,10.5327,10.8499,11.0074,11.1489,11.3636,11.4905,11.5625,11.5625,11.6417,11.7149,11.7149,11.7149,11.7529,11.8641,11.8836,11.8885,11.8885,11.9774,12.0457,12.0506,12.1394,12.2028,12.2077,12.2077,12.2077,12.2077,12.2077,12.2077,12.2077,12.2077,12.2077,12.2077,12.2077,12.2077,12.2077,12.2077,12.1958,12.1799,12.1799,12.1719,12.1392,11.788,11.6246,11.5878,10.8877,10.5851,10.6108,10.9469,11.0813,11.0813,11.0813,11.0813,11.0813,11.0813,10.8708,10.5851,10.5851,10.3561,10.0674,10.0674,10.0674,10.0674,10.0674,10.0674,10.0674,10.0674,10.0674,10.0915,10.1801,10.2082,10.2324,10.3294,10.3536,10.3536,10.3455,10.2002,10.0755,10.0714,10.0674,10.0674,10.0674,10.0674,10.0674,10.0674,10.0674,10.0674,10.0674,10.0674,10.1992,10.5464,10.6022,10.7476,11.0813,10.8199,10.6366,10.6366,10.3127,10.1245,10.1245,10.1245,10.2866,10.6323,10.6065,10.5851,10.5851,10.2603,10.0981,10.0981,10.1157,10.2997,10.4058,10.5571,10.7265,10.8806,11.066,11.2416,11.3782,11.4905,11.5625,11.5625,11.5869,11.6065,11.6065,11.6065,11.6162,11.6455,11.7138,11.7675,11.7675,11.8651,11.9628,12.0409,12.075,12.1199,12.2028,12.2077,12.2077,12.2077,12.2077,12.2077,12.2077,12.2077,12.2077,12.2077,12.2077,12.2077,12.2077,12.2077,12.0754,11.8164,11.8164,11.6736,11.398,11.0438,10.8835,10.8624,10.4081,10.2079,10.2123,10.304,10.3431,10.3431,10.3431,10.3431,10.3431,10.3431,10.2823,10.2079,10.2079,10.1464,10.0674,10.0674,10.0674,10.0674,10.0674,10.0674,10.0674,10.0674,10.0674,10.0915,10.1801,10.2525,10.3249,10.4089,10.4813,10.4934,10.3652,10.2529,10.1519,10.0835,10.0674,10.0674,10.0674,10.0674,10.0674,10.0674,10.0674,10.0674,10.0674,10.0674,10.1025,10.1948,10.4472,10.6494,10.7391,10.9047,11.0059,11.0059,10.9216,10.8666,10.8666,10.8666,10.9131,11.0015,10.4818,10.2079,10.2079,10.3865,10.4731,10.4818,10.7433,10.7731,10.4434,10.6386,10.7914,10.8988,11.094,11.2697,11.3283,11.46,11.5625,11.5625,11.5625,11.5625,11.5625,11.5625,11.5625,11.5625,11.6162,11.6553,11.6553,11.748,11.8407,11.9003,11.9881,12.075,12.1345,12.1833,12.2077,12.2077,12.2077,12.2077,12.2077,12.2077,12.1401,11.9784,11.9744,11.9744,11.9744,11.9744,11.9543,11.9141,11.9141,11.7224,11.365,11.0101,10.7604,10.6108,10.5593,10.5378,10.5378,10.5378,10.4472,10.2951,10.1332,10.0674,10.0674,10.0674,10.0674,10.0674,10.0674,10.0674,10.0674,10.0674,10.0674,10.0674,10.0674,10.0674,10.0674,10.0674,10.0674,10.0996,10.2284,10.3053,10.3692,10.4893,10.525,10.4893,10.3169,10.2449,10.176,10.0875,10.0674,10.0674,10.0674,10.0674,10.0674,10.0674,10.0674,10.0674,10.0674,10.0674,10.0674,10.0674,10.2515,10.3735,10.3735,10.555,10.6708,10.6708,10.6708,10.6708,10.6708,10.6708,10.6708,10.6708,10.2736,10.0674,10.0674,10.2777,10.3735,10.3778,10.5765,10.5636,10.5264,10.6875,10.7914,10.8988,11.0793,11.2355,11.2502,11.4064,11.5479,11.5625,11.5625,11.5625,11.5625,11.5625,11.5625,11.5625,11.5625,11.5625,11.5625,11.6455,11.7052,11.7198,11.8906,12.0213,12.0506,12.1345,12.1931,12.2077,12.2077,12.2077,12.2077,12.2077,12.0474,11.6945,11.6864,11.6572,11.6082,11.6082,11.7637,12.0634,12.0145,11.8083,11.4558,11.1904,10.875,10.5593,10.8623,10.9931,10.9931,10.9931,10.8157,10.5076,10.1904,10.0674,10.0674,10.0674,10.0674,10.0674,10.0674,10.0674,10.0674,10.0674,10.0674,10.0674,10.0674,10.0674,10.0674,10.0674,10.0674,10.1076,10.2811,10.3254,10.3611,10.5215,10.4934,10.3848,10.2364,10.1921,10.164,10.0835,10.0674,10.0674,10.0674,10.0674,10.0674,10.0674,10.0674,10.0674,10.0674,10.0674,10.0674,10.0674,10.0674,10.0674,10.0674,10.0674,10.0674,10.0674,10.0674,10.0674,10.0674,10.0674,10.0674,10.0674,10.0674,10.0674,10.0674,10.0674,10.0674,10.0674,10.0674,10.0674,10.5493,10.6875,10.7914,10.8988,11.0172,11.1392,11.2355,11.3527,11.4612,11.5479,11.5625,11.5625,11.5625,11.5625,11.5625,11.5625,11.5625,11.5625,11.5625,11.5821,11.626,11.71,11.7539,11.8466,12.036,12.0701,12.115,12.2028,12.2077,12.2077,12.2077,12.2077,12.0474,11.6945,11.6864,11.5386,11.2318,11.2318,11.2609,11.319,11.027,10.7007,10.3561,10.5979,10.5076,10.1642,10.2254,10.2559,10.2559,10.2559,10.2166,10.1595,10.0938,10.0674,10.0674,10.0674,10.0674,10.0674,10.0674,10.0674,10.0674,10.0674,10.0674,10.0674,10.0674,10.0674,10.0674,10.0674,10.0674,10.0956,10.2002,10.2284,10.2525,10.3616,10.3169,10.2404,10.2082,10.1439,10.0875,10.0714,10.0674,10.0674,10.0674,10.0674,10.0674,10.0674,10.0674,10.0674,10.0674,10.0674,10.0674,10.0674,10.0674,10.0674,10.0674,10.0674,10.0674,10.0674,10.0674,10.0674,10.0674,10.0674,10.0674,10.0674,10.0674,10.0674,10.0674,10.0674,10.0674,10.0674,10.0674,10.0674,10.5361,10.6875,10.7914,10.8988,11.0026,11.0953,11.1538,11.2904,11.4075,11.4064,11.4503,11.504,11.5528,11.5625,11.5625,11.5625,11.5625,11.5625,11.5625,11.5625,11.5821,11.6357,11.6856,11.7637,11.8662,11.9872,12.075,12.1199,12.1784,12.2077,12.2077,12.0354,11.7718,11.4104,11.2238,11.0396,10.8666,10.8623,10.9596,11.1358,10.968,10.7944,10.6194,10.417,10.3388,10.3518,10.3518,10.3518,10.3518,10.3518,10.2385,10.0674,10.0674,10.0674,10.0674,10.0674,10.0674,10.0674,10.0674,10.0674,10.0674,10.0674,10.0674,10.0674,10.0674,10.0674,10.0674,10.0674,10.0674,10.0915,10.1801,10.2042,10.2284,10.3214,10.2324,10.1358,10.1358,10.0996,10.0674,10.0674,10.0674,10.0674,10.0674,10.0674,10.0674,10.0674,10.0674,10.0674,10.0674,10.0674,10.0674,10.0674,10.0674,10.0674,10.0674,10.0674,10.0674,10.0674,10.0674,10.0674,10.0674,10.0674,10.0674,10.0674,10.0674,10.0674,10.0674,10.0674,10.0674,10.0674,10.0674,10.0674,10.4678,10.6386,10.7607,10.8646,10.9684,11.0465,11.0465,11.1831,11.2904,11.2306,11.3197,11.4417,11.5479,11.5625,11.5625,11.5625,11.5625,11.5625,11.5625,11.5625,11.5625,11.5625,11.6406,11.6954,11.7198,11.8759,11.992,12.0164,12.115,12.1736,12.1736,11.8635,11.5134,11.1483,10.7944,10.5765,10.4947,10.4947,10.6366,10.9089,10.9089,10.9089,10.892,10.3258,10.2254,10.4947,10.4947,10.4947,10.4947,10.4947,10.3258,10.0674,10.0674,10.0674,10.0674,10.0674,10.0674,10.0674,10.0674,10.0674,10.0674,10.0674,10.0674,10.0674,10.0674,10.0674,10.0674,10.0674,10.0674,10.0835,10.1559,10.176,10.1921,10.2646,10.172,10.0674,10.0674,10.0674,10.0674,10.0674,10.0674,10.0674,10.0674,10.0674,10.0674,10.0674,10.0674,10.0674,10.0674,10.0674,10.0674,10.0674,10.0674,10.0674,10.0674,10.0674,10.0674,10.0674,10.0674,10.0674,10.0674,10.0674,10.0674,10.0674,10.0674,10.0674,10.0674,10.0674,10.0674,10.0674,10.0674,10.0674,10.2804,10.4644,10.6519,10.7558,10.8646,10.9391,10.9391,10.9538,10.9928,11.077,11.2624,11.4417,11.5479,11.5625,11.5625,11.5625,11.5625,11.5625,11.5625,11.5625,11.5625,11.5625,11.5723,11.6162,11.71,11.7393,11.7968,11.9032,12.0067,12.0653,12.0653,11.8255,11.5134,11.1483,10.7944,10.4515,10.1201,10.1201,10.1376,10.1642,10.1642,10.1642,10.1642,10.0981,10.085,10.1201,10.1201,10.1201,10.1201,10.1201,10.0981,10.0674,10.0674,10.0674,10.0674,10.0674,10.0674,10.0674,10.0674,10.0674,10.0674,10.0674,10.0674,10.0674,10.0674,10.0674,10.0674,10.0674,10.0674,10.0714,10.0795,10.0795,10.0835,10.0915,10.0795,10.0674,10.0674,10.0674,10.0674,10.0674,10.0674,10.0674,10.0674,10.0674,10.0674,10.0674,10.0674,10.0674,10.0674,10.0674,10.0674,10.0674,10.0674,10.0674,10.0674,10.0674,10.0674,10.0674,10.0674,10.0674,10.0674,10.0674,10.0674,10.0674,10.0674,10.0674,10.0674,10.0674,10.0674,10.0674,10.0674,10.0674,10.2365,10.4448,10.6372,10.7412,10.7963,10.8304,10.8304,10.8304,10.8792,11.0429,11.2075,11.3673,11.5333,11.5625,11.5625,11.5625,11.5625,11.5625,11.5625,11.5625,11.5625,11.5625,11.5625,11.5821,11.626,11.6808,11.7393,11.7871,11.7061,11.745,11.9501,11.524,11.204,11.051,10.7685,10.4386,10.0758,10.0674,10.0674,10.0674,10.0674,10.0674,10.0674,10.0674,10.0674,10.0674,10.0674,10.0674,10.0674,10.0674,10.0674,10.0674,10.0674,10.0674,10.0674,10.0674,10.0674,10.0674,10.0674,10.0674,10.0674,10.0674,10.0674,10.0674,10.0674,10.0674,10.0674,10.0674,10.0674,10.0674,10.0674,10.0674,10.0674,10.0674,10.0674,10.0674,10.0674,10.0674,10.0674,10.0674,10.0674,10.0674,10.0674,10.0674,10.0674,10.0674,10.0674,10.0674,10.0674,10.0674,10.0674,10.0674,10.0674,10.0674,10.0674,10.0674,10.0674,10.0674,10.0674,10.0674,10.0674,10.0674,10.0674,10.0674,10.0674,10.0674,10.0674,10.0674,10.0674,10.0674,10.0674,10.0674,10.0901,10.3228,10.5361,10.6059,10.6938,10.7705,10.7705,10.7461,10.7719,10.9489,11.1294,11.3087,11.4893,11.543,11.5625,11.5625,11.5625,11.5625,11.5625,11.5625,11.5625,11.5625,11.5625,11.5625,11.5625,11.5437,11.5252,11.5252,11.3173,11.2907,11.5323,11.0782,10.8172,10.8355,10.5599,10.2968,10.0674,10.0674,10.0674,10.0674,10.0674,10.0674,10.0674,10.0674,10.0674,10.0674,10.0674,10.0674,10.0674,10.0674,10.0674,10.0674,10.0674,10.0674,10.0674,10.0674,10.0674,10.0674,10.0674,10.0674,10.0674,10.0674,10.0674,10.0674,10.0674,10.0674,10.0674,10.0674,10.0674,10.0674,10.0674,10.0674,10.0674,10.0674,10.0674,10.0674,10.0674,10.0674,10.0674,10.0674,10.0674,10.0674,10.0674,10.0674,10.0674,10.0674,10.0674,10.0674,10.0674,10.0674,10.0674,10.0674,10.0674,10.0674,10.0674,10.0674,10.0674,10.0674,10.0674,10.0674,10.0674,10.0674,10.0674,10.0674,10.0674,10.0674,10.0674,10.0674,10.0674,10.0674,10.0674,10.0674,9.773,10.0414,10.2902,10.2868,10.5293,10.7705,10.7705,10.6875,10.647,10.7509,11.0305,11.2892,11.3929,11.4953,11.5625,11.5625,11.5625,11.5625,11.5625,11.5625,11.5625,11.5625,11.5625,11.5625,11.5625,11.265,11.0683,11.0683,10.8512,10.7182,10.7222,10.4819,10.3897,10.4834,10.1292,9.9832,10.0674,10.0674,10.0674,10.0674,10.0674,10.0674,10.0674,10.0674,10.0674,10.0674,10.0674,10.0674,10.0674,10.0674,10.0674,10.0674,10.0674,10.0674,10.0674,10.0674,10.0674,10.0674,10.0674,10.0674,10.0674,10.0674,10.0674,10.0674,10.0674,10.0674,10.0674,10.0674,10.0674,10.0674,10.0674,10.0674,10.0674,10.0674,10.0674,10.0674,10.0674,10.0674,10.0674,10.0674,10.0674,10.0674,10.0674,10.0674,10.0674,10.0674,10.0674,10.0674,10.0674,10.0674,10.0674,10.0674,10.0674,10.0674,10.0674,10.0674,10.0674,10.0674,10.0674,10.0674,10.0674,10.0674,10.0674,10.0674,10.0674,10.0674,10.0674,10.0674,10.0674,10.0674,10.0674,10.0674,9.6639,9.9275,10.2106,10.3536,10.5312,10.6386,10.562,10.6889,10.7914,10.6826,10.9134,11.1928,11.3782,11.4368,11.4807,11.5528,11.5625,11.5625,11.5625,11.5625,11.5625,11.5625,11.5625,11.471,11.2459,11.1261,10.9669,10.7322,10.4306,10.3598,10.5915,10.3782,10.2581,10.2795,10.2343,10.1399,9.9749,9.9789,10.007,10.0674,10.007,10.0111,10.0674,10.0674,10.0674,10.0674,10.0674,10.0674,10.0674,10.0674,10.0674,10.0674,10.0674,10.0674,10.0674,10.0674,10.0674,10.0674,10.0674,10.0674,10.0674,10.0674,10.0674,10.0674,10.0674,10.0674,10.0674,10.0674,10.0674,10.0674,10.0674,10.0674,10.0674,10.0674,10.0674,10.0674,10.0674,10.0674,10.0674,10.0674,10.0674,10.0674,10.0674,10.0674,10.0674,10.0674,10.0674,10.0674,10.0674,10.0674,10.0674,10.0674,10.0674,10.0674,10.0674,10.0674,10.0674,10.0674,10.0674,10.0674,10.0674,10.0674,10.0674,10.0674,10.0674,10.0674,10.0674,10.0674,10.0674,10.0674,10.0674,10.0674,9.4411,9.7449,10.0983,10.2301,10.3765,10.5019,10.5522,10.6889,10.7705,10.6421,10.7963,11.0172,11.1928,11.3295,11.4466,11.5479,11.5625,11.5625,11.5625,11.5625,11.5625,11.5625,11.5625,11.4834,11.2726,11.0173,10.7792,10.5706,10.1188,9.9484,10.1593,10.0317,9.9709,9.9918,10.0585,10.0238,9.8823,9.8823,9.9062,9.9668,9.9062,9.9145,9.9708,10.003,10.0191,10.0191,10.0553,10.0674,10.0674,10.0674,10.0674,10.0674,10.0674,10.0674,10.0674,10.0674,10.0674,10.0674,10.0674,10.0674,10.0674,10.0674,10.0674,10.0674,10.0674,10.0674,10.0674,10.0674,10.0674,10.0674,10.0674,10.0674,10.0674,10.0674,10.0674,10.0674,10.0674,10.0674,10.0674,10.0674,10.0674,10.0674,10.0674,10.0674,10.0674,10.0674,10.0674,10.0674,10.0674,10.0674,10.0674,10.0674,10.0674,10.0674,10.0674,10.0674,10.0674,10.0674,10.0674,10.0674,10.0674,10.0674,10.0674,10.0674,10.0674,10.0674,10.0674,10.0674,10.0674,10.0674,10.0674,10.0674,9.1072,9.4662,9.9292,9.9552,10.1028,10.3184,10.6221,10.6492,10.6079,10.5933,10.6777,10.7865,10.8841,11.1538,11.4026,11.5235,11.5528,11.555,11.5324,11.5287,11.5211,11.4985,11.4948,11.4872,11.4559,10.8892,10.5072,10.4834,9.8995,9.5446,9.5446,9.5446,9.5849,9.6694,9.6694,9.7095,9.7855,9.7855,9.7855,9.7855,9.7855,9.7895,9.7976,9.882,9.9266,9.9263,10.0151,10.0513,10.0513,10.0513,10.0553,10.0594,10.0594,10.0634,10.0674,10.0674,10.0674,10.0674,10.0674,10.0674,10.0674,10.0674,10.0674,10.0674,10.0674,10.0674,10.0674,10.0674,10.0674,10.0674,10.0674,10.0674,10.0674,10.0674,10.0674,10.0674,10.0594,10.0634,10.0674,10.0594,10.0634,10.0674,10.0674,10.0674,10.0674,10.0674,10.0674,10.0674,10.0674,10.0674,10.0674,10.0674,10.0674,10.0674,10.0674,10.0674,10.0674,10.0674,10.0674,10.0674,10.0674,10.0674,10.0674,10.0674,10.0674,10.0674,10.0674,10.0674,10.0674,10.0674,10.0674,10.0674,8.6873,9.0155,9.4968,9.8027,9.8608,9.8575,9.9318,10.2933,10.5654,10.396,10.5132,10.6568,10.6826,10.8144,11.0061,11.2843,11.46,11.471,11.2143,11.1798,11.0837,10.8222,10.7909,10.689,10.4277,10.264,10.0623,9.8011,9.6319,9.5446,9.5446,9.5446,9.5567,9.5768,9.5768,9.6211,9.7055,9.7055,9.7055,9.7055,9.7055,9.7417,9.7976,9.8177,9.8297,9.8297,9.8498,9.8579,9.8579,9.8579,9.9021,9.9625,9.9625,10.007,10.0674,10.0674,10.0674,10.0674,10.0674,10.0674,10.0674,10.0674,10.0674,10.0674,10.0674,10.0674,10.0674,10.0674,10.0674,10.0674,10.0674,10.0674,10.0674,10.0674,10.0674,10.0513,9.9829,10.0191,10.0473,9.9789,10.0231,10.0674,10.0674,10.0674,10.0674,10.0674,10.0674,10.0674,10.0674,10.0674,10.0674,10.0674,10.0674,10.0674,10.0674,10.0674,10.0674,10.0674,10.0674,10.0674,10.0674,10.0674,10.0674,10.0674,10.0674,10.0674,10.0674,10.0674,10.0674,10.0674,10.0674,10.0674,8.7166,8.861,9.0832,9.2702,9.3691,9.4827,9.7181,10.0233,10.259,10.278,10.3054,10.3254,10.3254,10.4931,10.6465,10.6706,11.012,11.205,11.0126,11.163,11.1495,10.7627,10.8965,10.8222,10.3322,10.2841,10.1391,9.8052,9.6319,9.5446,9.5446,9.5446,9.5446,9.5446,9.5446,9.5688,9.6171,9.6171,9.6171,9.6171,9.6171,9.637,9.6811,9.7256,9.7415,9.7415,9.7817,9.7976,9.7976,9.7976,9.8257,9.87,9.87,9.8981,9.9467,9.9467,9.9467,9.9507,9.995,10.0352,10.0674,10.0674,10.0674,10.0674,10.0674,10.0674,10.0674,10.0674,10.0674,10.0674,10.0674,10.0674,10.0594,10.0151,10.007,9.9829,9.8901,9.9062,9.9427,9.9346,9.9749,10.0191,10.0634,10.0674,10.0674,10.0674,10.0674,10.0674,10.0674,10.0674,10.0674,10.0674,10.0674,10.0674,10.0674,10.0674,10.0674,10.0674,9.991,9.9467,9.9467,9.9467,9.9467,9.9467,9.9467,9.9467,9.9467,9.9467,9.9467,9.9467,9.9467,9.9668,8.7854,8.7904,8.7594,8.6644,8.8918,9.2341,9.5942,9.78,9.9434,10.1682,10.1202,10.0396,10.0571,10.2466,10.3267,10.0958,10.464,10.784,10.8013,11.1859,11.3074,10.8775,11.1299,11.1107,10.531,10.4277,10.2841,9.9932,9.7022,9.5446,9.5446,9.5446,9.5446,9.5446,9.5446,9.5446,9.5446,9.5446,9.5446,9.5446,9.5446,9.5446,9.5486,9.6251,9.6614,9.6654,9.7294,9.7616,9.7616,9.7616,9.7654,9.7817,9.7817,9.7898,9.7976,9.7976,9.7976,9.8056,9.882,9.9628,10.0272,10.0272,10.0392,10.0473,10.0473,10.0594,10.0634,10.0352,10.0272,10.0272,10.0272,10.0272,10.007,9.9346,9.9102,9.8904,9.8018,9.7855,9.8136,9.8823,9.9065,9.9343,9.9976,10.0053,10.0009,9.9878,9.9834,9.9921,10.0053,10.0053,10.0097,10.0272,10.0392,10.0473,10.0473,10.0473,10.0433,10.0272,9.882,9.7976,9.7976,9.7976,9.7976,9.7976,9.7976,9.7976,9.7976,9.7976,9.7976,9.7976,9.7976,9.8378,8.192,8.4962,8.7284,8.4894,8.8917,9.2603,8.9227,9.4861,10.052,9.9297,10.0833,10.2653,10.356,10.1946,10.1184,10.3359,10.2266,10.175,10.3421,10.7348,10.8745,10.521,10.3624,10.2399,10.135,9.8667,9.6774,9.6277,9.5737,9.5446,9.5446,9.5446,9.5446,9.5446,9.5446,9.5446,9.5446,9.5446,9.5446,9.5446,9.5446,9.5446,9.5446,9.5565,9.5688,9.5688,9.5767,9.5807,9.5807,9.5807,9.625,9.6974,9.6974,9.7417,9.7976,9.7976,9.7976,9.7976,9.8136,9.8257,9.8378,9.8378,9.8901,9.9547,9.9547,10.007,10.0392,9.882,9.8378,9.8378,9.8378,9.8378,9.8338,9.8177,9.8177,9.7935,9.7135,9.7495,9.7817,9.7296,9.7696,9.7959,9.7348,9.7219,9.696,9.6225,9.6095,9.6355,9.7132,9.7219,9.752,9.8292,9.9062,9.9547,9.9547,9.9547,9.9226,9.8418,9.8096,9.7976,9.7976,9.7976,9.7976,9.7976,9.7976,9.7976,9.7976,9.7976,9.7976,9.7976,9.7976,9.8056,8.2977,8.498,8.6872,8.6144,8.9162,9.173,8.9524,9.4545,9.9427,9.856,9.9453,10.0038,9.8919,9.8394,9.7369,9.4887,9.5956,9.7628,9.9058,10.5408,10.8395,10.4476,10.5164,10.3798,9.834,9.8011,9.7394,9.5571,9.5446,9.5446,9.5446,9.5446,9.5446,9.5446,9.5446,9.5446,9.5446,9.5446,9.5446,9.5446,9.5446,9.5446,9.5446,9.5446,9.5446,9.5446,9.5446,9.5446,9.5446,9.5446,9.5688,9.609,9.609,9.629,9.6612,9.6612,9.6612,9.665,9.7176,9.7337,9.7375,9.7815,9.8257,9.8579,9.8579,9.886,9.9021,9.8177,9.7976,9.7976,9.7976,9.7976,9.7898,9.7457,9.7337,9.7095,9.6251,9.633,9.6652,9.6775,9.7095,9.7327,9.7342,9.7336,9.7207,9.6778,9.6735,9.6864,9.7293,9.6907,9.695,9.789,9.7908,9.8062,9.8536,9.7318,9.6322,9.5886,9.5407,9.513,9.513,9.513,9.5345,9.5852,9.6359,9.6612,9.6612,9.6612,9.6612,9.6612,9.6612,9.6894,8.3974,0.0,8.8241,8.7931,9.0231,9.2351,0.0,9.4637,9.8065,9.8333,9.7783,9.6817,9.5218,9.5172,9.365,8.8345,9.0803,9.4056,9.5794,10.2494,10.6329,10.3968,10.6174,10.4835,9.7024,9.8092,9.8258,9.5612,9.5446,9.5446,9.5446,9.5446,9.5446,9.5446,9.5203,9.5245,9.5446,9.5446,9.5446,9.5446,9.5446,9.5446,9.5446,9.5446,9.5446,9.5446,9.5446,9.5446,9.5446,9.5446,9.5446,9.5446,9.5446,9.5446,9.5446,9.5446,9.5446,9.5567,9.6251,9.6493,9.6614,9.7173,9.7536,9.7696,9.7696,9.7536,9.7375,9.7375,9.7375,9.7375,9.7375,9.7375,9.7214,9.6654,9.6493,9.6292,9.5607,9.5446,9.5688,9.6372,9.6325,9.6273,9.6699,9.6523,9.631,9.6139,9.6096,9.6182,9.6395,9.5797,9.5712,9.6651,9.6295,9.6286,9.6971,9.5021,9.3783,9.3783,9.3115,9.2724,9.2724,9.2724,9.306,9.3734,9.4445,9.4779,9.4779,9.4779,9.4779,9.4779,9.4779,9.5265,0.0,8.7624,9.324,8.8947,9.2689,9.6336,9.1957,9.4054,0.0,9.8192,9.6158,9.5008,9.7542,9.42,9.1108,9.1475,9.0225,9.0599,9.4438,9.6266,9.8611,10.2266,10.1085,9.9662,9.8944,9.7023,9.5695,9.5446,9.5446,9.5446,9.5446,9.5446,9.5446,9.5446,9.4599,9.4559,9.5446,9.5446,9.5446,9.5446,9.5446,9.5446,9.5446,9.5446,9.5446,9.5446,9.5446,9.5446,9.5446,9.5446,9.5446,9.5446,9.5446,9.5446,9.5446,9.5446,9.5446,9.5445,9.5526,9.5567,9.5525,9.5565,9.6211,9.6896,9.6896,9.6292,9.5606,9.5606,9.5606,9.5606,9.5606,9.5606,9.5647,9.5567,9.5567,9.5526,9.5486,9.5446,9.5486,9.5485,9.4859,9.4021,9.3217,9.2413,9.1528,9.0679,9.0551,9.0849,9.1736,9.174,9.2078,9.3004,9.3793,9.4303,9.4345,9.3434,9.2841,9.2841,9.2763,9.2724,9.2724,9.2724,9.2766,9.2808,9.285,9.2892,9.2892,9.2892,9.2892,9.2892,9.2892,9.3396,8.6771,9.1338,9.471,9.4262,9.6613,9.8271,9.5281,9.7704,9.9603,9.6286,9.6158,9.588,9.3171,9.1538,9.0087,8.8573,8.8155,8.8905,9.1491,9.4044,9.6623,9.929,9.8822,9.7705,9.6117,9.5179,9.4801,9.5406,9.5446,9.5446,9.5446,9.4881,9.4841,9.5404,9.5124,9.5082,9.5446,9.5446,9.5446,9.5446,9.5446,9.5446,9.5446,9.5446,9.5446,9.5446,9.5446,9.5446,0.0,9.5446,9.5446,9.5446,9.5446,9.5071,9.4654,9.5238,9.5071,9.4696,9.5238,9.5446,9.5446,9.5446,9.5688,9.5969,9.5969,9.5728,9.5446,9.5446,9.5446,9.5279,9.4738,9.4612,9.4445,9.3899,9.3774,9.3774,9.3774,9.3774,9.3774,9.3774,9.348,9.3144,9.2766,9.2429,9.2092,9.1754,9.1712,9.1839,9.2176,9.1712,9.1712,9.2598,9.253,9.2134,9.1581,9.1227,9.1035,9.1035,9.1035,9.1035,9.1035,9.1035,9.1289,9.1881,9.1881,9.2134,9.2724,9.2724,9.2724,9.2724,9.2724,9.2892,9.0042,9.3276,9.5352,9.7437,9.8836,9.947,9.8453,9.9871,10.0248,9.6124,9.6193,9.5392,9.0187,8.9731,8.9256,8.6593,8.6873,8.7959,8.9449,9.2166,9.4311,9.5191,9.5568,9.5072,9.3393,9.3512,9.4036,9.4921,9.5043,9.5123,9.5404,9.4882,9.4801,9.5446,9.5164,9.5164,9.5446,9.5446,9.5446,9.5446,9.5446,9.5446,9.5446,9.5446,9.5446,9.5446,9.5446,9.5446,9.5446,9.5446,9.5446,9.5446,9.5446,9.5071,9.4612,9.5196,9.503,9.4571,9.4904,9.4988,9.4946,9.4654,9.4779,9.4988,9.4988,9.4779,9.4571,9.4571,9.4571,9.4404,9.3818,9.365,9.3483,9.285,9.2724,9.2724,9.2724,9.2724,9.2724,9.2724,9.2471,9.2303,9.2303,9.205,9.1881,9.1881,9.1881,9.1881,9.1881,9.1331,9.1162,9.1796,9.1289,9.0696,9.0059,9.0016,9.0016,9.0016,9.0016,9.0016,9.0016,9.0016,9.0314,9.0908,9.095,9.1247,9.1881,9.1881,9.1881,9.1881,9.1881,9.2007,8.9254,9.2765,9.5383,9.7437,9.8884,9.9991,10.0999,9.9722,9.8345,9.8264,9.5915,9.2897,8.9792,8.9179,8.8507,8.6434,8.6911,8.7796,8.8722,9.0293,9.1058,9.0134,9.0777,9.134,9.134,9.2184,9.311,9.3995,9.4076,9.4438,9.5406,9.5446,9.5446,9.5446,9.4519,9.4519,9.5446,9.5446,9.5446,9.5446,9.5446,9.5446,9.5446,9.5446,9.5446,9.5446,9.5446,9.5446,9.5446,9.5446,9.5446,9.5404,9.5404,9.5404,9.5404,9.5404,9.5404,9.5279,9.4445,9.4111,9.3944,9.3018,9.3315,9.4111,9.4069,9.3399,9.2724,9.2724,9.2724,9.2724,9.2724,9.2724,9.2682,9.2682,9.2682,9.2682,9.2682,9.2682,9.2682,9.2682,9.1965,9.1331,9.1331,9.0611,9.0016,9.0016,9.0016,9.0016,9.0016,9.0016,9.0016,9.0016,9.0016,9.0016,9.0016,9.0016,9.0016,9.0016,9.0016,9.0016,9.0016,9.0016,9.0016,9.0016,9.0016,9.0016,9.0016,9.0016,9.0016,9.0016,9.0016,9.0484,8.9943,9.3291,9.6475,9.864,9.9454,9.9503,9.852,9.8324,9.7563,9.483,9.234,9.0295,8.9396,8.7486,8.6095,8.6137,8.8715,9.0298,8.8991,9.1716,9.2879,9.0288,9.0254,9.0415,9.0415,9.1259,9.2104,9.307,9.315,9.3512,9.4438,9.3875,9.3512,9.3512,9.3875,9.4197,9.452,9.5082,9.5446,9.5446,9.5446,9.5446,9.5446,9.5446,9.5446,9.5446,9.5446,9.5446,9.5446,9.5446,9.5071,9.4487,9.4487,9.4069,9.3606,9.4236,9.4487,9.4529,9.4904,9.503,9.4904,9.3985,9.386,9.386,9.2559,9.2429,9.2724,9.2724,9.2724,9.2724,9.2724,9.2218,9.1585,9.095,9.0823,9.0823,9.0823,9.0823,9.0823,9.0823,9.0611,9.0399,9.0399,9.0187,9.0016,9.0016,9.0016,9.0016,9.0016,9.0016,9.0016,9.0016,9.0016,9.0016,9.0016,9.0016,9.0016,9.0016,9.0016,9.0016,9.0016,9.0016,9.0016,9.0016,9.0016,9.0016,9.0016,9.0016,9.0016,9.0016,9.0016,9.0144,9.1512,9.3865,9.5378,9.8286,9.9356,9.9129,9.6883,9.8028,9.7869,9.1989,9.2519,9.2657,8.8275,8.7959,8.7767,8.5874,8.7919,8.9383,8.8427,9.0705,9.1827,9.0209,9.0013,9.0013,9.0013,9.0495,9.1018,9.1621,9.1983,9.2425,9.2989,9.2466,9.2345,9.2707,9.3271,9.3389,9.3062,9.3624,9.3698,9.3368,9.3645,9.3804,9.3844,9.4203,9.436,9.436,9.436,9.436,9.436,9.436,9.4027,9.3567,9.3944,9.3525,9.285,9.3734,9.386,9.3567,9.3734,9.3776,9.365,9.2769,9.2685,9.2727,9.1289,9.1204,9.1627,9.1627,9.1627,9.1627,9.1627,9.1247,9.0696,9.0144,9.0016,9.0016,9.0016,9.0016,9.0016,9.0016,9.0016,9.0016,9.0016,9.0016,9.0016,9.0016,9.0016,9.0016,9.0016,9.0016,9.0016,9.0016,8.9409,8.8987,8.8987,8.8987,8.8987,8.8987,8.8987,8.8987,8.8987,8.8987,8.8987,8.8987,8.8987,8.8987,8.8987,8.8987,8.9181,8.9523,8.9523,8.9713,9.2615,9.3819,9.3064,9.7013,9.8787,9.879,9.5941,9.7919,9.8033,8.9988,9.4375,9.6701,8.696,8.9474,9.1226,8.5663,8.5728,8.6769,8.7391,8.851,8.9435,8.9932,9.0013,9.0013,9.0013,9.0013,9.0013,9.0013,9.0777,9.1219,9.1219,9.1219,9.1621,9.2425,9.2506,9.2141,9.1412,9.145,9.1002,9.0185,9.0888,9.1238,9.1279,9.2098,9.2489,9.2489,9.2489,9.2489,9.2489,9.2489,9.2447,9.2447,9.3288,9.3079,9.2447,9.3288,9.3199,9.248,9.168,9.1423,9.1331,9.0441,9.0539,9.0847,9.0043,8.9789,8.9789,8.9865,8.9903,8.9903,8.9979,9.0016,9.0016,9.0016,9.0016,9.0016,9.0016,9.0016,9.0016,9.0016,9.0016,8.9979,8.9903,8.9903,8.9903,8.9903,8.9903,8.9903,8.9903,8.9903,8.9865,8.9789,8.838,8.7469,8.7469,8.7469,8.7469,8.7469,8.7469,8.7469,8.7469,8.7469,8.7469,8.7469,8.7469,8.7469,8.7469,8.7469,8.7928,8.873,8.873,8.9067,8.697,8.9874,9.3064,9.7013,9.8169,9.7642,9.4857,9.3701,9.2636,9.0756,8.8686,8.744,8.8112,8.7413,8.6283,8.4965,8.7691,8.9339,8.7696,9.0377,9.19,9.0206,9.0013,9.0013,9.0013,9.0013,9.0013,9.0013,9.0174,9.0294,9.0294,9.0294,9.0375,9.0576,9.066,9.0659,9.0497,9.0483,9.039,9.0226,9.0342,9.0459,9.0459,9.0655,9.0733,9.0733,9.0733,9.0733,9.0733,9.0733,9.032,8.9698,8.9866,8.9824,8.9698,8.9866,9.0668,9.1629,9.1421,9.1844,9.2261,9.1374,8.9858,8.825,8.8084,8.8001,8.8194,8.884,8.9109,8.9223,8.9827,9.0016,9.0016,9.0016,9.0016,9.0016,9.0016,9.0016,9.0016,9.0016,9.0016,8.9789,8.9185,8.9109,8.9109,8.9109,8.9109,8.9109,8.9109,8.9109,8.8844,8.8077,8.7697,8.7469,8.7469,8.7469,8.7469,8.7469,8.7469,8.7469,8.7469,8.7469,8.7469,8.7469,8.7469,8.7469,8.7469,8.7469,8.7583,8.7773,8.7773,8.7849,8.6938,8.9646,9.2311,9.6237,9.7584,9.7126,9.3803,9.3725,9.3531,9.0752,8.9202,8.8429,8.8467,8.8471,8.8137,8.7038,8.87,8.9843,8.9071,8.9534,8.9665,8.8878,8.9167,8.9449,8.9449,8.9772,9.0013,9.0013,9.0013,8.9856,8.9462,8.9422,8.9225,8.879,8.9266,8.9345,8.8906,8.8858,8.8691,8.8327,8.8347,8.8336,8.8336,8.872,8.8874,8.8874,8.8874,8.8874,8.8874,8.8874,8.8624,8.8213,8.8624,8.8542,8.8213,8.8707,8.9103,8.9488,8.9488,8.9797,9.0099,8.9639,8.8565,8.7469,8.7469,8.7469,8.7583,8.8042,8.8194,8.827,8.8646,8.8802,8.8802,8.8802,8.9143,8.9409,8.9409,8.9713,9.0016,9.0016,9.0016,8.9751,8.8957,8.8844,8.8692,8.8232,8.8194,8.8194,8.8194,8.7894,8.7245,8.6331,8.6255,8.6255,8.6255,8.6255,8.6255,8.6255,8.6255,8.6255,8.6255,8.6255,8.6255,8.6255,8.6255,8.6255,8.6255,8.6255,8.6483,8.69,8.69,8.709,8.7541,8.9717,9.0768,9.4512,9.6585,9.6611,9.2374,9.4308,9.5489,9.03,9.1015,9.156,8.826,9.003,9.1153,8.8842,8.8896,8.9337,8.976,8.7636,8.643,8.7355,8.812,8.8601,8.8601,8.9328,8.9812,8.9812,8.9812,8.9458,8.8632,8.879,8.8395,8.7482,8.8197,8.8157,8.7283,8.7124,8.6687,8.6088,8.6091,8.6068,8.6106,8.671,8.7014,8.7014,8.7014,8.7014,8.7014,8.7014,8.7014,8.7134,8.7874,8.7709,8.7096,8.7879,8.7789,8.728,8.728,8.7356,8.7431,8.7128,8.7014,8.7014,8.7014,8.7014,8.7052,8.7242,8.728,8.7318,8.7431,8.7469,8.7469,8.7469,8.808,8.8616,8.8616,8.9105,8.9561,8.9561,8.9561,8.9295,8.854,8.8388,8.8118,8.7356,8.728,8.728,8.728,8.6559,8.5802,8.5043,8.4967,8.4967,8.4967,8.4967,8.4967,8.4967,8.4967,8.4967,8.4967,8.4967,8.4967,8.4967,8.4967,8.4967,8.4967,8.4967,8.5347,8.6068,8.6068,8.6448,8.2694,8.5935,8.7866,9.0626,9.399,9.5169,8.9676,9.0746,9.2187,8.9731,8.824,8.7345,8.7645,8.8744,8.8691,8.5806,8.7559,8.8653,8.6958,8.6371,8.643,8.7355,8.7557,8.7637,8.7637,8.8442,8.8965,8.8965,8.8965,8.8615,8.7719,8.8394,8.8395,8.7482,8.7562,8.7283,8.6448,8.5688,8.5248,8.5128,8.5121,8.5119,8.5119,8.5233,8.5268,8.5268,8.5268,8.5268,8.5268,8.5268,8.5268,8.5309,8.543,8.5389,8.5309,8.5392,8.5883,8.6486,8.6486,8.6941,8.7242,8.5764,8.5268,8.5268,8.5268,8.5268,8.5461,8.6258,8.6486,8.6638,8.728,8.7469,8.7469,8.7469,8.7545,8.7659,8.7659,8.7735,8.7811,8.7811,8.7811,8.7545,8.6789,8.6638,8.66,8.6486,8.6486,8.6486,8.6486,8.5688,8.5081,8.4967,8.4967,8.4967,8.4967,8.4967,8.4967,8.4967,8.4967,8.4967,8.4967,8.4967,8.4967,8.4967,8.4967,8.4967,8.4967,8.4967,8.5005,8.5119,8.5119,8.5195,7.9566,8.2827,8.5805,8.902,9.1527,9.2584,8.9986,9.2054,9.3387,8.9299,8.7767,8.6951,8.6332,8.7107,8.7528,8.6736,8.8063,8.8914,8.799,8.638,8.5505,8.5907,8.639,8.6712,8.6712,8.7516,8.8078,8.8078,8.8078,8.7501,8.6148,8.6937,8.6779,8.5436,8.5818,8.6128,8.6328,8.5928,8.5728,8.5728,8.5208,8.4967,8.4967,8.4967,8.4967,8.4967,8.4967,8.4967,8.4967,8.4967,8.4967,8.4967,8.4967,8.4967,8.4967,8.4967,8.5195,8.5537,8.5537,8.5764,8.5914,8.5195,8.4967,8.4967,8.4967,8.4967,8.5043,8.5423,8.5537,8.5612,8.5952,8.6027,8.6027,8.6027,8.6407,8.6786,8.6786,8.7166,8.7469,8.7469,8.7469,8.7242,8.6448,8.6296,8.6144,8.5612,8.5537,8.5537,8.5537,8.5195,8.4967,8.4967,8.4967,8.4967,8.4967,8.4967,8.4967,8.4967,8.4967,8.4967,8.4967,8.4967,8.4967,8.4967,8.4967,8.4967,8.4967,8.4967,8.4967,8.4967,8.4967,8.4967,7.6737,7.9812,8.2822,8.5991,8.808,8.9022,8.7381,9.0605,9.2516,8.7501,8.6842,8.6693,8.5124,8.5867,8.6691,8.6645,8.7945,8.8636,8.7917,8.6026,8.4595,8.4225,8.5083,8.5636,8.5224,8.6364,8.6882,8.6223,8.6423,8.5854,8.4359,8.5139,8.4981,8.3489,8.4208,8.4945,8.5701,8.5853,8.5968,8.5968,8.5288,8.4967,8.4967,8.4967,8.4967,8.4967,8.4967,8.4967,8.4967,8.4967,8.4967,8.4967,8.4967,8.4967,8.4967,8.4967,8.4967,8.4967,8.4967,8.4967,8.4967,8.4967,8.4967,8.4967,8.4967,8.4967,8.4967,8.4967,8.4967,8.4967,8.4967,8.4967,8.4967,8.4967,8.5461,8.5954,8.5954,8.6448,8.6824,8.6824,8.6824,8.6635,8.6068,8.5954,8.5726,8.5043,8.4967,8.4967,8.4967,8.4967,8.4967,8.4967,8.4967,8.4967,8.4967,8.4967,8.4967,8.4967,8.4967,8.4967,8.4967,8.4967,8.4967,8.4967,8.4967,8.4967,8.4967,8.4967,8.4967,8.4967,8.4967,8.4967,7.3781,7.6543,7.7882,7.9561,8.2838,8.4183,7.8723,8.2527,8.6324,8.3313,8.4054,8.5013,8.4208,8.548,8.5852,8.3117,8.5771,8.7135,8.429,8.4373,8.4225,8.2697,8.389,8.4227,8.2738,8.4764,8.5226,8.2855,8.3486,8.3539,8.2624,8.3396,8.3471,8.2498,8.3373,8.3869,8.3909,8.4667,8.5047,8.5047,8.4967,8.4967,8.4967,8.4967,8.4967,8.4967,8.4967,8.4967,8.4967,8.4967,8.4967,8.4967,8.4967,8.4967,8.4967,8.4967,8.4967,8.4967,8.4967,8.4967,8.4967,8.4967,8.4967,8.4967,8.4967,8.4967,8.4967,8.4967,8.4967,8.4967,8.4967,8.4967,8.4967,8.4967,8.5005,8.5005,8.5005,8.5043,8.5081,8.5081,8.5081,8.5081,8.5043,8.5005,8.5005,8.4967,8.4967,8.4967,8.4967,8.4967,8.4967,8.4967,8.4967,8.4967,8.4967,8.4967,8.4967,8.4967,8.4967,8.4967,8.4967,8.4967,8.4967,8.4967,8.4967,8.4967,8.4967,8.4967,8.4967,8.4967,8.4967,8.4967,6.97,7.1641,7.3364,7.6173,7.8869,8.0283,7.8161,8.1919,8.4463,7.9802,8.1262,8.2775,8.0729,8.1753,8.2479,8.1039,8.3195,8.4329,8.2239,8.3162,8.3593,8.2547,8.337,8.3593,8.251,8.3196,8.3162,8.1763,8.2448,8.2529,8.1699,8.2471,8.2511,8.1702,8.2499,8.2917,8.2917,8.3752,8.421,8.421,8.4701,8.4967,8.4967,8.4967,8.4967,8.4967,8.4967,8.4967,8.4967,8.4967,8.4967,8.4967,8.4967,8.4967,8.4967,8.4967,8.4967,8.4967,8.4967,8.4967,8.4967,8.4967,8.4967,8.4967,8.4967,8.4967,8.4967,8.4967,8.4967,8.4967,8.4967,8.4967,8.4967,8.4967,8.4967,8.4967,8.4967,8.4967,8.4967,8.4967,8.4967,8.4967,8.4967,8.4967,8.4967,8.4967,8.4967,8.4967,8.4967,8.4967,8.4967,8.4967,8.4967,8.4967,8.4967,8.4967,8.4967,8.4967,8.4967,8.4967,8.4967,8.4967,8.4967,8.4967,8.4967,8.4967,8.4967,8.4967,8.4967,8.4967,8.4967,8.4967,6.6573,6.8045,6.9753,7.2905,7.4843,7.6044,7.595,7.8445,7.9838,7.6277,7.7572,7.8939,7.7354,7.8267,7.9176,7.9016,8.0528,8.1418,8.0418,8.1442,8.2064,8.1297,8.2118,8.2459,8.1724,8.1603,8.1378,8.0899,8.135,8.1425,8.0861,8.136,8.1401,8.0867,8.1626,8.2005,8.2005,8.2879,8.3297,8.3335,8.3866,8.4284,8.4549,8.4815,8.4967,8.4967,8.4967,8.4967,8.4967,8.4967,8.4967,8.4967,8.4967,8.4967,8.4967,8.4967,8.4777,8.4549,8.4549,8.4739,8.4967,8.4967,8.4967,8.4967,8.4967,8.4967,8.4967,8.4967,8.4967,8.4967,8.4967,8.4967,8.4967,8.4967,8.4967,8.4967,8.4967,8.4967,8.4967,8.4967,8.4967,8.4967,8.4967,8.4967,8.4967,8.4967,8.4967,8.4967,8.4967,8.4967,8.4967,8.4967,8.4967,8.4967,8.4967,8.4967,8.4967,8.4967,8.4967,8.4967,8.4967,8.4967,8.4967,8.4967,8.4967,8.4967,8.4967,8.4967,8.4967,8.4967,8.4967,8.4967,6.4683,6.5957,6.7178,6.9509,7.0787,7.1399,7.1439,7.165,7.208,7.2849,7.3228,7.3661,7.4455,7.535,7.6177,7.6964,7.7863,7.8512,7.8609,7.9344,7.9585,7.8775,8.0036,8.0754,8.0068,7.9906,7.9864,8.0031,8.0031,8.0031,8.0069,8.0069,8.0069,8.0069,8.0829,8.1208,8.1208,8.2005,8.2384,8.2384,8.2422,8.2917,8.3754,8.4511,8.4891,8.4891,8.4891,8.4891,8.4891,8.4891,8.4891,8.4891,8.4891,8.4891,8.4891,8.4891,8.436,8.3754,8.3754,8.4208,8.4891,8.4891,8.4891,8.4891,8.4929,8.4929,8.4929,8.4929,8.4967,8.4967,8.4967,8.4967,8.4967,8.4967,8.4967,8.4967,8.4967,8.4967,8.4967,8.4967,8.4967,8.4967,8.4967,8.4967,8.4967,8.4967,8.4967,8.4967,8.4967,8.4967,8.4967,8.4967,8.4967,8.4967,8.4967,8.4967,8.4967,8.4967,8.4967,8.4967,8.4967,8.4967,8.4967,8.4967,8.4929,8.4929,8.4929,8.4891,8.4891,8.4891,8.4929,8.4929,6.4957,6.5333,6.5901,6.7975,6.8681,6.8917,6.912,6.9699,7.0439,7.1112,7.1488,7.2062,7.3281,7.3883,7.445,7.5204,7.6681,7.7456,7.6839,7.8102,7.8772,7.7978,7.8785,7.9082,7.832,7.8204,7.8431,7.9044,7.9083,7.9386,8.0031,8.0069,8.0069,8.0069,8.0297,8.0411,8.0411,8.1171,8.1588,8.1588,8.2157,8.2574,8.2802,8.303,8.3105,8.3105,8.3105,8.3105,8.3105,8.3105,8.3105,8.3105,8.3105,8.3105,8.3105,8.3105,8.2992,8.2764,8.2764,8.2916,8.3105,8.3105,8.3105,8.3219,8.3866,8.4096,8.4248,8.4777,8.4967,8.4967,8.4967,8.4967,8.4967,8.4967,8.4967,8.4967,8.4967,8.4967,8.4967,8.4967,8.4967,8.4967,8.4967,8.4967,8.4967,8.4967,8.4967,8.4967,8.4967,8.4967,8.4967,8.4967,8.4967,8.4967,8.4967,8.4967,8.4967,8.4967,8.4967,8.4967,8.4967,8.4967,8.4967,8.4967,8.436,8.4096,8.4096,8.3409,8.3105,8.3143,8.379,8.4096,6.3466,6.3828,6.4523,6.5859,6.6504,6.692,6.7468,6.7569,6.7878,6.8954,6.9093,6.9462,7.0959,7.1397,7.1857,7.2938,7.4089,7.479,7.4543,7.5734,7.6583,7.6497,7.6285,7.6239,7.6459,7.6499,7.6956,7.8134,7.821,7.8475,7.9006,7.9348,7.95,7.95,7.9879,8.0069,8.0069,8.0563,8.0791,8.0753,8.1246,8.1626,8.1929,8.1929,8.2119,8.2422,8.2422,8.2422,8.2422,8.2422,8.2422,8.2422,8.2422,8.2422,8.2346,8.1663,8.1625,8.1929,8.1929,8.2157,8.2422,8.2422,8.2422,8.2536,8.3069,8.3221,8.3297,8.3751,8.417,8.4436,8.4436,8.4701,8.4967,8.4967,8.4967,8.4967,8.4967,8.4967,8.4967,8.4967,8.4967,8.4967,8.4967,8.4967,8.4967,8.4967,8.4967,8.4967,8.4967,8.4967,8.4967,8.4967,8.4967,8.4967,8.4967,8.4967,8.4815,8.4474,8.4436,8.4284,8.3902,8.3864,8.3864,8.3864,8.3448,8.3221,8.3221,8.2688,8.2422,8.246,8.2993,8.288,6.1376,6.2018,6.3291,6.3799,6.4427,6.5179,0.0,6.5297,6.4953,6.6547,6.6291,6.6341,6.7911,6.828,6.8869,7.0317,7.0848,7.1367,7.2199,7.2966,7.3656,7.4372,7.3232,7.297,7.46,7.4752,7.5473,7.7146,7.726,7.7336,7.7526,7.821,7.859,7.859,7.9386,7.9841,7.9917,7.9917,7.9993,8.0069,8.0069,8.0449,8.1133,8.1133,8.1512,8.2157,8.2157,8.2157,8.2157,8.2157,8.2157,8.2157,8.2157,8.2157,8.2005,8.0601,8.0525,8.1133,8.1133,8.1588,8.2157,8.2157,8.2157,8.2157,8.2271,8.2309,8.2309,8.2422,8.2993,8.364,8.364,8.4132,8.4701,8.4815,8.4815,8.4853,8.4929,8.4967,8.4967,8.4967,8.4967,8.4967,8.4967,8.4967,8.4967,8.4967,8.4967,8.4967,8.4967,8.4967,8.4967,8.4967,8.4967,8.4967,8.4967,8.4853,8.4474,8.3678,8.364,8.3259,8.246,8.2422,8.2422,8.2422,8.2346,8.2271,8.2157,8.2043,8.1967,8.1891,8.2081,8.1322,0.0,0.0,0.0,0.0,0.0,0.0,0.0,6.3172,6.3257,6.4098,6.3758,6.3756,6.5223,6.5579,6.6202,6.7733,6.8713,6.975,7.1075,7.1555,7.1599,7.1,7.1299,7.1941,7.2894,7.297,7.3726,7.5397,7.5511,7.6119,7.7488,7.7716,7.7792,7.7792,7.798,7.8361,7.8969,7.9006,7.9348,8.0069,8.0069,8.0145,8.0297,8.0297,8.0411,8.0563,8.0563,8.0563,8.0563,8.0563,8.0563,8.0563,8.0563,8.0563,8.0487,8.0183,8.0183,8.0297,8.0297,8.0411,8.0563,8.0563,8.0563,8.0677,8.1284,8.1474,8.1588,8.2233,8.2536,8.2688,8.2688,8.2802,8.3105,8.3868,8.402,8.421,8.4815,8.4967,8.4967,8.4967,8.4967,8.4967,8.4967,8.4967,8.4967,8.4967,8.4967,8.4967,8.4967,8.4967,8.4967,8.4967,8.4967,8.4967,8.4967,8.436,8.36,8.2726,8.2688,8.2612,8.2383,8.2422,8.2422,8.2422,8.1777,8.1171,8.0563,7.9766,7.9121,7.8551,7.9917,7.9614,0.0,0.0,0.0,0.0,0.0,0.0,0.0,0.0,0.0,0.0,0.0,6.2791,6.3537,0.0,6.4709,6.5885,6.6888,6.7967,6.9019,6.9707,6.9738,6.8832,6.9097,6.9857,7.1148,7.1228,7.1945,7.365,7.3764,7.4109,7.4982,7.5817,7.6309,7.6309,7.7108,7.7754,7.8171,7.8171,7.8361,7.8816,7.8816,7.8816,7.8816,7.8816,7.8816,7.8816,7.8816,7.8816,7.8816,7.8816,7.9082,7.9348,7.9006,7.8816,7.8816,7.8816,7.8816,7.8816,7.8816,7.8816,7.8816,7.8816,7.912,7.9462,7.988,8.0297,8.0715,8.1133,8.155,8.1815,8.1815,8.2119,8.2536,8.2993,8.3107,8.3221,8.3599,8.4056,8.436,8.436,8.4663,8.4967,8.4967,8.4625,8.436,8.436,8.4701,8.4815,8.4398,8.436,8.4018,8.3183,8.3486,8.3523,8.3145,8.3107,8.2917,8.246,8.2043,8.1663,8.1284,8.0829,8.0563,8.0563,7.9842,7.9196,7.8816,7.8361,7.7943,7.7526,7.7108,7.6425,0.0,0.0,0.0,0.0,0.0,0.0,0.0,0.0,0.0,0.0,0.0,0.0,0.0,0.0,0.0,6.4321,6.5218,6.6129,6.7085,6.7693,6.7845,6.7275,6.7199,6.7807,6.933,6.9482,7.0165,7.1907,7.2021,7.2173,7.2476,7.3802,7.4524,7.4524,7.5891,7.6653,7.6804,7.6956,7.7146,7.7298,7.7488,0.0,7.7564,7.7564,7.7564,7.7564,7.7564,7.7564,7.7564,7.7564,7.7943,7.84,7.7602,7.7298,7.7298,7.7488,7.7564,7.7564,7.7564,7.7564,7.7564,7.7564,7.7981,7.8514,7.8514,7.9006,0.0,7.9576,8.0145,8.0753,8.0753,8.1398,8.2005,8.2157,8.2195,8.2233,8.2384,8.2993,8.3486,8.3486,8.4018,8.4474,8.4474,8.379,8.326,8.307,8.364,8.3752,8.3146,8.3184,8.2766,8.1398,8.1929,8.2157,8.155,8.1198,8.1384,8.2156,8.0708,7.9765,7.9576,7.837,7.7768,7.802,7.6825,7.641,7.6804,7.6804,7.6729,7.6539,7.4074,7.3049,0.0,0.0,0.0,0.0,0.0,0.0,0.0,0.0,0.0,0.0,0.0,0.0,0.0,0.0,0.0,0.0,6.3509,6.461,6.6167,6.5794,6.5643,6.6319,6.6427,6.6775,6.7655,6.7731,6.8452,7.0127,7.0279,7.0924,7.2438,7.2666,0.0,0.0,0.0,7.3426,7.4112,7.4942,7.5663,7.6349,7.7184,7.7564,7.7564,7.7564,7.7564,7.7564,7.7564,7.7564,7.7564,7.7564,7.7602,7.7602,7.6691,7.6349,7.6463,7.726,7.7564,7.7564,7.7564,0.0,0.0,7.7564,7.7602,7.7678,7.7678,7.7754,7.783,7.783,7.8437,7.9007,7.9007,7.969,8.0525,8.1208,8.1398,8.1588,8.2271,8.2498,8.2574,8.2574,8.265,8.2726,8.2726,8.2043,8.1284,8.0601,8.0563,8.0601,8.0487,8.1133,8.1474,8.1284,8.1929,0.0,8.2309,7.8443,7.7579,8.113,7.7303,7.5752,7.7757,7.517,7.4288,7.5438,7.2746,7.2234,7.4112,7.4112,7.3732,7.3046,7.1228,7.0844,0.0,0.0,0.0,0.0,0.0,0.0,0.0,0.0,0.0,0.0,0.0,0.0,0.0,0.0,0.0,0.0,6.3243,6.401,6.4724,6.4504,6.458,6.5377,6.5491,6.5832,6.6699,6.6775,6.7269,6.8452,6.8496,6.8832,6.9515,7.0502,7.1038,7.1038,7.1983,7.2666,7.2973,7.335,7.3729,7.4071,7.4451,7.4868,7.5324,7.5324,7.559,7.6081,7.6081,7.6081,7.6081,7.6081,7.6081,7.5967,0.0,0.0,0.0,0.0,7.4906,7.5324,7.5324,7.5628,7.6081,7.6081,7.6387,7.6766,7.6766,7.7146,7.7564,7.7564,7.7792,7.8057,7.8057,7.8323,7.8702,7.9006,7.9462,7.988,8.0221,8.1056,8.1739,8.1739,8.2119,0.0,8.1208,8.1171,8.1133,8.0791,8.1133,8.1284,8.0829,8.1057,8.0867,7.988,8.0563,8.0867,8.0335,7.8894,0.0,0.0,0.0,7.7211,7.8211,7.6575,0.0,0.0,0.0,7.1907,7.2287,7.1759,0.0,0.0,6.6656,6.7009,0.0,0.0,0.0,0.0,0.0,0.0,0.0,0.0,0.0,0.0,0.0,0.0,0.0,0.0,0.0,0.0,6.2559,6.3061,6.3061,6.3441,6.3972,6.4511,6.4815,6.5156,6.5832,6.5901,6.6243,6.7047,6.7155,6.7199,6.7427,6.8642,6.9292,6.9292,7.073,7.1489,7.1489,7.1979,7.2207,7.2207,7.24,7.2818,7.3353,7.3353,7.3729,7.4334,7.4334,7.4334,7.4334,7.4334,7.4334,7.422,7.297,7.2514,7.2514,7.2514,7.2822,7.3353,7.3353,7.3805,7.4334,7.4334,7.4716,7.5172,7.5172,7.5628,7.6159,7.6159,7.6537,7.6842,7.6842,7.7184,7.7564,7.7564,7.8019,7.84,7.84,7.9386,8.0297,8.0525,8.0829,8.0677,7.9272,7.9462,7.9804,7.9576,8.0183,8.0487,7.9956,8.0259,8.007,7.8855,7.9538,7.9803,7.9158,7.8485,7.8597,7.9652,7.7846,7.7246,7.8363,7.7184,7.5535,7.3545,7.1347,7.0036,0.0,0.0,0.0,0.0,0.0,0.0,0.0,0.0,0.0,0.0,0.0,0.0,0.0,0.0,0.0,0.0,0.0,0.0,0.0,0.0,0.0,0.0,0.0,0.0,6.1323,6.2719,6.3744,6.3782,6.4473,6.4966,6.4966,6.4966,6.5377,6.6243,6.6313,6.6661,6.7389,6.7503,6.7541,6.7541,6.8414,6.8908,6.8908,7.0535,7.1367,7.1405,7.2135,7.2514,7.2552,7.2552,7.2552,7.259,7.259,7.259,7.259,7.259,7.259,7.2552,7.2514,7.2514,7.2514,7.2514,7.2514,7.2552,7.2552,7.2552,7.259,7.259,7.259,7.2628,7.2628,7.2628,7.2666,7.2666,7.384,7.5093,7.5093,7.6347,7.7564,7.7564,7.7564,7.7602,7.7602,7.764,7.7905,7.8666,7.8247,7.7412,7.6501,7.6349,7.6083,7.5321,7.5855,0.0,7.6349,7.7793,7.8779,7.8741,7.9538,8.0069,8.0031,7.5793,7.4759,7.8517,7.436,7.3519,7.7454,7.5136,7.2474,6.9617,6.6296,6.469,6.4919,0.0,0.0,0.0,0.0,0.0,0.0,0.0,0.0,0.0,0.0,0.0,0.0,0.0,0.0,0.0,0.0,0.0,0.0,0.0,0.0,0.0,0.0,0.0,0.0,6.1011,6.2302,6.293,6.3698,6.4162,6.4162,6.4162,6.4276,6.461,6.5073,6.5529,6.5763,6.6326,6.6661,6.6661,6.7465,6.7921,6.7921,6.8484,6.9054,6.9662,6.9966,7.0616,7.1713,7.1713,7.2017,7.2514,7.2514,7.2514,7.2514,7.2514,7.1186,6.9173,6.9173,6.9173,6.9173,6.9173,6.9173,6.9249,6.9857,7.0047,7.027,7.1371,7.1713,7.1827,7.2325,7.2514,7.2514,7.2514,7.2894,7.3384,7.3384,7.4185,7.4985,7.4985,7.5855,7.6653,7.6653,7.7108,7.764,7.7905,7.6349,7.5212,7.6083,7.6197,7.6311,7.6689,7.6918,7.7108,7.7108,7.7602,7.7943,7.7943,7.8209,7.8436,7.8436,7.4946,7.3354,7.4759,7.2745,7.1915,7.2753,7.3358,7.2748,7.073,6.8991,6.6429,6.3172,0.0,0.0,0.0,0.0,0.0,0.0,0.0,0.0,0.0,0.0,0.0,0.0,0.0,0.0,0.0,0.0,0.0,0.0,0.0,0.0,0.0,0.0,0.0,0.0,0.0,0.0,6.2027,6.2825,0.0,6.3357,6.3357,6.3357,6.3357,6.382,6.4207,6.4473,6.5035,6.5522,6.5788,6.6623,6.7041,6.7041,6.7313,6.7731,6.83,6.83,6.887,6.9966,6.9966,7.0232,7.0692,7.0692,7.0692,7.0692,7.0692,6.9401,6.7427,6.7123,6.7041,6.7041,6.7041,6.7041,6.7155,6.8067,6.83,6.849,6.9586,6.9966,7.0004,7.0232,7.0308,7.0198,6.9895,7.0464,7.1186,7.1186,7.2211,7.3239,7.3239,7.4074,7.4868,7.4868,7.5324,7.5741,7.5741,7.4413,7.3505,7.4334,7.4678,7.5096,7.5665,7.6309,7.6729,7.7032,7.7336,7.7564,7.7564,7.7564,7.7564,7.7564,7.5354,7.3994,7.4031,7.199,7.0548,7.0048,7.0806,7.0184,6.7908,6.7779,6.5375,0.0,0.0,0.0,0.0,0.0,0.0,0.0,0.0,0.0,0.0,0.0,0.0,0.0,0.0,0.0,0.0,0.0,0.0,0.0,0.0,0.0,0.0,0.0,0.0,0.0,0.0,0.0,6.102,6.1913,0.0,0.0,0.0,0.0,6.2398,6.2474,6.2825,6.3592,6.3698,6.4048,6.4853,6.5712,6.6167,6.6205,6.6933,6.7351,6.7389,6.7389,6.7389,6.7465,6.7465,6.7465,6.7465,6.7465,6.7465,6.7427,6.7313,6.7275,6.7199,6.6433,6.6129,6.6085,6.6085,6.6085,6.6199,6.6933,6.7237,6.7275,6.7275,6.7275,6.7161,6.6433,6.6205,0.0,0.0,6.6744,6.8604,6.8674,7.0464,7.2249,7.2287,7.2362,7.24,7.2438,7.2438,7.24,7.2211,7.2173,7.1945,7.1257,0.0,7.2252,7.2229,7.3698,7.5096,7.579,7.677,7.7374,7.7412,7.7412,7.7412,7.7412,7.6325,7.5653,7.5651,7.155,6.9085,6.8978,6.7586,6.518,6.1694,6.2799,0.0,0.0,0.0,0.0,0.0,0.0,0.0,0.0,0.0,0.0,0.0,0.0,0.0,0.0,0.0,0.0,0.0,0.0,0.0,0.0,0.0,0.0,0.0,0.0,0.0,0.0,5.6736,5.8457,5.9264,6.0166,6.0698,0.0,0.0,0.0,0.0,0.0,0.0,6.1855,6.2521,6.3243,6.4048,6.4306,6.4693,6.5301,6.546,6.5908,6.6585,6.6585,6.6889,6.7465,6.7465,6.7465,6.7465,6.7465,6.7465,6.7313,6.5453,6.4724,6.4693,6.4466,6.404,6.3538,6.3538,6.3538,6.3576,6.3736,6.423,6.4724,6.4724,6.5111,6.5536,6.5308,0.0,0.0,0.0,0.0,6.6067,6.6775,6.7839,6.8908,6.9591,7.0198,7.0806,7.1485,7.1637,7.0877,6.837,6.7877,6.7991,6.8408,6.8604,0.0,6.8343,7.0578,7.1982,7.1256,7.322,7.4944,7.5625,7.5663,7.5663,7.5663,7.1088,6.8088,6.768,6.6367,6.4844,6.3082,6.5037,6.4601,6.1371,0.0,0.0,0.0,0.0,0.0,0.0,0.0,0.0,0.0,0.0,0.0,0.0,0.0,0.0,0.0,0.0,0.0,0.0,0.0,0.0,0.0,0.0,0.0,0.0,0.0,0.0,0.0,5.4342,5.6204,5.6986,5.7545,5.7974,0.0,0.0,0.0,0.0,0.0,0.0,0.0,0.0,0.0,6.2605,6.2681,6.3221,6.4397,6.4397,6.4845,6.5681,6.5681,6.5908,6.6333,6.6333,6.6333,6.6295,6.5984,6.5832,6.5718,6.4344,6.3744,6.3668,0.0,0.0,0.0,0.0,6.196,6.2065,6.2474,6.3091,6.3706,6.3357,0.0,0.0,0.0,0.0,0.0,0.0,0.0,6.4542,6.5066,6.6319,6.7579,6.8072,6.8566,6.8989,6.9548,6.8788,6.7573,6.6015,6.481,6.4436,6.5608,6.4305,0.0,0.0,0.0,6.8511,6.8465,7.1534,7.3884,7.4375,7.3584,7.284,7.2577,6.9153,6.6794,6.6217,6.5387,6.3835,6.128,6.2028,6.0393,0.0,0.0,0.0,0.0,0.0,0.0,0.0,0.0,0.0,0.0,0.0,0.0,0.0,0.0,0.0,0.0,0.0,0.0,0.0,0.0,0.0,0.0,0.0,0.0,0.0,0.0,0.0,0.0,0.0,5.3734,5.4734,0.0,0.0,0.0,0.0,0.0,0.0,0.0,0.0,0.0,0.0,0.0,0.0,0.0,6.1703,6.3403,6.3357,6.3668,6.4435,6.4435,6.4511,6.4625,6.4625,6.4625,6.4549,6.3668,0.0,6.3403,6.3175,0.0,0.0,0.0,0.0,0.0,0.0,0.0,0.0,0.0,0.0,0.0,0.0,0.0,0.0,0.0,0.0,0.0,0.0,0.0,0.0,0.0,0.0,6.682,6.6933,6.6971,6.6839,6.6371,6.4365,6.2869,6.3773,6.1916,6.0712,0.0,0.0,0.0,0.0,0.0,0.0,6.6235,7.0472,7.3391,7.3505,7.1788,7.0262,6.9297,6.8659,6.7776,6.6651,6.5247,6.322,6.0545,5.8849,0.0,0.0,0.0,0.0,0.0,0.0,0.0,0.0,0.0,0.0,0.0,0.0,0.0,0.0,0.0,0.0,0.0,0.0,0.0,0.0,0.0,0.0,0.0,0.0,0.0,0.0,0.0,0.0,0.0,0.0,0.0,0.0,0.0,0.0,0.0,0.0,0.0,0.0,0.0,0.0,0.0,0.0,0.0,0.0,0.0,0.0,0.0,0.0,0.0,0.0,6.1893,6.2264,6.3006,6.3006,6.3006,6.293,6.1381,6.1087,6.1551,6.0176,0.0,0.0,0.0,0.0,0.0,0.0,0.0,0.0,0.0,0.0,0.0,0.0,0.0,0.0,0.0,0.0,0.0,0.0,0.0,0.0,0.0,0.0,6.3584,6.4238,6.439,6.3616,6.084,0.0,0.0,0.0,0.0,0.0,0.0,0.0,0.0,0.0,0.0,0.0,6.1895,6.7624,7.2017,7.2628,7.237,7.1092,6.8507,6.5876,6.2832,5.9286,5.8182,5.6636,0.0,0.0,0.0,0.0,0.0,0.0,0.0,0.0,0.0,0.0,0.0,0.0,0.0,0.0,0.0,0.0,0.0,0.0,0.0,0.0,0.0,0.0,0.0,0.0,0.0,0.0,0.0,0.0,0.0,0.0,0.0,0.0,0.0,0.0,0.0,0.0,0.0,0.0,0.0,0.0,0.0,0.0,0.0,0.0,0.0,0.0,0.0,0.0,0.0,0.0,0.0,0.0,0.0,0.0,0.0,0.0,0.0,0.0,6.0318,5.9568,0.0,0.0,0.0,0.0,0.0,0.0,0.0,0.0,0.0,0.0,0.0,0.0,0.0,0.0,0.0,0.0,0.0,0.0,0.0,0.0,0.0,0.0,0.0,0.0,0.0,0.0,0.0,0.0,0.0,0.0,0.0,0.0,0.0,0.0,0.0,0.0,0.0,0.0,0.0,0.0,5.72,6.2505,6.6517,6.7198,6.6232,6.4829,6.3053,6.1074,5.8836,5.6211,5.6393,0.0,0.0,0.0,0.0,0.0,0.0,0.0,0.0,0.0,0.0,0.0,0.0,0.0,0.0,0.0,0.0,0.0,0.0,0.0,0.0,0.0,0.0,0.0,0.0,0.0,0.0,0.0,0.0,0.0,0.0,0.0,0.0,0.0,0.0,0.0,0.0,0.0,0.0,0.0,0.0,0.0,0.0,0.0,0.0,0.0,0.0,0.0,0.0,0.0,0.0,0.0,0.0,0.0,0.0,0.0,0.0,0.0,0.0,0.0,5.8647,5.7659,0.0,0.0,0.0,0.0,0.0,0.0,0.0,0.0,0.0,0.0,0.0,0.0,0.0,0.0,0.0,0.0,0.0,0.0,0.0,0.0,0.0,0.0,0.0,0.0,0.0,0.0,0.0,0.0,0.0,0.0,0.0,0.0,0.0,0.0,0.0,0.0,0.0,0.0,0.0,0.0,5.3474,5.8146,6.1487,6.1883,6.0544,5.9008,5.7757,5.702,5.5753,5.3808,5.4579,0.0,0.0,0.0,0.0,0.0,0.0,0.0,0.0,0.0,0.0,0.0,0.0,0.0,0.0,0.0,0.0,0.0,0.0,0.0,0.0,0.0,0.0,0.0,0.0,0.0,0.0,0.0,0.0,0.0,0.0,0.0,0.0,0.0,0.0,0.0,0.0,0.0,0.0,0.0,0.0,0.0,0.0,0.0,0.0,0.0,0.0,0.0,0.0,0.0,0.0,0.0,0.0,0.0,0.0,0.0,0.0,0.0,0.0,0.0,0.0,0.0,0.0,0.0,0.0,0.0,0.0,0.0,0.0,0.0,0.0,0.0,0.0,0.0,0.0,0.0,0.0,0.0,0.0,0.0,0.0,0.0,0.0,0.0,0.0,0.0,0.0,0.0,0.0,0.0,0.0,0.0,0.0,0.0,0.0,0.0,0.0,0.0,0.0,0.0,0.0,0.0,5.2266,5.7008,6.0382,6.0483,6.0809,5.9707,5.6463,5.6099,5.4117,4.9642,0.0,0.0,0.0,0.0,0.0,0.0,0.0,0.0,0.0,0.0,0.0,0.0,0.0,0.0,0.0,0.0,0.0,0.0,0.0,0.0,0.0,0.0,0.0,0.0,0.0,0.0,0.0,0.0,0.0,0.0,0.0,0.0,0.0,0.0,0.0,0.0,0.0,0.0,0.0,0.0,0.0,0.0,0.0,0.0,0.0,0.0,0.0,0.0,0.0,0.0,0.0,0.0,0.0,0.0,0.0,0.0,0.0,0.0,0.0,0.0,0.0,0.0,0.0,0.0,0.0,0.0,0.0,0.0,0.0,0.0,0.0,0.0,0.0,0.0,0.0,0.0,0.0,0.0,0.0,0.0,0.0,0.0,0.0,0.0,0.0,0.0,0.0,0.0,0.0,0.0,0.0,0.0,0.0,0.0,0.0,0.0,0.0,0.0,0.0,0.0,0.0,0.0,4.9469,5.2081,5.4134,5.4891,5.486,5.4415,5.336,5.2584,5.1027,4.8372,0.0,0.0,0.0,0.0,0.0,0.0,0.0,0.0,0.0,0.0,0.0,0.0,0.0,0.0,0.0,0.0,0.0,0.0,0.0,0.0,0.0,0.0,0.0,0.0,0.0,0.0,0.0,0.0,0.0,0.0,0.0,0.0,0.0,0.0,0.0,0.0,0.0,0.0,0.0,0.0,0.0,0.0,0.0,0.0,0.0,0.0,0.0,0.0,0.0,0.0,0.0,0.0,0.0,0.0,0.0,0.0,0.0,0.0,0.0,0.0,0.0,0.0,0.0,0.0,0.0,0.0,0.0,0.0,0.0,0.0,0.0,0.0,0.0,0.0,0.0,0.0,0.0,0.0,0.0,0.0,0.0,0.0,0.0,0.0,0.0,0.0,0.0,0.0,0.0,0.0,0.0,0.0,0.0,0.0,0.0,0.0,0.0,0.0,0.0,0.0,0.0,0.0,4.7481,4.8725,4.9943,5.0824,5.0682,5.0654,5.0909,4.9977,4.881,4.7591,0.0,0.0,0.0,0.0,0.0,0.0,0.0,0.0,0.0,0.0,0.0,0.0,0.0,0.0,0.0,0.0,0.0,0.0,0.0,0.0,0.0,0.0,0.0,0.0,0.0,0.0,0.0,0.0,0.0,0.0,0.0,0.0,0.0,0.0,0.0,0.0,0.0,0.0,0.0,0.0,0.0,0.0,0.0,0.0,0.0,0.0,0.0,0.0,0.0,0.0,0.0,0.0,0.0,0.0,0.0,0.0,0.0,0.0,0.0,0.0,0.0,0.0,0.0,0.0,0.0,0.0,0.0,0.0,0.0,0.0,0.0,0.0,0.0,0.0,0.0,0.0,0.0,0.0,0.0,0.0,0.0,0.0,0.0,0.0,0.0,0.0,0.0,0.0,0.0,0.0,0.0,0.0,0.0,0.0,0.0,0.0,0.0,0.0,0.0,0.0,0.0,0.0,4.6851,4.8436,4.9568,4.9568,5.017,5.0284,4.9625,4.91,4.825,0.0,0.0,0.0,0.0,0.0,0.0,0.0,0.0,0.0,0.0,0.0,0.0,0.0,0.0,0.0,0.0,0.0,0.0,0.0,0.0,0.0,0.0,0.0,0.0,0.0,0.0,0.0,0.0,0.0,0.0,0.0,0.0,0.0,0.0,0.0,0.0,0.0,0.0,0.0,0.0,0.0,0.0,0.0,0.0,0.0,0.0,0.0,0.0,0.0,0.0,0.0,0.0,0.0,0.0,0.0,0.0,0.0,0.0,0.0,0.0,0.0,0.0,0.0,0.0,0.0,0.0,0.0,0.0,0.0,0.0,0.0,0.0,0.0,0.0,0.0,0.0,0.0,0.0,0.0,0.0,0.0,0.0,0.0,0.0,0.0,0.0,0.0,0.0,0.0,0.0,0.0,0.0,0.0,0.0,0.0,0.0,0.0,0.0,0.0,0.0,0.0,0.0,0.0,4.6794,4.7733,4.8668,4.9488,4.9436,4.9413,4.954,4.91,4.8221,4.6936,0.0,0.0,0.0,0.0,0.0,0.0,0.0,0.0,0.0,0.0,0.0,0.0,0.0,0.0,0.0,0.0,0.0,0.0,0.0,0.0,0.0,0.0,0.0,0.0,0.0,0.0,0.0,0.0,0.0,0.0,0.0,0.0,0.0,0.0,0.0,0.0,0.0,0.0,0.0,0.0,0.0,0.0,0.0,0.0,0.0,0.0,0.0,0.0,0.0,0.0,0.0,0.0,0.0,0.0,0.0,0.0,0.0,0.0,0.0,0.0,0.0,0.0,0.0,0.0,0.0,0.0,0.0,0.0,0.0,0.0,0.0,0.0,0.0,0.0,0.0,0.0,0.0,0.0,0.0,0.0,0.0,0.0,0.0,0.0,0.0,0.0,0.0,0.0,0.0,0.0,0.0,0.0,0.0,0.0,0.0,0.0,0.0,0.0,0.0,0.0,0.0,0.0,0.0,4.762,4.8445,4.9209,4.8957,4.8933,4.9237,4.873,4.7965,4.6908,0.0,0.0,0.0,0.0,0.0,0.0,0.0,0.0,0.0,0.0,0.0,0.0,0.0,0.0,0.0,0.0,0.0,0.0,0.0,0.0,0.0,0.0,0.0,0.0,0.0,0.0,0.0,0.0,0.0,0.0,0.0,0.0,0.0,0.0,0.0,0.0,0.0,0.0,0.0,0.0,0.0,0.0,0.0,0.0,0.0,0.0,0.0,0.0,0.0,0.0,0.0,0.0,0.0,0.0,0.0,0.0,0.0,0.0,0.0,0.0,0.0,0.0,0.0,0.0,0.0,0.0,0.0,0.0,0.0,0.0,0.0,0.0,0.0,0.0,0.0,0.0,0.0,0.0,0.0,0.0,0.0,0.0,0.0,0.0,0.0,0.0,0.0,0.0,0.0,0.0,0.0,0.0,0.0,0.0,0.0,0.0,0.0,0.0,0.0,0.0,0.0,0.0,0.0,4.7908,4.8734,4.8795,4.8795,4.8795,4.8795,4.8221,4.7566,4.6823,4.5596,0.0,0.0,0.0,0.0,0.0,0.0,0.0,0.0,0.0,0.0,0.0,0.0,0.0,0.0,0.0,0.0,0.0,0.0,0.0,0.0,0.0,0.0,0.0,0.0,0.0,0.0,0.0,0.0,0.0,0.0,0.0,0.0,0.0,0.0,0.0,0.0,0.0,0.0,0.0,0.0,0.0,0.0,0.0,0.0,0.0,0.0,0.0,0.0,0.0,0.0,0.0,0.0,0.0,0.0,0.0,0.0,0.0,0.0,0.0,0.0,0.0,0.0,0.0,0.0,0.0,0.0,0.0,0.0,0.0,0.0,0.0,0.0,0.0,0.0,0.0,0.0,0.0,0.0,0.0,0.0,0.0,0.0,0.0,0.0,0.0,0.0,0.0,0.0,0.0,0.0,0.0,0.0,0.0,0.0,0.0,0.0,0.0,0.0,0.0,0.0,0.0,0.0,4.7221,4.825,4.8705,4.8795,4.8795,4.8795,4.8681,4.7851,4.6194,4.534,0.0,0.0,0.0,0.0,0.0,0.0,0.0,0.0,0.0,0.0,0.0,0.0,0.0,0.0,0.0,0.0,0.0,0.0,0.0,0.0,0.0,0.0,0.0,0.0,0.0,0.0,0.0,0.0,0.0,0.0,0.0,0.0,0.0,0.0,0.0,0.0,0.0,0.0,0.0,0.0,0.0,0.0,0.0,0.0,0.0,0.0,0.0,0.0,0.0,0.0,0.0,0.0,0.0,0.0,0.0,0.0,0.0,0.0,0.0,0.0,0.0,0.0,0.0,0.0,0.0,0.0,0.0,0.0,0.0,0.0,0.0,0.0,0.0,0.0,0.0,0.0,0.0,0.0,0.0,0.0,0.0,0.0,0.0,0.0,0.0,0.0,0.0,0.0,0.0,0.0,0.0,0.0,0.0,0.0,0.0,0.0,0.0,0.0,0.0,0.0,0.0,0.0,4.6566,4.7737,4.871,4.8795,4.8795,4.8795,4.8795,4.7965,4.5995,4.4756,0.0,0.0,0.0,0.0,0.0,0.0,0.0,0.0,0.0,0.0,0.0,0.0,0.0,0.0,0.0,0.0,0.0,0.0,0.0,0.0,0.0,0.0,0.0,0.0,0.0,0.0,0.0,0.0,0.0,0.0,0.0,0.0,0.0,0.0,0.0,0.0,0.0,0.0,0.0,0.0,0.0,0.0,0.0,0.0,0.0,0.0,0.0,0.0,0.0,0.0,0.0,0.0,0.0,0.0,0.0,0.0,0.0,0.0,0.0,0.0,0.0,0.0,0.0,0.0,0.0,0.0,0.0,0.0,0.0,0.0,0.0,0.0,0.0,0.0,0.0,0.0,0.0,0.0,0.0,0.0,0.0,0.0,0.0,0.0,0.0,0.0,0.0,0.0,0.0,0.0,0.0,0.0,0.0,0.0,0.0,0.0,0.0,0.0,0.0,0.0,0.0,0.0,0.0,4.7097,4.8506,4.8705,4.8795,4.8795,4.8677,4.7823,4.5852,0.0,0.0,0.0,0.0,0.0,0.0,0.0,0.0,0.0,0.0,0.0,0.0,0.0,0.0,0.0,0.0,0.0,0.0,0.0,0.0,0.0,0.0,0.0,0.0,0.0,0.0,0.0,0.0,0.0,0.0,0.0,0.0,0.0,0.0,0.0,0.0,0.0,0.0,0.0,0.0,0.0,0.0,0.0,0.0,0.0,0.0,0.0,0.0,0.0,0.0,0.0,0.0,0.0,0.0,0.0,0.0,0.0,0.0,0.0,0.0,0.0,0.0,0.0,0.0,0.0,0.0,0.0,0.0,0.0,0.0,0.0,0.0,0.0,0.0,0.0,0.0,0.0,0.0,0.0,0.0,0.0,0.0,0.0,0.0,0.0,0.0,0.0,0.0,0.0,0.0,0.0,0.0,0.0,0.0,0.0,0.0,0.0,0.0,0.0,0.0,0.0,0.0,0.0,0.0,4.5909,4.7786,4.8449,4.8795,4.8795,4.8278,4.7136,4.5198,0.0,0.0,0.0,0.0,0.0,0.0,0.0,0.0,0.0,0.0,0.0,0.0,0.0,0.0]}]]]